GFSNGP_925_spd_000.txt.gz
Wind_Speed
20 9 7 8 7 9 8 7 7 9 10 11 12 13 13 13 7 8 9 10 14 16 13 13 19 23 26 29 30 35 37 38 45 50 41 31 32 32 22 26 27 24 22 22
17 13 11 9 8 9 7 3 7 3 8 9 3 5 6 10 10 11 12 16 13 10 8 10 19 24 24 27 30 32 35 39 32 23 26 29 18 27 33 31 31 29 26 24
11 7 6 5 16 9 6 6 9 8 13 7 6 9 10 10 12 16 15 14 11 12 11 14 22 24 26 28 24 28 30 25 21 26 26 32 25 29 43 30 32 31 28 26
13 4 5 12 4 12 11 3 5 3 6 8 6 2 6 5 10 12 9 8 7 6 7 15 16 20 24 24 26 29 27 22 25 30 34 33 26 30 33 33 31 26 26 27
4 6 4 1 3 4 7 4 4 4 1 5 5 5 5 7 1 5 4 4 4 11 10 11 15 16 20 21 23 24 22 26 30 33 38 35 32 35 35 28 26 24 23 24
2 6 8 4 3 2 4 1 7 4 6 7 6 4 3 6 4 9 9 9 10 9 5 0 6 12 16 15 19 21 25 28 31 33 37 32 26 22 19 16 12 10 6 3
1 2 5 4 9 4 5 3 5 6 0 7 6 5 5 4 11 8 11 13 11 10 8 2 3 12 17 20 24 24 27 26 27 24 27 17 15 18 15 11 8 8 8 11
2 3 1 13 7 6 7 8 4 7 10 15 8 4 7 9 10 11 10 11 11 9 7 5 6 13 17 12 16 22 22 24 21 21 17 13 15 16 13 10 11 10 13 15
2 1 5 8 4 4 4 16 10 12 7 7 8 8 7 7 8 7 8 10 12 9 8 9 3 15 12 16 18 22 23 23 22 19 19 18 17 20 16 12 12 11 22 21
3 6 8 8 8 7 5 8 8 10 13 13 9 11 9 8 6 5 6 7 9 13 12 5 9 9 11 16 19 23 25 25 25 23 20 20 18 10 7 6 7 9 21 22
6 4 1 6 5 5 6 11 13 14 13 10 13 7 6 6 5 5 7 12 10 8 11 12 15 16 18 20 24 25 27 26 24 24 27 24 18 14 9 10 16 19 22 13
5 11 5 8 5 2 13 13 11 14 15 14 13 8 7 8 7 7 6 7 9 9 4 9 15 19 23 30 31 35 29 26 23 23 23 22 19 10 11 14 13 8 11 9
4 10 10 8 10 6 16 12 11 14 9 8 7 6 5 4 8 10 8 5 1 3 5 11 16 22 25 25 19 16 16 21 26 22 26 24 18 18 14 6 8 9 9 8
6 3 12 11 3 6 10 9 9 11 9 7 8 15 10 7 7 11 10 10 6 7 13 18 22 24 22 15 12 13 19 25 19 11 15 18 17 19 17 16 16 14 11 9
11 11 10 2 8 8 8 7 11 8 7 8 12 8 11 8 8 12 11 6 10 13 17 20 18 19 17 14 11 8 11 17 14 10 7 9 13 14 16 15 16 16 15 14
7 8 5 8 7 7 7 8 7 6 5 3 4 6 8 8 11 15 13 5 10 13 22 21 21 20 19 15 11 9 5 4 5 5 5 6 10 15 18 17 15 18 17 16
3 8 7 6 7 7 7 4 5 4 5 5 5 10 13 14 14 14 15 11 14 19 20 24 18 13 13 12 9 8 9 8 6 7 9 12 16 15 15 15 16 15 15 14
6 4 4 4 5 5 5 6 5 7 5 10 14 14 12 9 6 14 18 10 8 10 10 10 9 9 9 10 9 7 6 5 4 4 6 7 10 11 12 14 14 13 13 12
7 9 8 7 7 6 6 7 9 10 10 12 13 12 13 13 14 15 11 6 4 2 2 4 7 8 9 8 8 7 6 4 4 4 6 8 7 8 8 7 8 11 13 12
10 10 12 10 13 9 6 12 13 14 15 17 16 15 12 14 13 9 5 4 3 3 3 5 7 10 11 8 6 5 5 6 5 5 6 6 7 8 8 9 10 10 11 14
7 7 6 7 8 11 11 10 11 12 17 14 12 11 11 11 10 5 3 2 4 2 4 5 11 11 9 8 8 9 8 8 6 5 5 5 7 7 8 9 10 12 14 16
4 4 5 7 6 8 8 8 7 8 9 10 10 9 8 8 7 4 2 1 1 5 8 9 11 12 11 9 8 9 8 6 3 3 4 7 9 10 10 10 9 11 12 14
8 5 5 6 5 7 8 3 5 6 7 7 9 9 9 11 10 4 4 5 1 6 6 7 8 8 8 6 7 7 5 2 3 5 9 14 17 15 13 12 11 12 13 15
7 7 6 7 8 6 3 4 5 4 3 6 8 8 9 12 12 6 6 5 3 5 5 6 9 8 8 7 8 8 5 3 5 7 7 6 8 17 16 14 13 13 14 16
8 6 4 6 5 5 8 6 7 6 6 7 7 6 6 6 5 10 6 3 4 7 7 6 8 10 13 12 12 11 10 7 6 9 11 11 9 10 10 11 12 14 16 17
9 9 8 7 7 7 6 6 7 9 8 8 8 6 7 8 8 8 7 6 5 6 9 10 11 12 14 16 15 14 13 12 11 11 13 15 13 10 10 10 11 15 18 18
9 11 12 11 9 10 9 9 8 11 9 9 13 15 12 12 12 12 13 13 14 13 13 15 16 17 18 19 20 19 18 17 15 13 12 13 14 14 15 15 15 13 13 14

GFSNGP_925_spd_003.txt.gz
Wind_Speed
23 25 24 22 21 17 20 25 18 19 18 17 16 16 18 17 9 10 13 15 18 18 16 18 21 23 25 26 25 28 28 28 26 17 17 21 31 33 24 24 24 34 29 26
16 22 24 26 24 18 22 23 19 12 12 13 10 10 9 15 13 14 16 18 20 17 16 16 22 22 20 22 24 23 24 22 18 19 24 27 32 38 40 32 21 41 33 31
8 10 16 22 25 21 14 14 16 15 10 7 7 11 16 16 14 17 17 17 17 17 14 14 16 15 17 19 19 19 19 17 18 24 26 33 40 40 37 38 30 42 36 40
7 2 9 14 19 24 24 21 15 14 11 9 11 5 2 3 10 10 7 6 5 7 10 12 13 14 14 14 16 15 14 15 19 24 25 29 34 36 41 39 34 32 32 30
5 5 11 8 7 9 15 18 7 11 10 3 4 9 3 3 5 6 10 10 10 13 13 14 15 14 14 14 13 13 14 16 19 24 26 29 33 33 31 27 27 27 19 18
3 9 8 3 6 6 3 13 6 8 7 4 6 10 4 4 6 10 11 14 17 17 17 15 14 17 16 13 13 13 14 17 20 21 23 27 28 25 20 19 21 15 14 15
9 9 8 5 14 5 10 6 7 8 7 9 3 4 8 10 13 16 14 15 18 18 17 16 17 16 15 14 12 12 16 17 18 22 25 25 24 19 17 20 17 18 21 25
5 6 8 19 9 5 7 9 15 19 21 20 16 16 14 14 13 17 17 12 14 16 12 11 12 12 14 13 15 17 16 17 19 18 17 17 17 14 14 18 20 16 15 17
5 5 14 11 6 6 13 15 14 20 20 16 17 15 15 12 12 12 11 13 11 10 8 6 6 8 14 14 16 19 19 21 21 17 19 19 17 15 17 18 17 15 15 16
5 4 7 7 8 10 8 10 9 13 15 15 17 13 13 12 10 9 8 10 11 7 6 4 5 7 7 15 18 16 15 16 17 20 19 19 18 16 15 15 16 17 14 10
6 9 5 6 5 7 10 11 15 16 15 12 13 13 11 11 10 9 8 11 8 6 5 4 4 6 10 14 16 19 20 20 20 19 20 16 12 13 11 8 13 9 10 9
7 5 3 5 5 11 14 12 12 16 16 14 14 13 11 11 10 9 9 7 7 6 4 3 5 7 8 11 12 10 12 15 16 15 14 15 14 11 11 11 10 7 8 5
1 12 16 9 10 10 16 14 14 17 15 13 11 12 15 12 13 12 11 8 7 5 3 4 5 8 12 14 12 12 12 12 14 15 17 14 12 11 8 4 5 6 7 6
6 13 14 12 9 11 13 13 12 16 15 13 12 16 13 9 10 12 12 9 3 3 3 5 8 9 10 11 8 4 5 13 14 12 11 11 12 11 8 9 9 8 10 10
15 15 14 12 13 12 9 7 11 12 11 10 11 10 13 12 11 10 9 9 5 2 5 8 8 10 10 8 5 6 8 11 10 5 6 11 12 11 9 8 7 10 10 9
11 13 13 12 8 8 8 10 12 9 9 8 8 12 13 11 9 10 10 10 9 7 4 5 6 6 7 8 6 3 1 4 9 10 10 9 9 10 11 11 12 12 11 10
7 10 7 5 6 7 7 7 8 8 8 9 10 12 13 14 11 11 10 8 6 5 4 4 8 7 7 8 4 4 6 9 11 11 10 10 10 11 11 12 11 10 10 10
5 6 7 7 6 7 7 8 7 7 6 6 9 10 11 12 9 12 11 9 5 7 6 5 7 7 6 6 9 10 8 8 6 6 7 7 7 6 7 8 8 10 9 10
9 8 8 9 7 6 5 5 6 6 7 9 10 11 10 10 11 10 9 9 8 7 7 8 10 11 11 10 11 9 8 7 6 5 5 6 6 7 8 8 8 8 9 9
7 8 10 10 12 11 8 9 10 9 9 9 7 7 8 10 11 8 7 8 8 6 7 11 10 11 11 11 9 6 5 4 4 3 3 5 6 7 7 6 5 6 7 9
8 10 11 11 11 11 11 10 9 9 8 8 8 7 6 8 9 9 8 5 5 5 7 9 10 10 9 9 7 6 5 5 4 4 3 3 3 4 5 5 6 5 5 5
8 8 9 10 10 10 11 9 9 8 8 8 8 8 9 9 9 7 4 5 5 7 8 9 9 10 10 9 7 6 6 5 4 4 3 3 4 5 6 6 5 5 4 5
9 8 6 6 7 7 8 8 8 8 7 8 8 9 8 8 6 4 4 8 4 4 5 6 9 10 10 7 8 7 6 5 3 3 5 7 9 11 10 9 7 6 6 6
7 6 5 6 6 4 4 6 7 7 8 7 6 6 8 10 7 7 4 3 1 4 5 7 11 12 10 7 7 6 6 6 5 3 4 5 5 6 10 11 9 8 8 9
6 6 5 5 4 6 6 6 6 6 7 6 5 4 4 4 4 6 5 4 0 5 6 7 10 12 11 9 9 9 9 9 9 7 6 7 8 7 6 7 8 9 10 12
9 8 7 5 5 6 6 5 5 6 7 6 6 4 4 5 6 6 5 6 4 5 7 8 11 12 13 13 14 15 14 13 12 12 10 9 9 11 11 10 10 11 12 14
10 12 10 9 10 10 9 8 8 8 8 8 9 8 8 9 10 10 11 10 11 12 12 12 12 14 16 16 17 17 16 16 16 15 14 13 12 12 13 14 15 14 13 12

GFSNGP_925_spd_006.txt.gz
Wind_Speed
22 22 20 24 28 28 31 32 29 23 29 25 23 21 18 19 17 12 12 14 18 19 18 18 24 26 28 28 28 28 27 26 27 23 23 23 25 29 36 37 37 36 35 27
21 23 25 23 26 28 27 28 30 32 31 23 26 24 24 23 20 15 16 16 19 19 19 20 23 24 24 24 23 22 22 22 21 20 22 25 29 29 31 40 46 38 34 28
17 18 22 24 27 27 29 27 25 25 27 30 26 22 25 22 19 17 18 18 19 20 17 17 22 22 21 20 20 20 20 20 22 23 25 26 26 27 32 35 31 25 19 20
12 2 14 15 19 23 25 28 24 21 18 23 20 18 20 20 14 17 15 15 16 16 15 19 20 21 20 20 20 21 20 21 21 22 23 24 26 28 31 31 29 23 17 18
12 14 8 14 7 17 22 24 27 21 22 14 12 11 14 8 9 13 13 13 15 18 20 23 23 22 22 21 21 21 20 20 21 22 22 21 24 27 30 30 30 25 18 17
9 15 17 2 9 13 13 15 24 26 20 22 13 13 14 8 8 10 14 14 16 24 24 24 25 25 23 22 21 21 21 22 22 22 23 24 22 22 24 25 25 24 18 19
11 11 10 10 13 4 9 7 21 19 21 19 16 5 7 10 9 11 14 17 26 25 23 24 25 24 22 21 19 19 20 20 20 21 21 20 20 21 19 19 18 18 18 22
6 11 15 8 1 2 14 15 9 11 14 14 12 14 14 15 16 18 20 19 25 23 23 21 21 20 19 16 15 16 15 16 16 17 17 17 18 19 19 19 18 15 19 20
10 7 5 5 2 2 7 2 4 10 15 19 22 20 20 19 17 18 20 16 21 20 19 17 15 13 13 13 14 15 15 15 15 14 14 13 16 16 16 16 16 15 16 18
9 5 8 7 8 6 5 7 15 13 18 18 19 22 20 15 15 15 14 13 17 16 14 13 12 13 14 14 13 14 14 13 13 13 14 13 13 13 13 13 13 15 15 6
5 5 10 13 11 6 5 8 14 15 16 15 14 18 20 13 14 13 12 12 11 10 10 10 11 12 12 12 12 13 13 14 15 14 13 10 6 6 9 3 5 7 8 9
5 11 9 9 10 4 9 12 13 17 20 18 18 17 17 15 14 9 10 12 8 8 9 10 11 12 12 14 14 15 13 11 11 11 11 10 8 6 7 4 6 7 7 7
4 9 16 14 9 8 12 12 16 17 17 17 17 16 16 14 9 12 13 12 5 5 7 10 11 13 12 12 12 13 11 11 10 8 10 10 10 11 11 4 5 6 8 10
16 15 13 12 6 14 8 14 17 16 15 14 13 14 12 9 10 13 12 9 6 4 5 9 11 13 13 12 11 9 7 7 8 10 10 9 9 10 10 10 9 7 7 8
14 16 14 15 12 6 8 8 14 12 8 10 13 11 10 9 8 8 6 5 3 2 4 6 9 10 10 10 9 6 5 9 11 12 10 8 9 11 11 9 9 11 11 11
11 13 11 12 12 8 7 9 9 8 7 8 9 8 8 8 6 4 2 3 2 2 1 5 9 11 12 10 11 10 7 10 11 7 6 9 9 9 9 9 9 12 15 14
7 11 10 6 7 9 11 8 7 7 7 9 9 10 10 9 6 4 5 3 2 1 2 5 9 11 11 12 10 7 8 10 11 10 10 9 8 8 8 9 10 11 11 8
8 6 5 4 7 7 8 6 5 6 7 7 5 5 5 5 5 6 6 5 5 7 6 6 10 11 11 12 9 7 10 11 9 8 8 8 7 6 7 8 8 9 8 10
6 5 5 6 6 4 2 3 5 6 6 7 6 5 7 9 8 6 5 5 6 5 6 7 10 9 11 12 12 10 10 10 8 5 5 4 7 8 8 9 10 7 9 9
6 4 7 8 7 5 5 7 4 4 5 4 4 6 7 8 7 5 6 10 8 7 9 10 9 9 10 10 9 6 5 5 4 4 4 7 8 9 8 5 8 9 11 12
7 6 8 9 9 8 8 5 7 7 7 8 7 7 7 7 7 4 3 6 7 5 8 7 7 9 9 10 7 6 5 4 3 3 4 6 5 9 10 10 8 11 12 11
5 6 6 7 7 9 9 9 8 8 9 8 8 8 6 7 5 7 8 8 9 6 6 8 9 6 9 8 5 4 4 4 3 3 4 5 6 7 8 9 9 10 9 9
6 6 8 9 8 6 8 10 10 9 8 8 7 7 7 7 7 6 5 7 5 3 3 6 8 9 9 3 4 5 5 4 3 3 4 5 7 9 10 10 10 9 9 9
6 6 6 6 9 8 8 10 10 8 7 4 6 5 8 9 5 7 3 3 3 4 1 8 9 10 8 4 5 4 4 4 4 5 4 3 7 8 9 11 13 14 12 9
10 7 9 8 8 7 8 8 4 8 7 2 1 2 1 5 6 6 5 4 2 3 4 5 8 9 9 8 8 9 9 9 8 8 8 8 9 10 10 10 11 14 12 12
12 11 11 12 10 10 11 11 10 9 11 9 8 7 8 8 6 6 4 2 4 3 7 6 10 12 13 14 14 12 12 12 10 12 12 13 11 10 12 13 13 13 14 14
14 16 13 12 13 13 13 11 11 11 10 11 13 12 11 10 10 9 8 10 11 11 10 11 12 13 13 15 14 13 14 14 13 14 13 13 13 12 12 12 13 14 14 14

GFSNGP_925_spd_009.txt.gz
Wind_Speed
26 25 19 23 27 28 32 31 28 26 30 27 26 23 20 20 15 18 16 13 13 17 16 17 23 31 33 32 33 34 32 32 32 31 30 30 31 33 31 31 34 34 34 30
22 24 24 25 22 28 29 31 33 32 32 25 27 25 19 18 18 18 18 13 14 16 17 18 21 25 31 32 31 33 32 33 31 30 30 30 30 28 27 29 29 29 27 27
21 22 21 23 28 26 24 26 27 28 30 28 29 25 24 24 21 21 22 20 14 16 19 18 27 26 27 30 29 29 28 27 25 28 30 28 26 26 28 27 29 31 31 26
18 17 20 18 18 26 28 27 27 27 24 25 25 26 25 21 20 21 22 23 14 15 18 24 28 29 28 29 29 27 25 23 24 24 24 23 24 27 24 27 30 28 26 23
16 16 10 11 11 5 11 18 26 25 25 28 23 24 24 28 25 21 20 17 12 19 25 25 28 28 26 27 26 24 23 22 23 24 24 24 25 25 24 25 25 26 25 23
14 23 24 11 10 7 5 12 14 17 18 26 19 19 18 24 15 14 15 13 13 22 27 26 25 30 28 28 27 25 25 24 23 23 23 23 21 20 20 20 19 19 22 21
18 16 16 4 7 2 10 7 14 14 19 22 20 19 4 5 15 14 16 12 18 21 20 24 25 28 24 25 25 25 23 22 22 21 21 19 17 16 15 15 14 17 19 18
19 22 24 5 8 12 6 11 13 13 16 22 21 19 6 5 9 12 14 17 23 18 20 23 24 26 22 20 22 23 23 22 20 19 17 16 18 14 14 14 13 13 14 14
13 14 9 8 9 2 7 9 8 8 11 13 4 9 8 9 10 11 13 15 22 21 22 22 22 22 19 18 20 20 20 20 18 17 13 15 15 14 11 10 11 13 14 15
12 12 10 12 9 4 5 4 2 5 1 4 8 11 13 15 15 17 17 17 24 22 19 17 17 17 17 16 18 18 17 18 18 17 14 14 13 12 13 14 14 13 8 5
16 16 16 14 10 9 9 9 11 16 18 9 13 14 15 12 14 14 14 19 21 18 18 18 17 16 14 14 15 16 17 17 16 17 15 14 10 8 5 5 6 6 6 7
9 17 18 14 11 9 10 13 12 15 14 12 16 15 14 12 13 12 13 19 18 18 18 16 16 15 14 13 15 17 17 17 16 16 15 16 13 10 9 6 5 4 6 5
12 20 21 18 19 19 14 12 12 13 14 12 13 13 14 13 12 14 15 17 17 16 17 16 15 15 13 14 14 16 14 15 14 15 19 19 14 15 13 6 5 4 6 8
16 18 15 14 10 16 17 13 12 12 12 12 11 12 12 12 13 12 9 13 16 14 13 15 14 15 16 13 12 12 11 10 15 12 12 13 12 12 12 13 10 6 5 9
18 17 16 13 15 14 16 18 10 11 12 13 14 12 11 9 10 9 9 11 9 12 10 12 14 13 13 13 13 13 11 12 11 12 13 11 10 10 9 9 9 15 10 9
16 18 19 17 15 13 15 13 15 9 10 11 10 10 9 8 8 5 5 6 4 5 4 9 13 10 11 11 11 10 6 11 11 13 11 9 10 9 9 7 8 20 12 10
13 17 17 14 10 7 5 6 9 14 9 6 5 9 9 7 8 8 7 5 5 3 0 4 9 9 10 11 11 11 12 13 6 7 9 10 9 10 9 9 10 10 16 24
10 10 9 6 5 2 6 1 6 0 5 9 7 6 3 5 6 6 2 2 3 6 2 5 6 9 11 11 11 9 10 10 13 12 11 9 8 7 7 7 5 4 18 24
9 8 3 7 9 7 10 7 3 5 0 3 3 3 4 6 4 2 2 1 4 6 2 4 8 8 8 9 9 9 9 10 6 6 5 6 7 7 7 5 5 8 15 16
3 5 7 7 8 7 5 5 7 4 6 5 3 4 5 5 3 3 5 7 8 8 6 8 6 7 7 8 4 4 6 8 6 6 3 6 8 4 1 1 4 5 3 5
10 5 6 9 8 9 9 10 8 8 7 6 6 7 6 3 2 10 6 3 5 3 6 5 5 9 8 6 4 2 5 7 6 5 9 9 10 10 9 11 6 6 8 13
8 8 8 8 9 11 11 10 9 10 7 8 9 8 5 4 7 7 8 9 7 3 4 4 9 8 6 4 7 7 3 2 2 2 5 5 7 8 9 8 15 18 16 19
6 11 10 8 6 11 9 10 11 10 7 7 9 8 8 7 7 8 5 6 2 5 7 10 9 5 2 6 3 3 3 3 3 3 4 5 6 7 8 9 8 9 9 9
7 7 5 7 10 9 7 6 6 7 3 5 7 6 8 9 4 7 9 7 5 4 6 7 7 5 4 10 5 6 5 5 5 6 5 2 8 9 8 8 9 12 13 8
6 9 9 10 7 5 4 5 3 6 3 7 6 6 5 4 2 6 5 7 6 3 5 2 6 6 6 12 10 5 7 12 11 8 5 7 8 9 10 9 10 10 11 12
14 12 12 11 11 14 14 14 13 12 11 11 11 11 8 7 6 6 2 1 3 4 7 16 12 11 10 12 14 10 11 18 10 11 11 9 11 12 9 9 12 11 12 13
12 16 11 11 13 14 13 13 12 13 13 8 10 14 12 10 9 8 6 9 10 9 8 7 5 13 14 12 11 11 13 14 10 11 10 11 11 12 12 11 9 10 11 12

GFSNGP_925_spd_015.txt.gz
Wind_Speed
21 16 16 24 16 24 22 18 14 10 16 12 10 10 10 11 9 8 9 9 9 18 20 21 28 36 39 40 42 42 40 39 39 39 38 36 36 35 38 38 36 39 38 37
10 8 24 20 18 19 24 23 19 18 22 7 6 9 6 8 15 12 8 8 8 19 24 22 24 31 37 40 42 42 41 40 39 36 37 36 35 35 35 37 36 35 35 35
9 7 6 15 26 19 11 17 16 18 19 8 11 8 8 11 9 11 10 9 9 10 20 20 29 36 36 41 43 43 40 40 39 38 36 37 33 34 35 34 33 32 33 34
6 6 9 4 10 9 14 10 11 9 13 11 12 11 10 8 6 4 8 6 8 12 9 24 31 36 42 39 41 42 39 39 41 39 39 35 36 35 33 32 33 34 35 33
6 10 3 8 9 5 7 13 8 1 3 8 10 6 7 10 10 11 8 14 5 10 17 23 34 37 35 35 37 39 36 38 42 41 37 36 34 33 31 29 30 31 31 27
3 7 19 3 6 5 3 2 4 10 9 7 5 3 6 5 3 10 12 18 15 20 22 27 30 36 36 35 33 36 39 38 38 39 35 34 33 30 30 30 29 24 22 23
6 8 4 5 4 4 6 5 4 8 7 6 2 4 5 6 5 6 3 11 20 22 18 25 29 35 31 33 34 35 33 30 33 33 33 33 32 33 32 27 24 21 19 19
1 4 4 6 6 5 5 3 4 4 5 2 3 7 5 7 6 5 5 3 13 9 12 27 29 33 23 24 28 31 31 30 31 32 30 36 36 30 26 24 21 20 21 20
5 2 2 3 7 4 7 3 4 6 7 4 7 7 8 5 6 6 9 8 8 9 12 23 28 27 21 25 34 34 32 32 33 32 32 32 31 31 26 23 23 21 20 18
9 11 7 6 4 7 18 15 13 12 11 13 11 13 13 8 8 8 4 9 15 13 12 11 27 26 32 34 37 36 31 30 32 33 31 28 26 26 25 22 20 19 18 16
5 13 20 10 11 3 21 15 10 12 15 14 16 16 13 13 14 12 7 5 18 17 14 16 26 28 30 32 38 32 30 28 29 29 27 28 24 21 22 19 16 17 16 18
3 6 5 7 12 10 15 14 9 15 17 16 16 13 12 14 13 16 24 12 15 19 26 24 28 28 30 34 39 33 27 24 24 28 28 29 27 23 17 16 12 13 14 16
4 3 9 11 21 16 14 11 11 14 13 12 11 11 12 8 9 19 29 33 20 19 23 27 26 28 29 33 35 30 27 26 26 25 26 25 26 25 21 15 13 13 15 16
4 5 11 19 8 18 19 18 17 18 15 10 9 9 10 11 16 12 9 45 18 24 23 22 23 23 27 28 27 27 25 25 23 22 26 29 30 30 28 23 18 14 14 12
11 12 7 5 15 15 15 16 19 18 16 16 14 9 10 10 13 15 23 14 19 21 20 21 19 21 25 27 23 26 26 23 22 20 19 19 20 22 27 29 23 21 18 16
10 10 5 7 10 8 10 14 14 13 13 14 17 12 16 15 12 13 17 28 15 6 16 18 16 15 15 20 18 20 20 20 21 22 26 27 25 22 20 20 25 25 23 23
3 5 4 7 9 11 8 7 8 8 8 11 12 18 17 15 16 15 18 23 27 25 12 13 15 13 11 14 19 11 7 1 5 15 26 28 27 23 26 27 26 28 29 28
4 5 4 5 6 4 4 5 5 5 7 10 16 19 16 7 8 10 18 22 24 24 23 18 13 11 10 8 9 6 13 13 9 15 20 15 18 16 14 27 22 24 19 22
3 1 4 7 6 4 2 1 4 5 5 13 14 9 16 18 11 12 14 16 15 12 14 12 10 9 10 9 8 12 11 13 11 7 9 15 18 20 22 26 23 24 21 23
3 6 4 7 5 4 3 6 8 10 7 4 4 11 9 15 16 13 10 11 9 4 4 7 6 7 9 7 9 13 12 10 16 21 15 11 19 21 21 20 19 20 18 21
14 11 8 10 10 13 12 7 11 11 16 17 12 6 9 13 17 18 14 5 14 13 10 10 7 6 4 4 4 10 19 20 15 14 11 11 9 5 10 14 14 18 19 20
14 6 7 7 6 8 11 12 12 11 13 14 16 15 14 12 16 19 17 13 13 14 17 14 12 11 8 8 11 4 13 16 17 17 13 7 6 7 7 7 15 17 21 26
8 7 10 10 7 9 7 9 9 12 12 12 13 14 10 11 10 8 4 9 11 11 10 11 11 11 11 11 16 12 12 11 13 14 13 10 6 7 7 5 4 2 3 10
9 17 15 22 19 13 7 12 20 10 9 11 14 16 19 6 6 10 9 7 6 6 5 6 6 9 10 12 15 16 11 9 6 4 4 9 9 4 2 1 2 3 1 3
11 18 19 18 13 8 18 23 21 23 19 19 23 29 26 17 16 16 5 5 5 2 2 3 3 5 10 16 16 14 11 3 3 1 4 12 11 10 10 8 7 4 2 0
16 13 15 20 18 17 17 18 13 16 17 16 20 21 20 26 25 27 24 26 26 20 18 5 6 14 22 24 25 25 23 20 15 10 7 7 8 6 5 5 5 11 8 6
18 19 20 19 22 22 19 21 16 11 21 19 16 17 21 23 26 27 28 28 24 21 12 15 20 20 18 23 22 23 23 21 17 19 19 19 18 16 15 16 18 14 13 8

GFSNGP_925_spd_021.txt.gz
Wind_Speed
7 15 18 15 13 23 19 22 16 18 12 15 10 11 10 11 8 7 9 12 11 14 12 14 20 29 33 34 35 39 39 39 42 40 41 38 38 42 42 41 41 43 40 38
6 10 13 17 19 25 24 22 16 12 8 9 14 10 6 11 9 10 12 18 20 22 19 19 23 33 37 35 36 39 39 42 40 39 39 38 37 38 37 38 40 41 41 41
6 9 14 11 29 21 20 15 17 20 9 8 9 9 12 12 11 11 12 16 12 19 21 21 27 34 34 38 38 40 42 39 38 39 39 38 36 35 37 38 37 40 40 40
4 7 8 11 12 17 20 8 9 5 10 12 15 16 14 12 11 11 11 11 11 12 10 17 27 30 35 33 37 40 39 37 36 38 40 37 35 36 35 35 38 37 40 40
3 3 10 16 8 12 10 12 7 13 10 7 11 1 7 8 8 12 10 11 12 17 21 25 25 31 30 30 34 34 35 37 39 40 38 37 37 37 35 33 33 36 37 39
5 4 6 2 13 19 5 17 11 12 12 10 8 5 10 8 8 10 10 5 7 17 18 20 22 25 27 28 31 34 37 40 42 42 40 40 40 37 35 35 33 30 36 36
9 5 8 7 24 10 7 13 7 9 10 9 7 7 6 6 4 2 3 6 7 4 10 26 26 25 24 27 28 39 39 38 35 37 40 40 36 35 37 35 30 29 29 30
6 7 9 16 12 7 12 14 3 8 6 8 6 7 7 9 9 9 9 9 12 2 6 10 12 27 25 24 42 39 35 34 36 38 38 35 35 32 33 31 30 28 28 31
8 8 4 2 6 12 12 5 7 4 4 9 9 9 9 9 11 10 8 6 8 7 8 7 8 19 15 34 35 31 30 34 33 35 35 34 36 34 31 33 30 28 30 26
6 4 4 10 13 12 11 7 11 9 13 13 15 9 9 8 8 9 8 9 9 10 9 9 23 17 16 25 26 28 32 36 34 33 32 37 39 35 35 32 29 28 25 23
5 2 4 8 8 11 8 7 13 14 15 14 12 10 8 6 7 6 6 7 13 8 7 9 17 20 26 20 16 24 24 25 28 31 34 28 24 22 27 25 29 28 25 27
7 6 5 6 10 13 5 8 10 11 13 12 12 9 7 7 5 4 5 7 8 10 14 20 24 23 18 21 14 20 21 22 23 24 24 28 31 30 21 18 24 19 21 21
6 5 17 13 6 12 2 8 12 14 11 13 10 8 7 5 6 7 11 14 12 7 11 18 20 21 28 21 11 10 17 15 19 22 28 28 25 30 26 24 12 11 14 21
11 15 11 11 4 6 4 8 9 14 12 11 11 11 7 8 9 9 11 14 14 14 14 21 22 23 21 14 10 19 23 27 20 18 18 27 26 25 21 30 24 23 34 29
8 11 14 8 2 7 6 6 12 12 12 13 11 13 12 13 12 10 18 21 18 17 17 17 16 18 24 15 27 19 24 24 21 23 18 23 21 21 18 32 29 26 27 27
9 12 14 14 12 8 9 13 13 10 9 10 14 14 15 16 15 17 19 23 17 10 16 19 20 20 12 5 22 9 25 3 25 30 34 27 26 26 23 23 24 26 25 32
14 13 16 7 7 9 6 5 7 6 9 11 9 15 17 13 16 15 19 22 21 21 19 21 21 23 24 23 15 11 14 20 20 25 26 27 26 27 27 28 27 27 32 37
10 12 3 5 8 7 8 8 7 9 9 9 12 16 14 11 7 8 14 19 21 24 32 28 24 26 24 22 27 27 26 22 24 23 21 19 21 24 25 24 26 26 28 31
8 9 10 13 10 8 6 6 4 4 9 14 12 9 13 14 13 13 14 19 16 13 22 20 25 32 31 19 19 17 17 17 21 24 26 25 23 22 23 23 22 26 27 28
7 7 4 3 4 4 4 6 9 12 13 14 13 12 10 13 16 17 19 15 17 14 14 14 17 21 20 21 22 18 17 19 18 19 18 20 25 26 21 21 21 20 23 25
11 11 11 10 11 16 17 18 19 12 16 18 17 11 11 17 19 17 13 7 21 22 25 24 25 23 19 14 15 15 13 15 18 16 15 14 13 13 15 16 17 17 19 21
16 18 18 16 15 18 25 23 24 23 22 21 23 22 18 17 19 19 21 16 22 24 26 26 24 22 18 15 13 14 13 8 16 19 19 17 14 13 13 13 13 14 16 19
16 19 21 18 14 17 23 23 23 25 25 24 23 22 18 22 25 14 6 21 21 24 27 28 24 23 23 22 21 16 12 12 12 14 13 13 12 9 9 10 9 11 14 16
20 20 19 23 27 23 13 19 23 24 23 27 27 28 26 19 26 27 25 29 29 31 30 28 29 29 28 27 26 23 20 15 8 5 8 7 8 8 8 9 7 8 8 10
21 22 24 23 15 9 17 18 23 23 24 27 28 28 27 26 23 22 27 29 32 32 32 31 32 32 32 31 30 27 26 24 19 15 12 10 7 7 9 9 9 8 7 5
21 17 20 22 18 18 18 18 17 18 18 19 24 26 27 26 27 29 30 33 34 34 30 33 33 33 33 32 29 29 28 27 24 24 21 19 16 15 13 13 13 10 9 9
27 27 23 23 23 22 23 22 20 17 19 19 21 24 26 28 32 33 32 31 31 32 33 34 35 32 28 27 26 24 24 23 22 23 23 24 18 19 22 23 21 20 21 22

GFSNGP_925_spd_024.txt.gz
Wind_Speed
2 12 7 11 14 12 10 22 15 21 24 11 9 10 14 14 7 8 8 8 10 13 13 12 20 28 33 34 36 38 38 38 41 41 41 41 39 43 43 44 45 44 42 42
4 9 10 12 13 14 14 10 10 21 11 9 12 10 7 10 9 10 10 10 10 11 12 14 19 28 33 34 39 41 40 43 40 37 39 41 40 41 41 40 41 41 42 42
4 6 12 15 9 15 9 8 12 17 11 8 7 10 14 16 11 13 13 11 10 14 15 15 23 32 33 37 35 38 41 40 39 39 40 41 38 37 42 41 39 42 41 40
4 4 7 4 9 9 14 17 17 15 8 13 15 15 17 17 16 14 13 12 11 10 12 21 28 27 27 25 34 36 37 36 36 38 39 36 36 38 39 38 40 39 40 43
4 6 13 19 4 5 0 8 11 16 12 9 16 9 8 8 10 14 13 12 11 13 16 22 23 30 30 29 30 29 32 34 35 39 38 38 38 41 39 36 35 37 37 38
1 6 7 3 1 6 4 5 6 10 17 15 8 5 6 11 8 13 10 5 7 12 12 9 27 28 28 25 28 30 34 40 41 42 40 40 41 39 36 33 33 32 35 43
11 6 6 5 6 3 5 5 18 12 15 14 9 12 3 5 5 2 1 2 7 5 6 7 10 22 21 24 27 40 35 33 34 37 40 40 37 33 30 30 28 32 34 34
8 6 15 1 0 2 5 11 17 14 12 8 4 7 5 6 6 6 8 8 12 8 11 11 4 16 10 17 31 20 24 30 33 36 35 35 35 34 34 34 33 31 31 30
9 7 7 5 5 4 5 10 12 12 11 4 9 6 4 5 7 7 7 7 11 13 14 20 20 13 5 9 5 10 19 25 25 24 26 28 35 37 36 39 30 26 25 26
8 11 10 3 4 3 4 9 12 7 7 5 12 8 10 8 7 7 6 6 7 12 10 10 18 18 14 10 5 4 16 23 24 26 27 29 28 27 31 33 35 39 31 33
10 26 7 4 2 3 6 7 8 8 5 3 10 9 8 9 9 6 5 5 10 9 8 8 12 11 9 9 9 7 10 19 22 23 27 24 23 27 29 27 29 20 20 12
8 10 6 3 4 3 9 3 6 5 4 6 6 9 9 11 11 11 10 12 13 14 11 10 11 13 11 8 4 4 9 15 25 25 26 25 22 11 20 24 20 24 32 40
6 10 5 6 4 2 8 3 4 4 6 4 4 7 12 12 11 10 13 13 12 10 13 18 20 20 22 19 10 8 14 19 22 24 27 28 25 25 21 34 43 42 29 38
13 12 5 7 5 5 9 8 5 4 5 4 4 7 13 12 12 12 12 13 14 14 15 15 15 15 21 22 18 14 15 24 27 30 27 26 27 27 29 27 20 18 16 24
15 12 5 11 8 10 14 9 9 11 7 9 8 11 11 12 13 11 14 15 17 17 17 19 18 22 21 21 10 9 16 7 6 25 32 38 33 30 25 14 10 2 10 19
14 8 9 13 15 14 19 12 4 5 4 7 8 12 11 15 15 16 16 16 14 9 14 18 20 21 19 12 10 9 17 11 11 16 18 36 27 26 23 21 22 23 7 16
18 9 10 14 16 19 11 3 4 3 9 13 7 11 14 12 13 13 15 19 21 24 25 26 24 22 15 8 9 1 4 4 5 7 8 3 17 17 24 23 21 27 22 25
10 9 11 11 11 10 4 4 6 9 10 11 14 16 14 11 8 9 14 15 20 26 30 27 30 25 19 9 2 7 9 9 8 11 8 8 11 9 13 19 23 26 29 33
10 12 13 12 8 8 6 8 9 13 17 17 17 11 15 16 17 16 16 21 20 15 24 22 24 26 27 19 10 8 10 10 10 11 7 14 16 10 18 16 19 21 26 30
22 19 13 13 18 15 12 17 21 19 17 17 18 17 12 17 18 18 20 17 19 15 22 24 23 19 18 21 21 18 14 13 15 17 15 11 10 16 17 17 20 22 25 26
17 17 16 17 16 22 23 19 20 17 19 21 17 15 16 18 22 19 16 10 26 28 29 28 25 21 17 16 16 17 16 14 15 12 12 12 7 8 9 10 12 17 23 24
12 13 14 17 15 17 26 24 24 25 22 20 26 24 24 21 18 19 25 17 24 32 32 31 27 24 22 23 22 18 12 13 19 20 16 10 14 8 9 8 11 15 14 20
15 18 22 20 15 17 29 26 26 26 27 27 26 22 22 19 20 17 10 26 28 33 35 34 35 35 32 29 27 25 23 20 18 16 16 11 8 13 11 8 8 10 7 9
21 22 18 18 25 26 16 22 25 27 25 25 26 24 19 18 25 24 25 32 34 37 38 38 39 38 37 32 32 32 32 27 23 21 19 19 20 16 9 5 4 5 6 7
19 20 22 20 16 12 16 17 22 23 24 26 27 27 26 26 24 22 28 33 36 36 36 37 38 39 38 33 29 27 30 34 30 28 27 26 23 21 20 19 17 15 14 12
20 16 17 21 17 16 14 17 16 16 17 19 23 24 27 29 30 30 32 33 34 36 35 36 35 34 33 33 33 32 29 28 29 29 27 28 26 23 23 23 23 22 20 19
21 23 19 19 22 20 18 17 18 17 19 17 20 22 24 26 32 33 32 32 32 32 32 33 34 34 31 30 30 29 27 26 26 26 26 26 27 22 24 26 25 26 26 24

GFSNGP_925_spd_027.txt.gz
Wind_Speed
5 8 8 10 12 12 15 21 23 23 27 20 17 16 14 11 10 9 11 10 12 14 14 15 21 28 33 34 34 37 36 38 42 42 41 39 40 40 39 37 41 42 39 37
8 9 8 14 15 14 16 19 17 23 26 17 8 16 18 21 18 16 14 13 12 12 13 16 20 28 32 34 37 39 39 42 41 38 39 42 41 41 40 39 38 36 37 38
6 6 14 16 23 19 17 15 16 23 18 13 15 16 16 19 18 17 14 13 13 14 13 13 23 29 32 37 33 37 40 39 35 36 38 40 39 38 40 39 37 39 39 39
6 4 10 8 3 7 14 14 20 23 20 16 14 16 18 18 19 19 18 17 13 14 13 21 26 26 30 29 34 34 34 31 32 34 37 36 37 39 39 40 41 40 39 40
5 12 16 19 8 2 3 13 7 15 21 20 20 19 17 17 18 20 18 16 13 15 17 18 21 26 26 27 30 30 32 32 34 37 35 34 38 41 40 38 38 40 37 38
5 8 12 3 15 8 4 14 4 5 10 12 18 16 14 14 17 17 17 15 13 14 12 14 16 20 23 27 26 29 33 39 39 38 38 39 41 38 37 38 38 36 38 39
14 11 9 11 7 4 10 1 5 7 12 13 12 13 13 5 4 6 9 12 14 9 9 8 11 19 23 23 26 34 22 21 25 29 32 31 28 26 28 30 31 34 37 40
11 12 21 9 15 18 5 6 11 13 13 15 15 19 18 8 4 4 2 3 6 8 6 3 6 16 16 17 18 16 18 23 27 30 31 29 31 32 31 26 25 25 28 29
10 10 12 11 14 16 12 13 12 14 13 13 18 17 12 8 7 6 6 9 10 11 12 8 7 10 11 9 11 13 18 21 24 25 27 28 29 28 27 30 27 20 23 25
17 23 23 24 24 20 15 16 14 12 13 13 14 10 9 9 8 7 8 9 12 13 12 10 12 12 10 7 6 10 14 18 21 25 27 29 30 31 33 34 29 33 30 28
17 20 20 24 25 19 20 14 10 8 9 4 5 9 8 8 8 7 8 9 10 11 10 11 9 9 5 3 1 5 10 14 19 23 27 27 32 34 37 40 42 44 42 39
12 14 14 19 17 17 17 14 6 6 3 6 9 7 5 5 6 7 8 10 11 12 11 8 8 8 7 6 3 4 6 7 12 17 21 26 27 26 36 36 40 37 34 31
20 19 22 19 19 12 16 10 6 8 3 6 6 6 9 5 3 6 10 11 11 10 10 10 8 9 8 7 5 3 5 8 10 11 16 17 17 23 16 15 24 35 38 37
15 16 22 18 13 8 9 6 5 6 6 7 7 6 7 7 8 8 11 13 14 15 15 14 13 15 13 11 9 11 10 16 12 8 10 12 17 18 21 20 18 16 34 42
19 21 18 14 8 8 8 8 11 10 12 13 12 12 8 12 13 13 15 15 17 20 20 18 18 18 16 12 13 13 11 12 11 15 18 10 2 12 23 27 25 29 32 41
18 17 16 16 9 9 11 9 13 15 15 14 16 15 16 20 19 19 17 18 17 13 19 19 20 18 15 10 11 13 15 14 12 13 16 19 16 16 15 11 9 31 32 33
13 6 5 5 9 15 13 10 14 16 15 18 18 18 17 17 16 21 17 15 20 22 21 23 19 16 14 9 8 9 11 9 10 9 8 7 11 14 15 8 11 15 1 21
15 5 12 10 12 17 13 11 13 17 16 17 19 22 18 12 13 10 8 17 23 26 26 22 21 19 16 12 9 8 10 8 6 9 3 8 9 9 9 11 8 5 9 24
23 21 18 17 14 14 11 9 12 16 20 20 20 16 16 15 16 14 16 24 22 20 25 22 22 19 18 18 10 10 11 9 8 8 3 8 11 8 8 12 12 11 14 18
24 24 19 20 28 21 16 20 22 22 20 20 20 19 16 19 17 19 22 26 25 19 17 24 22 21 18 18 16 15 13 11 10 9 8 10 11 8 9 10 14 11 11 9
21 22 22 23 20 27 23 22 21 20 22 22 19 19 20 22 27 24 25 12 27 27 27 30 30 20 20 18 19 20 19 19 14 11 12 14 14 13 14 18 15 10 9 9
14 15 16 20 18 20 24 24 24 27 25 24 24 22 23 22 22 29 29 21 25 27 29 30 27 30 24 25 23 22 23 24 22 19 17 19 18 17 16 14 12 9 11 10
19 21 22 20 16 16 24 25 25 25 27 26 23 22 23 22 23 21 13 24 27 31 29 29 33 33 33 31 27 25 25 23 21 20 22 23 20 20 20 17 12 9 9 7
20 21 22 22 25 26 19 24 27 27 25 23 22 22 20 18 24 23 22 26 28 29 30 31 33 33 30 30 27 27 25 24 24 22 19 21 17 16 16 19 17 16 15 12
18 20 21 20 18 14 17 15 20 20 20 22 24 25 24 23 24 19 19 21 27 23 25 31 33 29 27 26 28 29 27 26 23 23 24 23 21 20 19 19 19 17 18 16
19 16 16 18 16 15 14 17 18 19 18 20 22 21 20 20 20 20 22 23 25 25 24 26 27 24 23 24 23 22 23 24 25 26 23 22 22 22 21 20 20 20 20 20
16 19 15 14 17 17 17 18 18 16 15 15 17 18 20 21 23 24 23 23 22 21 20 21 22 23 22 21 22 22 21 20 23 19 21 22 22 20 17 16 16 16 19 20

GFSNGP_925_spd_030.txt.gz
Wind_Speed
12 4 5 12 27 29 30 27 25 19 21 17 8 9 9 10 9 6 4 3 7 11 13 13 19 25 30 35 34 38 36 39 40 41 39 38 38 40 39 37 37 37 37 36
13 10 8 11 14 15 20 23 25 26 24 13 9 4 12 13 15 17 18 16 13 12 13 14 19 24 28 32 35 36 34 39 38 36 36 39 38 38 36 38 39 39 39 38
14 9 10 15 22 20 19 19 17 23 17 16 17 17 18 17 17 16 16 16 12 12 13 13 19 23 27 31 29 33 35 33 34 34 37 38 35 34 37 40 37 41 40 40
6 7 14 10 8 19 25 21 21 20 17 17 13 15 17 17 18 18 20 18 17 15 12 16 19 19 23 24 29 32 33 33 33 34 34 32 33 37 37 37 39 38 39 41
11 13 10 7 5 7 11 16 18 18 14 15 18 20 23 20 21 20 20 19 17 20 18 17 19 19 18 23 26 29 31 34 35 34 32 31 34 39 35 33 33 34 32 34
8 16 16 4 16 9 5 10 11 5 10 10 8 12 13 16 18 20 19 17 17 20 18 17 19 17 18 22 25 29 33 35 30 32 33 35 34 32 31 31 32 32 34 34
14 13 9 13 7 4 13 5 8 2 6 8 9 10 18 20 17 16 13 15 17 17 16 17 13 15 18 19 26 28 25 27 29 32 33 32 31 32 32 32 31 33 33 34
15 18 23 11 11 13 11 12 13 13 12 14 14 16 18 19 21 21 17 15 15 12 14 15 15 17 17 19 21 22 23 25 25 27 30 30 32 30 31 32 32 33 35 37
12 13 12 11 13 13 13 17 16 17 17 17 18 20 19 19 19 17 16 12 11 11 11 9 10 14 14 15 17 19 20 21 23 25 28 27 29 29 30 31 32 33 33 34
19 23 24 19 17 21 17 20 19 21 20 18 19 20 18 17 11 9 8 6 4 6 8 7 6 8 9 11 13 16 16 17 18 21 23 24 26 28 30 31 33 33 32 33
20 23 22 22 23 23 21 21 24 24 23 20 20 19 15 8 7 3 2 1 2 4 7 9 10 10 8 5 5 9 10 11 14 16 20 21 25 26 29 32 33 33 33 33
18 18 16 19 19 24 23 20 22 19 21 18 14 10 8 4 3 3 5 6 6 6 7 9 9 9 9 7 5 3 4 7 9 12 15 18 19 23 28 29 31 39 36 29
23 23 22 19 17 21 23 19 23 20 17 13 5 6 8 3 3 5 7 9 9 9 8 8 8 9 8 7 6 6 3 2 5 7 10 13 16 21 19 21 38 37 41 47
25 20 21 21 17 19 21 21 19 17 12 5 7 5 4 7 8 9 9 12 13 12 12 12 12 11 9 9 10 10 8 10 6 6 7 10 10 13 18 17 17 25 34 34
25 21 22 20 18 18 17 18 15 13 8 6 7 8 9 10 12 14 16 16 17 17 17 16 15 12 10 12 14 13 9 8 7 8 8 6 5 4 4 1 9 9 12 16
20 20 21 23 21 22 14 16 10 10 10 7 12 13 16 17 19 22 22 21 18 14 18 16 16 12 9 11 11 11 12 11 7 6 6 5 4 4 7 9 9 9 8 7
15 19 19 18 18 18 10 10 11 10 9 10 11 15 19 17 19 20 22 23 23 22 22 22 19 16 11 9 9 9 5 2 7 7 7 6 8 6 4 1 3 6 5 7
6 8 4 2 2 6 7 14 11 7 13 15 23 17 18 16 15 18 19 22 23 26 27 23 21 17 18 13 13 13 13 9 6 8 8 7 7 7 5 2 2 4 2 5
24 23 23 27 22 20 21 21 16 17 18 23 19 21 23 26 26 26 25 28 27 22 26 23 24 19 20 21 13 15 16 14 12 10 8 6 8 10 9 8 7 6 5 5
25 24 24 23 29 22 20 27 26 26 28 30 27 26 21 25 25 25 29 28 25 25 24 31 19 20 18 22 21 17 13 13 14 14 13 13 13 12 12 13 9 13 10 5
21 21 22 21 19 29 30 28 25 22 25 28 26 22 22 27 30 29 28 13 26 28 27 28 28 23 23 18 19 18 17 17 17 14 10 12 13 14 15 14 10 10 11 10
20 20 19 21 19 22 27 28 29 27 27 29 31 27 23 23 25 30 33 26 26 28 26 29 29 31 26 22 23 21 20 21 20 18 18 19 16 16 15 16 16 10 7 8
21 22 23 23 21 21 26 27 26 26 27 26 23 22 24 24 25 22 15 27 27 28 28 30 32 33 30 25 25 26 25 25 21 19 15 16 19 19 19 18 19 18 16 15
22 23 22 22 22 23 17 22 26 26 24 26 27 27 22 20 21 21 22 23 22 25 30 30 29 26 27 30 27 27 30 30 24 22 19 19 18 16 16 20 22 21 19 18
21 20 21 20 17 15 18 17 19 18 20 22 22 23 22 21 20 19 20 20 25 22 23 28 28 25 24 23 24 30 28 27 24 21 22 22 22 20 18 18 18 17 19 20
19 16 15 18 18 16 15 16 17 18 17 18 19 19 18 18 18 18 18 22 22 21 20 21 24 21 21 22 21 20 19 19 17 20 21 21 20 19 19 19 20 19 20 20
13 17 12 12 14 16 16 16 15 16 16 14 14 15 16 17 18 18 19 19 18 18 18 17 17 19 18 17 18 17 17 15 19 16 16 17 19 19 17 16 16 16 17 19

GFSNGP_925_spd_033.txt.gz
Wind_Speed
26 17 8 28 31 31 30 24 24 15 19 16 13 11 12 13 9 8 8 7 8 11 12 11 16 22 29 32 32 37 37 39 40 40 38 37 38 39 39 38 39 38 37 38
24 23 6 13 20 33 30 28 25 23 16 18 16 11 7 5 5 5 7 8 7 8 12 15 17 20 24 29 31 31 33 38 36 37 36 37 36 37 38 39 39 39 40 40
15 20 11 17 20 19 23 27 24 22 19 14 5 3 5 6 8 10 10 11 10 11 11 14 20 21 23 25 30 32 33 31 34 36 37 36 35 35 39 40 37 40 39 38
10 17 23 13 16 16 15 15 13 11 9 7 7 8 12 12 12 12 12 11 11 11 12 16 18 21 23 23 27 30 30 33 35 37 36 34 35 37 36 34 37 37 37 38
10 13 5 16 15 20 22 21 17 16 15 13 13 14 16 16 17 17 16 15 14 16 18 15 12 14 16 23 24 27 30 34 37 34 34 35 38 38 36 35 35 37 37 37
9 14 18 7 13 3 3 11 15 23 18 13 10 10 10 10 13 13 15 14 13 17 16 16 18 21 19 21 23 27 33 32 32 32 34 36 36 35 34 35 36 33 36 39
14 10 11 6 5 6 13 5 0 4 3 6 8 8 15 16 16 16 16 15 19 12 13 15 16 17 17 21 22 30 25 27 30 33 34 35 33 33 34 34 32 34 35 37
15 18 21 12 6 6 8 8 13 14 13 11 9 12 15 17 18 17 17 17 18 16 13 12 16 15 15 17 23 20 23 25 27 29 31 31 31 29 29 30 31 30 32 33
15 12 8 9 11 14 4 5 9 10 12 13 16 13 15 16 17 17 15 13 15 16 13 11 10 13 13 15 14 15 20 21 22 24 27 26 27 27 27 28 30 30 30 31
18 18 18 17 17 14 13 11 15 14 14 16 17 18 17 17 16 13 11 10 9 9 8 5 5 9 13 13 14 15 16 17 19 20 22 23 25 26 28 27 28 29 26 28
21 23 21 19 21 20 21 22 20 19 19 20 19 18 17 16 16 9 8 8 7 4 1 3 3 4 3 1 7 12 14 15 16 17 19 19 21 23 25 27 27 26 27 28
17 18 18 20 19 21 21 23 24 22 20 19 19 18 12 14 13 12 6 4 2 1 4 5 5 5 4 3 3 10 11 12 14 14 16 16 16 18 22 21 19 29 32 26
22 25 26 22 21 21 20 20 20 20 21 20 20 16 9 11 10 9 7 5 3 3 6 6 7 5 3 2 3 2 2 4 3 4 6 7 13 14 14 19 31 32 32 30
30 26 26 22 18 18 22 17 15 21 23 24 22 15 9 5 7 7 5 3 6 7 9 8 8 10 8 8 8 7 6 4 2 2 1 3 6 7 10 11 12 4 10 17
29 29 27 22 17 18 17 17 21 22 21 20 18 10 4 8 8 8 9 10 16 16 13 13 14 12 12 12 12 9 6 7 6 7 7 6 6 6 6 6 6 8 13 16
1 19 20 20 21 20 18 19 21 22 21 15 11 9 12 15 13 10 13 13 12 9 14 15 14 11 9 7 4 12 13 7 5 7 6 5 4 3 3 2 2 5 8 9
11 10 12 14 17 19 21 18 16 22 14 12 16 14 14 15 17 15 18 17 19 19 17 15 15 11 11 8 9 7 6 7 5 9 9 7 6 6 6 7 7 7 7 7
20 11 8 7 10 13 11 8 2 10 10 3 11 13 11 16 11 11 17 17 21 21 20 18 16 14 13 10 9 10 10 6 5 7 9 9 10 10 11 11 10 8 9 4
22 21 17 20 16 17 13 18 21 27 24 29 22 16 26 24 22 20 20 20 23 20 20 19 19 20 19 22 15 16 13 11 10 8 7 7 11 12 11 9 7 7 7 7
21 23 26 24 37 28 19 27 33 28 31 39 29 29 19 23 22 22 23 26 26 23 22 23 22 23 20 22 21 16 18 19 16 13 13 14 13 14 13 11 10 11 11 11
23 20 21 22 19 23 25 28 34 26 29 37 25 18 25 32 36 28 23 12 28 25 29 33 32 25 22 20 20 19 17 19 16 16 17 20 19 18 17 17 16 15 15 16
18 18 18 21 18 19 23 27 27 25 23 24 23 24 22 20 25 26 28 24 24 29 30 31 31 34 27 24 23 22 20 17 16 17 17 17 17 19 19 21 20 21 21 21
22 21 21 22 21 20 25 27 27 27 27 27 23 22 21 19 23 23 14 24 28 30 28 30 25 31 30 28 25 23 23 21 18 17 12 16 19 19 19 21 22 20 25 25
20 21 21 18 19 21 14 19 23 23 23 25 26 26 23 21 24 23 23 27 26 24 30 31 29 25 23 25 25 25 24 22 22 25 22 20 18 19 17 18 22 27 28 28
21 16 19 19 16 14 17 18 19 20 20 21 23 24 23 24 23 21 21 21 26 24 23 25 25 22 21 20 19 20 18 22 21 21 21 21 22 20 17 18 19 18 22 29
17 17 14 15 16 17 16 16 17 18 16 17 20 20 20 20 20 20 19 20 20 19 17 18 21 20 18 18 17 17 18 18 16 21 23 20 19 18 19 19 19 21 22 20
13 17 15 14 15 15 16 16 15 16 19 17 16 17 17 17 17 17 17 17 17 17 15 15 16 16 14 14 14 14 13 15 18 17 17 16 16 16 17 18 20 18 17 19

GFSNGP_925_spd_036.txt.gz
Wind_Speed
23 25 16 27 26 30 31 21 22 18 18 15 12 9 9 7 6 9 10 6 9 14 17 18 24 32 34 34 38 38 38 40 40 39 38 37 38 38 39 40 42 40 39 37
20 22 20 20 31 30 29 29 23 24 18 20 15 14 10 10 9 10 8 6 4 3 2 3 17 25 35 35 35 39 39 40 40 40 40 39 39 39 38 39 38 37 37 38
18 16 20 19 14 26 24 24 24 20 16 18 21 17 14 11 7 5 1 1 1 2 5 6 9 18 24 31 31 34 38 36 38 40 39 40 39 39 38 39 38 39 38 39
11 13 16 12 11 15 13 24 23 18 15 10 10 11 11 8 5 5 4 4 6 8 8 10 17 21 22 23 31 30 27 32 34 35 37 37 39 40 39 38 38 39 38 39
5 7 8 12 15 18 13 10 7 21 17 9 12 9 7 5 4 3 6 8 7 11 14 13 20 25 29 27 28 27 27 27 31 32 33 36 38 39 37 36 37 38 37 38
8 8 11 5 17 4 11 11 12 8 3 1 4 5 9 13 13 12 12 11 11 16 19 14 12 12 23 25 24 25 31 33 29 32 34 35 36 35 35 36 36 34 36 39
9 6 8 16 20 7 9 5 18 21 19 6 3 10 10 10 11 11 10 11 12 14 14 11 10 12 8 19 24 30 32 29 31 34 36 34 32 32 32 33 31 33 34 34
12 15 15 14 9 7 8 11 15 16 18 17 16 16 14 14 13 13 13 13 13 10 11 18 7 7 11 11 17 16 23 30 29 29 31 29 30 28 29 29 30 31 31 33
10 13 12 9 10 9 10 7 10 12 14 13 14 14 15 15 14 14 15 10 13 11 11 17 3 7 11 13 8 13 15 21 25 24 25 28 26 27 25 27 27 28 29 27
13 17 17 15 14 12 13 13 11 10 13 13 13 15 15 14 14 15 18 10 14 16 11 6 3 5 10 11 9 10 10 14 18 19 21 24 24 25 26 25 25 25 22 24
17 19 18 19 16 17 13 15 16 14 14 13 15 15 15 14 11 12 18 20 12 12 10 8 8 8 10 6 4 10 11 12 13 16 20 19 21 20 24 27 24 23 24 25
15 19 18 18 18 19 17 17 16 16 16 14 13 12 13 14 8 10 15 20 12 9 7 3 2 2 5 5 6 5 8 9 12 14 15 17 17 19 22 15 19 27 25 18
23 25 26 25 24 24 22 17 16 15 13 15 12 13 14 17 7 12 18 19 11 10 6 4 5 4 4 4 2 4 5 3 13 18 14 21 19 17 16 10 11 13 5 3
27 27 30 34 21 20 20 20 18 18 17 14 15 20 20 19 10 12 15 20 15 5 6 3 2 3 3 4 4 5 7 7 9 15 13 16 14 14 12 13 7 5 10 15
19 27 31 28 22 23 21 16 18 17 16 16 21 17 18 17 8 12 17 6 12 13 13 4 6 5 4 4 5 4 7 12 14 12 11 12 11 11 10 9 9 8 9 11
10 14 10 21 22 22 20 15 17 16 14 17 18 18 22 7 10 11 11 5 9 7 7 8 2 1 1 5 10 12 11 9 12 13 8 8 7 6 7 5 3 5 7 9
11 8 5 5 13 17 18 15 16 15 16 19 18 30 12 8 7 10 3 15 12 17 10 6 1 1 2 2 6 16 14 9 15 12 10 9 7 7 6 9 6 8 6 5
23 17 6 1 7 12 14 16 13 13 14 19 22 16 7 6 5 2 6 22 19 15 20 13 8 9 11 5 5 10 11 10 12 16 14 13 13 15 14 13 12 9 6 4
27 26 26 25 19 17 11 9 14 19 18 19 22 16 21 14 19 18 24 30 28 20 25 26 19 17 21 20 21 17 15 14 14 16 18 17 19 16 15 13 11 10 12 12
22 33 35 29 36 27 15 21 31 27 25 31 32 28 26 25 24 23 32 28 29 21 29 37 27 26 21 22 21 26 24 22 22 23 23 24 21 20 19 20 18 15 15 16
16 19 19 21 22 28 28 30 34 29 27 31 29 25 21 29 31 30 28 14 33 37 36 36 38 29 32 27 21 22 21 20 20 21 21 20 21 18 18 19 19 20 19 19
17 12 15 17 19 23 29 32 35 30 27 30 26 26 27 28 26 28 31 23 27 36 38 37 35 32 32 29 28 26 23 21 23 20 20 19 19 18 17 18 20 21 21 21
13 18 12 17 18 17 20 24 25 24 25 20 18 23 21 19 22 20 13 21 33 35 35 33 22 29 32 29 27 25 26 26 26 16 18 19 19 21 21 19 19 19 23 25
17 16 17 12 15 16 11 19 19 15 15 19 21 23 19 19 22 20 21 20 20 21 26 26 22 15 15 18 22 24 25 27 28 28 29 32 25 20 19 20 23 23 25 25
19 12 16 16 13 11 16 14 11 12 16 18 19 21 21 18 15 13 13 16 19 16 17 19 20 18 18 19 19 19 21 24 24 25 26 27 25 23 22 22 22 17 18 25
14 14 14 15 15 17 16 16 14 18 17 15 17 18 18 17 15 16 15 17 16 15 14 17 16 14 16 17 16 17 19 16 14 20 22 23 25 26 24 21 21 18 21 21
15 16 16 15 14 13 13 14 17 16 17 16 16 17 16 16 15 13 14 13 13 13 12 12 14 15 14 14 14 15 16 16 19 17 16 18 17 15 15 15 16 19 22 25

GFSNGP_925_spd_039.txt.gz
Wind_Speed
15 15 14 18 27 23 22 17 16 12 6 7 2 7 6 7 7 8 8 15 20 24 21 22 29 35 36 38 40 39 38 38 40 38 39 37 38 37 39 40 37 40 38 38
7 11 10 8 12 26 23 20 17 12 8 8 8 8 13 10 12 12 11 9 10 12 20 22 29 35 39 38 41 43 40 42 39 39 38 40 38 38 36 37 39 37 40 40
5 3 6 6 9 8 21 19 16 13 8 8 5 8 13 11 10 10 10 10 10 9 8 8 19 29 34 37 40 40 41 39 40 39 39 39 40 37 39 39 36 38 39 40
5 6 1 6 8 11 12 8 19 14 12 13 10 14 15 10 10 9 10 9 9 6 4 4 10 28 34 33 34 39 38 38 36 39 38 39 38 40 38 38 37 38 37 41
4 2 5 5 10 12 4 15 26 17 12 18 18 22 16 14 14 10 9 8 7 13 13 19 14 27 32 30 34 32 35 34 38 38 39 37 39 38 38 36 35 37 36 37
5 4 2 7 23 28 9 10 20 20 25 10 20 11 5 11 12 13 10 7 8 16 16 18 15 5 26 29 32 30 34 37 36 38 38 39 39 38 37 37 37 33 36 37
7 3 5 20 26 15 7 4 12 17 17 22 17 7 8 11 13 10 13 11 17 12 10 11 15 7 5 15 24 37 34 33 33 37 41 41 36 35 34 33 32 33 33 35
4 3 3 15 14 20 2 6 10 11 13 13 13 13 11 10 10 12 14 19 20 15 14 15 13 2 4 4 4 21 26 34 38 39 37 30 34 32 31 30 30 29 29 29
7 5 9 15 20 18 10 6 8 8 9 10 11 11 10 9 9 8 10 15 23 16 19 26 16 3 2 4 2 3 12 27 33 35 36 32 29 30 27 28 28 27 26 24
9 13 17 7 7 16 20 11 7 8 7 8 8 9 8 8 10 7 9 12 22 20 14 17 23 19 16 10 8 7 7 12 24 31 30 29 29 28 26 22 23 22 20 21
13 11 14 5 16 13 18 19 20 9 6 6 6 5 6 6 8 7 9 17 20 19 18 11 13 15 17 17 15 13 15 10 16 23 25 24 27 20 24 23 23 22 24 21
11 21 15 19 17 20 18 18 19 17 8 8 8 7 8 8 8 9 10 19 17 21 23 17 8 10 15 16 14 15 11 12 16 20 20 21 22 20 14 19 23 25 23 22
24 21 23 25 21 22 17 15 17 15 12 8 7 4 5 7 8 19 16 19 16 17 22 7 5 11 16 11 12 9 7 6 11 16 19 25 25 21 15 19 19 16 11 11
10 15 16 19 13 9 10 11 11 14 12 10 5 11 11 7 15 12 11 17 20 21 17 8 5 7 10 8 8 9 7 10 15 16 12 14 16 15 19 22 15 14 16 15
16 9 15 17 19 17 10 13 14 11 6 10 8 9 12 10 11 12 9 15 17 7 1 0 5 5 8 9 8 9 4 11 15 19 19 21 22 23 22 21 19 18 13 12
19 6 10 15 18 14 13 13 13 10 3 6 6 7 15 16 20 20 14 12 5 5 2 4 3 2 5 9 4 1 7 10 14 16 17 17 19 21 21 19 19 17 15 12
22 22 9 8 6 3 10 10 10 6 3 4 5 11 16 17 19 16 8 6 11 12 17 16 11 8 10 9 10 4 6 17 16 17 18 18 20 23 23 23 21 18 15 15
22 23 20 20 16 12 8 4 5 7 7 10 11 15 16 13 7 10 18 10 14 20 28 24 22 10 5 8 3 17 12 13 18 23 27 25 24 24 23 23 21 17 13 14
23 23 24 25 25 21 16 13 14 19 16 17 19 15 17 19 19 19 21 22 20 19 27 24 28 20 23 23 27 28 27 28 27 26 26 27 27 24 22 20 18 18 17 17
14 24 30 30 36 33 19 24 24 26 23 16 21 26 24 19 22 19 22 25 21 18 21 28 26 27 28 28 27 27 26 28 27 27 27 25 22 21 21 21 20 19 18 18
10 15 18 21 21 27 30 29 27 29 29 27 20 22 24 25 26 23 21 14 26 25 31 29 32 30 32 31 35 27 26 27 27 26 24 22 22 20 20 19 20 19 19 19
9 9 11 17 18 20 21 21 23 27 28 27 26 22 26 25 22 24 26 19 24 30 37 30 33 37 35 33 30 29 33 24 25 26 24 21 20 20 20 20 20 21 24 25
15 9 11 10 11 11 13 13 17 21 21 19 19 20 21 23 23 18 11 22 27 29 29 25 34 34 37 38 37 36 36 34 31 23 24 24 23 22 21 20 20 23 24 26
14 13 11 13 13 11 7 8 8 12 16 15 14 16 20 21 20 20 21 20 21 24 29 29 21 21 30 36 40 36 38 35 33 29 27 19 21 21 23 24 29 29 31 32
14 11 17 15 9 8 12 15 18 13 15 12 18 18 14 14 10 8 9 7 15 15 19 22 26 24 22 20 26 26 31 30 27 24 24 24 23 24 25 24 23 18 19 23
15 12 12 13 13 13 14 18 14 18 14 15 16 15 13 11 16 12 11 13 13 11 20 24 22 23 23 23 24 26 25 21 17 22 23 23 24 24 23 23 22 22 21 22
14 17 16 16 15 17 15 17 14 10 16 17 18 20 16 18 16 18 17 15 17 18 19 22 23 24 24 22 26 26 27 26 27 27 25 23 20 13 19 19 18 18 18 18

GFSNGP_925_spd_042.txt.gz
Wind_Speed
19 25 25 23 17 13 16 17 14 12 7 10 9 12 6 5 9 12 21 25 26 25 22 20 30 34 33 35 37 39 38 37 38 38 38 38 38 40 40 36 42 42 43 41
22 14 18 13 9 7 16 19 7 9 8 8 4 12 6 7 10 10 18 25 27 25 25 22 29 34 34 36 39 39 39 39 39 37 38 37 37 38 38 40 40 38 43 41
6 8 5 5 15 6 11 11 11 8 9 3 10 10 13 10 13 11 8 14 23 25 24 22 33 36 33 37 35 37 37 35 35 36 34 36 36 35 35 37 38 41 39 41
6 8 6 8 19 15 16 19 20 11 5 18 17 14 18 16 12 15 14 12 9 7 8 15 24 26 27 26 33 34 33 33 33 33 34 34 33 34 36 33 35 37 39 39
3 4 2 17 21 15 6 16 21 18 13 20 13 25 17 16 13 8 7 6 7 16 15 16 29 32 32 32 34 32 32 33 35 37 35 34 33 35 35 33 33 35 36 37
4 3 5 17 26 23 11 15 19 18 19 14 8 13 4 10 14 14 13 6 7 13 20 24 12 25 26 29 30 32 35 36 34 36 37 36 37 35 36 35 34 34 34 36
3 1 4 20 27 9 9 3 8 14 13 15 14 4 4 7 14 13 13 17 16 22 18 14 13 13 20 20 26 35 35 33 35 38 39 38 37 35 32 32 32 32 33 33
6 5 4 17 14 8 7 12 11 8 8 8 8 13 13 15 14 15 16 19 24 19 20 24 16 13 13 8 9 20 22 30 34 37 35 33 34 32 33 32 30 31 29 28
4 2 1 10 5 9 12 9 12 16 8 6 10 13 12 12 15 12 13 17 21 19 16 25 29 24 21 16 9 5 15 25 30 31 33 32 32 30 28 29 28 25 25 25
7 4 8 6 3 10 13 14 14 13 15 7 9 9 9 11 13 13 13 15 19 19 17 15 19 20 17 18 17 12 6 6 15 24 29 32 31 31 26 24 24 23 22 21
6 4 11 6 1 11 18 17 18 20 15 15 10 7 8 8 9 9 14 19 22 17 15 17 10 15 16 18 17 16 14 13 13 15 22 27 23 23 26 30 29 26 26 27
5 14 14 20 21 18 13 18 15 14 16 16 8 7 7 7 8 9 15 19 17 20 19 20 11 12 16 17 15 11 11 13 13 16 18 22 24 14 18 21 22 27 29 28
8 11 13 19 17 18 16 17 16 15 13 8 9 4 3 4 8 18 20 17 14 16 16 15 9 6 11 15 14 15 14 13 11 15 20 23 22 22 18 17 13 9 12 15
17 14 5 9 8 7 7 9 11 15 14 9 5 7 5 4 9 14 16 20 21 21 14 11 7 3 7 8 11 13 15 7 9 14 17 19 18 20 25 24 20 17 16 16
21 18 12 11 9 13 13 11 12 9 10 9 6 3 4 5 5 10 21 22 23 15 9 7 4 7 8 8 12 10 5 4 6 6 9 15 18 22 24 20 20 19 16 14
22 22 21 18 16 12 7 7 11 7 11 11 5 3 3 3 8 12 13 8 5 6 11 12 9 7 5 5 9 11 3 6 10 14 16 19 21 23 20 20 23 18 15 12
22 24 22 21 17 15 9 5 7 7 8 5 5 5 6 7 9 9 11 10 10 11 12 14 13 5 7 6 7 9 4 9 18 21 22 21 22 23 24 23 21 20 17 14
12 15 17 20 18 15 13 13 7 7 7 9 12 13 11 10 6 6 9 12 13 18 23 14 14 7 2 8 11 8 15 21 24 24 23 28 27 26 23 22 20 20 20 19
9 10 16 20 23 19 16 17 19 23 21 15 14 13 14 13 14 12 11 18 18 15 26 19 18 17 16 11 16 25 30 29 28 27 28 26 27 26 23 21 20 19 19 19
7 12 15 18 26 25 21 27 29 29 27 24 20 18 17 17 16 17 21 22 20 17 19 18 19 20 19 15 19 25 24 25 26 22 26 27 23 21 23 22 21 20 19 20
4 8 11 14 17 22 24 27 28 27 29 31 28 23 19 18 23 19 20 13 25 22 22 27 27 24 21 16 16 24 29 23 25 26 23 25 25 22 22 22 22 22 21 20
8 5 4 4 9 13 17 21 27 28 28 31 33 30 26 22 18 19 27 20 23 23 25 32 27 29 27 20 24 20 27 23 21 20 26 28 24 22 22 22 23 24 24 23
13 10 9 4 2 6 7 10 15 20 19 19 18 20 22 20 17 13 11 21 27 30 21 32 32 39 36 31 28 30 30 29 22 23 22 29 30 28 26 25 24 24 24 24
6 13 9 9 5 1 2 6 4 5 16 20 15 11 9 16 19 17 19 19 26 26 30 23 26 31 28 37 38 34 31 26 31 25 23 25 22 24 27 28 28 27 26 25
9 11 8 4 4 1 6 4 9 6 4 10 14 16 16 10 8 19 13 13 16 18 20 24 27 28 27 35 31 32 32 30 30 27 24 25 26 26 23 24 24 24 23 22
12 12 16 18 7 11 11 13 12 13 15 14 19 18 12 5 13 6 8 15 17 21 16 20 21 24 27 32 32 26 20 24 26 26 24 21 26 26 24 23 23 22 20 19
11 12 13 17 11 11 12 13 13 13 14 14 18 22 22 14 15 15 16 14 13 21 21 22 23 23 22 26 26 25 30 29 30 28 22 19 22 20 20 17 17 17 16 15

GFSNGP_925_spd_045.txt.gz
Wind_Speed
11 19 21 22 23 24 13 12 14 11 12 12 8 6 7 10 11 17 26 26 23 22 20 21 29 31 32 35 37 38 36 35 36 37 38 38 39 40 40 39 42 45 41 40
14 20 17 18 18 19 20 19 6 5 12 3 3 3 11 12 9 11 18 23 24 24 23 22 29 33 35 34 36 38 38 38 39 36 37 38 39 38 38 40 41 41 43 44
7 8 12 6 7 11 4 17 4 9 4 4 6 12 13 15 12 6 19 21 23 23 22 20 33 37 36 38 35 36 35 34 33 33 33 35 36 35 37 38 37 38 39 40
6 8 6 10 11 8 20 21 18 11 8 4 13 8 14 16 13 10 8 9 20 19 20 31 33 34 28 30 33 32 31 31 31 33 33 33 32 33 35 35 37 38 37 37
4 4 2 4 9 11 5 17 19 18 17 6 3 7 14 18 17 12 9 6 4 8 16 23 27 30 29 29 30 30 31 34 34 35 33 32 33 35 35 32 33 36 38 38
3 5 3 4 19 22 11 10 20 18 18 17 7 9 5 18 17 16 16 11 9 12 22 26 25 27 26 25 26 28 32 35 35 36 35 34 37 36 35 34 34 32 32 34
9 5 2 7 21 13 7 1 14 14 15 14 12 2 6 12 14 14 14 17 18 20 17 9 27 32 29 28 30 37 27 26 31 37 39 37 34 32 31 31 30 29 30 31
2 3 4 12 7 7 3 3 10 11 15 10 7 9 9 11 14 16 17 18 23 19 18 18 17 24 16 11 10 17 22 29 33 34 31 29 33 32 32 29 28 27 26 26
1 3 2 10 2 7 8 6 11 12 13 16 12 8 7 8 11 12 13 16 20 17 17 25 28 26 23 15 9 5 17 27 32 32 33 32 32 29 27 28 26 24 24 23
7 6 11 13 6 9 12 12 13 11 12 13 15 12 8 7 9 9 10 13 17 17 15 15 21 22 20 15 13 13 9 4 14 24 29 29 29 27 26 25 25 24 21 21
5 5 16 7 10 13 14 14 15 16 12 12 12 14 6 6 7 8 11 16 18 16 14 15 12 15 16 16 11 9 7 8 4 5 17 23 24 23 26 27 27 25 26 25
3 10 7 14 15 13 10 14 14 14 17 13 10 11 7 6 7 9 11 16 17 18 18 18 12 8 12 14 11 10 8 6 6 4 6 15 22 17 20 25 26 27 26 23
5 13 10 14 14 12 10 10 12 13 10 13 13 9 5 3 8 15 17 18 17 16 18 17 12 8 9 9 8 8 9 8 7 7 8 14 18 17 14 8 12 20 21 18
13 11 9 10 9 11 10 11 13 15 19 17 14 14 7 3 6 11 14 21 23 22 19 20 18 14 11 9 10 9 10 7 9 8 7 11 16 19 18 17 16 15 13 13
15 14 10 10 10 12 11 9 12 13 13 12 17 11 5 4 3 7 11 13 16 17 19 20 16 12 12 10 10 10 8 5 4 1 2 9 15 19 19 17 18 19 19 17
13 13 14 18 17 16 15 8 6 8 6 9 9 14 9 7 3 2 4 5 6 6 11 13 14 15 15 11 10 4 3 4 7 10 11 14 15 19 19 19 19 18 17 14
15 17 16 19 17 18 17 13 10 9 9 9 7 10 10 6 5 6 6 4 3 2 5 9 14 15 15 15 13 6 8 11 14 17 18 17 19 23 23 25 18 19 16 12
4 7 9 11 15 17 18 17 17 18 14 15 14 12 12 11 7 9 10 10 5 5 9 12 16 18 16 17 15 13 16 18 19 21 23 26 25 22 22 20 19 21 21 18
11 9 15 19 20 16 16 18 21 22 23 19 15 13 13 13 11 7 8 9 12 10 15 15 12 9 9 10 13 21 22 24 25 27 29 32 28 25 23 22 21 19 17 17
7 12 15 16 22 25 18 20 21 23 25 22 20 19 18 21 20 14 11 12 14 13 14 15 11 6 4 5 15 18 19 22 23 23 25 26 28 28 25 24 22 20 18 16
2 4 7 8 9 11 13 15 17 18 20 24 25 21 19 20 19 19 16 11 22 17 12 11 10 4 3 10 16 20 22 22 23 24 23 21 19 22 25 25 23 22 22 20
3 1 1 1 2 5 7 9 14 17 19 22 24 26 23 23 24 20 23 21 24 23 18 20 16 12 10 20 21 24 21 20 21 21 24 23 23 18 23 27 26 23 23 23
9 5 3 4 4 5 7 3 5 11 15 15 16 18 19 20 19 15 10 28 26 26 26 25 27 24 25 27 31 28 27 27 28 29 27 26 26 24 20 24 28 26 25 24
7 11 9 8 6 7 7 7 6 2 8 18 15 11 14 16 19 16 19 26 26 23 26 29 32 35 33 24 32 34 30 29 32 33 32 33 30 23 33 31 31 30 25 23
9 5 8 13 11 9 5 7 4 2 4 2 7 12 13 7 8 13 13 2 17 25 25 27 29 33 37 32 30 36 34 31 31 35 39 35 29 25 25 30 31 26 22 22
6 7 3 5 5 6 6 9 11 9 11 12 11 6 4 9 11 6 9 13 10 16 23 26 28 26 29 30 28 35 34 32 31 34 36 33 27 24 27 23 23 24 17 16
8 7 8 7 9 8 9 13 16 14 12 11 11 7 10 11 6 9 5 7 12 17 15 16 21 22 24 27 28 28 26 27 27 27 28 28 22 19 18 17 17 16 13 12

GFSNGP_925_spd_048.txt.gz
Wind_Speed
11 12 10 10 16 17 6 12 3 6 10 10 10 10 6 6 5 10 15 13 16 19 19 20 29 30 33 34 38 38 37 35 37 37 39 39 40 41 41 41 40 38 38 38
5 12 14 15 16 15 18 18 11 17 10 4 4 5 4 5 7 8 12 16 19 22 22 21 29 34 36 36 37 38 36 36 37 37 38 41 41 41 40 40 40 40 41 41
5 4 8 6 15 8 6 9 3 6 2 7 1 6 8 8 9 12 14 14 17 23 22 21 33 37 35 38 37 38 37 36 35 34 36 37 38 37 39 40 36 39 40 39
4 2 3 4 3 14 15 14 15 9 13 7 6 7 7 11 12 14 16 13 10 16 18 30 34 36 29 33 36 37 34 32 34 35 34 33 32 34 35 34 37 38 37 39
3 0 5 3 6 6 5 8 15 13 15 11 8 4 4 18 16 13 13 9 7 11 14 24 28 30 30 31 32 31 32 34 35 36 34 33 34 34 35 32 33 36 37 37
3 1 6 5 12 13 4 6 14 15 15 13 9 7 7 20 17 18 16 13 7 18 24 25 26 28 28 28 29 30 33 34 32 34 36 35 38 36 34 32 33 30 31 34
6 2 6 13 23 9 5 2 8 12 13 15 11 2 7 14 15 16 18 18 19 15 13 22 33 32 25 25 29 29 25 28 33 37 38 38 32 31 29 29 26 27 29 31
5 5 4 18 9 6 1 4 5 8 12 12 11 10 10 15 16 19 20 22 27 17 14 10 22 26 21 21 20 25 30 32 33 34 32 29 31 29 29 28 27 26 26 25
1 2 11 13 9 3 5 4 5 8 12 11 11 12 12 12 14 14 16 21 26 21 20 21 18 21 18 8 13 21 27 32 33 32 33 31 31 28 26 29 26 25 23 23
4 2 11 11 2 4 6 4 8 7 8 10 10 11 12 11 12 12 15 18 23 23 20 19 23 24 18 14 12 16 20 23 27 29 28 28 27 28 27 26 25 24 24 24
2 3 11 7 13 11 12 6 8 7 6 8 10 12 11 9 10 10 13 20 21 18 17 18 16 18 17 15 13 15 12 10 13 21 26 26 25 25 25 26 27 25 26 23
2 8 7 9 13 16 14 10 8 10 10 7 7 8 10 9 9 11 13 20 21 21 20 23 19 16 15 14 13 9 7 5 4 5 12 22 26 20 25 26 26 28 23 21
4 13 8 11 11 14 14 15 14 10 9 10 7 6 8 7 8 16 19 22 20 18 21 23 21 19 18 15 13 11 7 5 1 3 8 15 19 20 16 8 21 23 22 20
13 11 7 11 10 15 13 14 16 16 13 11 11 10 9 8 12 12 12 16 16 17 19 18 17 14 17 15 15 14 9 5 5 4 6 11 16 18 18 14 11 8 11 17
16 14 12 12 12 14 19 15 11 10 10 8 12 9 9 6 6 11 14 14 15 15 16 16 17 17 17 16 13 12 8 5 6 4 3 8 13 14 15 15 14 17 20 17
11 12 12 16 16 16 16 17 15 13 11 8 5 9 12 11 10 9 11 15 15 13 19 20 21 18 19 17 13 10 6 3 3 4 3 5 10 15 17 17 17 18 18 21
13 15 11 12 14 16 15 13 13 13 12 11 11 9 13 13 9 13 14 14 15 15 15 18 24 25 22 17 14 11 7 3 1 4 7 7 12 16 16 17 18 19 15 13
4 6 9 9 9 11 13 14 18 20 16 19 16 17 15 11 9 13 17 17 16 19 17 20 23 27 25 19 15 12 8 7 5 6 9 10 12 17 21 22 21 23 24 20
4 5 9 13 15 12 10 12 16 19 22 22 22 18 16 17 16 14 12 11 12 12 18 22 23 25 26 23 17 11 12 10 9 10 11 15 13 13 16 21 21 21 21 20
2 1 3 5 11 12 13 16 15 18 19 20 20 21 19 20 18 18 16 13 18 18 20 18 18 20 21 21 14 8 14 16 17 15 18 15 15 16 17 21 22 20 19 20
5 4 2 1 4 11 14 18 16 17 18 19 19 21 19 20 19 21 21 13 25 31 23 21 19 17 15 12 7 7 13 15 13 14 13 16 20 20 19 18 18 21 25 25
6 4 3 5 7 10 10 16 17 16 14 19 21 21 21 21 22 20 26 24 26 32 27 26 27 17 11 2 5 10 16 19 21 21 20 20 19 17 18 20 19 19 22 25
8 8 5 4 5 8 12 8 7 11 13 13 15 18 18 16 18 21 13 29 34 35 31 31 31 27 25 22 18 19 25 25 26 27 25 23 29 25 26 23 25 23 23 27
6 10 9 5 7 9 10 8 8 6 8 9 8 9 10 9 11 15 15 26 27 30 35 33 32 33 36 30 26 27 27 30 31 30 30 28 27 33 34 35 33 31 29 27
2 2 3 3 5 6 6 6 4 6 7 9 11 9 14 13 4 6 7 15 23 30 32 33 34 39 38 36 31 35 34 33 32 35 28 31 31 27 34 32 24 27 26 23
2 3 3 4 3 3 6 7 6 7 10 8 5 9 9 12 10 8 8 6 13 19 24 30 34 35 34 33 34 34 33 32 30 29 34 28 26 25 29 28 24 20 22 21
5 7 8 6 6 6 8 9 12 11 10 8 6 8 7 4 6 7 12 10 11 14 18 20 26 28 31 32 30 31 31 31 29 27 26 24 22 20 18 17 16 14 13 16

GFSNGP_925_spd_051.txt.gz
Wind_Speed
16 19 18 21 21 15 11 10 12 17 10 19 18 17 17 7 7 6 7 9 14 18 18 22 29 32 35 35 35 38 38 38 38 37 36 35 33 33 34 31 34 36 36 33
19 19 18 21 22 19 17 18 10 14 14 8 8 6 4 4 8 11 10 10 10 15 18 19 28 33 37 39 39 40 37 37 36 35 35 35 34 33 32 32 32 34 31 30
11 13 14 15 24 19 13 6 13 13 7 10 8 1 6 7 8 11 13 14 13 15 17 22 34 37 37 41 38 39 38 35 35 35 35 35 34 32 31 31 29 31 30 29
10 13 8 3 10 16 11 5 2 5 6 9 5 7 8 11 10 12 14 16 17 15 16 29 36 37 32 34 37 37 35 35 34 33 33 32 31 31 31 29 29 28 28 30
5 7 10 10 6 5 3 6 7 4 6 8 8 8 2 15 13 13 14 15 17 22 24 24 29 33 32 33 33 33 33 34 34 34 33 32 32 31 30 28 28 29 28 28
6 6 5 6 13 11 6 4 9 8 9 10 5 8 4 15 15 15 14 15 14 16 19 24 28 33 31 32 33 34 36 35 33 33 33 33 33 32 32 31 30 27 28 31
12 8 8 9 22 5 6 5 7 8 9 11 9 5 8 12 11 11 14 16 12 3 18 25 29 31 28 29 32 31 27 28 29 32 33 32 31 29 27 27 25 26 27 28
7 6 8 15 10 1 6 5 7 9 10 10 9 9 9 11 13 14 16 18 19 12 10 16 26 30 27 27 25 26 27 29 30 30 30 28 28 25 25 25 25 24 25 24
4 1 5 8 9 7 8 9 7 9 11 11 11 10 11 11 14 14 15 19 22 18 19 17 10 12 14 13 19 25 27 27 27 27 28 25 27 25 25 26 25 24 24 23
3 2 10 2 6 11 10 10 9 8 11 10 11 13 13 12 11 13 16 18 23 26 25 24 22 17 9 5 12 21 23 24 25 26 26 27 25 25 25 25 25 24 23 22
3 4 8 6 10 14 12 11 10 9 9 9 12 12 12 13 12 12 15 23 25 23 22 24 23 22 20 15 6 11 16 19 21 22 24 21 23 23 25 23 25 25 23 21
3 9 7 5 12 14 12 12 11 10 10 8 10 11 12 12 14 16 17 21 23 25 24 21 22 22 21 19 15 9 6 6 6 7 11 14 17 16 24 23 26 28 22 19
7 13 8 11 7 15 13 15 12 9 9 10 8 10 12 9 15 16 19 20 21 21 20 20 19 20 20 19 17 16 10 8 2 11 10 20 27 20 15 11 19 20 24 22
15 12 12 15 9 16 15 17 19 18 16 11 9 9 11 11 13 15 17 17 18 18 19 20 20 21 22 21 18 14 12 19 6 6 21 13 16 13 10 9 8 5 19 21
15 13 11 12 14 17 21 19 18 16 16 14 12 10 11 10 11 14 17 20 19 18 19 19 19 20 21 20 17 15 11 6 8 4 1 3 6 7 7 8 8 7 8 10
14 13 12 14 14 15 15 15 12 14 16 14 15 13 12 11 13 14 16 18 19 18 20 20 19 19 21 21 19 15 14 15 14 11 6 3 5 8 9 10 11 11 10 10
13 18 17 17 16 17 16 13 13 13 14 16 18 17 15 13 15 16 16 17 16 17 18 19 22 21 22 19 20 17 16 13 11 8 4 1 5 9 9 10 12 11 10 10
6 9 12 14 16 14 13 16 18 18 16 17 15 16 17 16 11 13 17 17 18 18 18 21 22 24 21 19 18 18 16 14 9 6 3 2 5 9 12 12 13 15 15 14
3 6 10 14 15 16 19 16 17 17 18 19 18 19 19 19 17 15 16 18 19 17 21 20 23 21 19 20 19 16 15 14 11 9 5 7 9 11 14 17 16 13 12 11
2 1 3 6 10 14 15 19 21 20 20 18 20 21 21 20 21 19 14 19 22 20 19 19 20 20 17 19 20 17 13 11 11 9 8 8 10 12 16 19 21 17 13 11
6 3 3 4 5 6 9 12 15 18 18 18 15 15 17 19 20 21 21 17 27 28 24 20 18 18 17 15 17 14 11 5 4 5 7 6 11 15 17 19 19 18 17 16
8 6 5 6 8 8 9 8 7 9 11 12 13 16 17 17 18 18 23 19 24 28 24 22 23 19 17 15 7 3 1 3 5 5 6 7 8 11 14 17 21 19 19 17
5 6 5 4 4 8 10 7 8 8 8 8 9 10 11 12 16 20 15 25 24 29 29 30 30 27 27 25 21 19 18 15 17 17 16 17 18 19 18 17 20 23 25 19
2 1 4 4 4 6 7 8 8 8 9 9 9 10 10 8 8 13 17 22 25 28 29 31 30 29 31 31 31 29 27 28 29 28 30 30 28 26 28 25 26 27 22 27
1 1 1 1 2 4 5 7 8 9 11 10 12 13 12 10 9 10 12 17 23 23 29 31 31 32 34 34 33 34 36 36 31 31 34 33 33 29 29 30 26 29 22 22
3 1 4 4 4 4 4 6 9 9 11 9 9 12 11 10 9 9 11 14 18 22 24 30 34 31 32 33 35 37 35 35 34 32 32 31 30 28 26 23 20 21 18 17
1 3 5 5 4 4 4 6 8 10 10 8 8 10 9 7 9 10 8 13 15 17 18 21 24 29 30 31 32 31 32 34 32 30 31 26 24 21 19 17 16 14 15 14

GFSNGP_925_spd_057.txt.gz
Wind_Speed
16 18 13 16 15 13 18 14 19 21 25 23 15 13 7 6 8 13 11 13 20 17 17 18 24 29 33 34 36 39 38 38 41 42 40 37 38 36 35 34 33 31 29 28
18 16 15 18 19 18 21 20 20 24 26 21 19 12 13 7 9 3 5 6 8 12 14 16 23 25 31 34 34 38 37 40 37 36 38 40 39 38 36 34 33 32 30 29
19 17 18 20 21 20 22 23 22 22 23 20 19 10 15 12 8 2 8 8 6 8 9 15 25 25 28 34 34 34 35 34 35 36 38 39 38 37 37 36 34 33 32 30
14 18 19 16 13 16 23 24 24 25 26 25 24 10 19 1 6 8 8 10 10 10 11 14 18 24 28 30 36 34 35 32 36 35 37 37 37 38 37 35 35 33 32 32
13 14 18 19 1 9 8 13 17 22 24 27 25 24 14 17 1 7 9 10 12 14 16 17 18 21 20 29 31 34 32 37 37 39 36 36 37 37 35 33 33 33 33 32
11 16 20 16 11 8 5 13 11 17 23 23 16 14 10 12 9 11 12 13 15 18 20 21 24 24 24 27 30 35 37 40 38 37 36 37 37 35 36 35 35 34 32 32
16 14 12 12 8 8 5 3 21 19 15 12 11 10 12 12 13 14 14 15 20 22 22 23 25 27 28 29 31 38 34 32 33 36 36 34 32 32 33 33 31 30 30 30
15 9 16 8 6 5 5 12 18 20 13 13 13 13 12 11 14 15 16 21 22 23 18 20 23 25 26 26 32 29 31 32 33 33 34 33 31 30 30 28 27 25 27 26
5 5 3 4 9 10 7 12 22 17 10 10 11 10 11 11 12 12 17 22 23 21 12 11 9 16 21 27 25 27 28 30 30 30 31 29 32 29 29 27 28 28 26 27
8 2 10 12 10 6 8 18 21 12 8 7 10 9 10 10 11 12 17 20 24 21 21 20 23 21 4 14 19 22 25 27 28 30 30 29 31 29 29 29 28 26 27 26
5 6 13 4 4 8 15 19 10 6 4 7 8 9 8 9 9 10 14 18 22 20 20 23 26 28 28 12 17 22 24 27 28 29 31 30 28 29 29 25 27 27 25 25
3 8 8 9 11 11 15 9 8 7 3 4 5 7 7 8 10 10 14 18 21 23 23 25 26 28 32 27 9 16 21 24 29 30 31 30 28 16 19 19 19 17 11 9
4 10 10 7 6 11 14 7 7 8 11 1 3 6 7 6 10 13 14 17 16 18 21 22 24 27 30 31 27 2 17 24 25 28 29 27 27 25 19 11 9 8 11 13
9 11 6 8 6 11 12 10 10 10 11 12 12 7 7 2 10 13 15 15 14 16 21 22 24 28 31 30 29 19 4 3 15 18 24 20 21 22 19 20 17 11 9 10
8 7 9 9 11 11 12 13 8 8 8 9 14 14 15 10 9 11 15 18 16 17 20 20 22 25 28 30 32 26 22 17 5 10 8 16 13 17 17 17 17 15 10 7
10 11 9 11 12 13 12 12 11 11 10 9 11 15 15 16 17 17 17 18 17 17 20 20 20 22 23 26 29 24 20 14 8 10 8 9 14 18 12 18 21 23 16 13
11 11 12 14 14 13 13 11 9 11 14 13 13 13 14 16 17 18 20 19 15 15 17 18 20 19 17 16 18 24 23 12 8 4 12 8 7 9 3 9 17 9 15 8
4 5 8 11 12 12 12 16 16 17 15 15 14 15 19 18 13 14 19 20 19 16 19 19 21 20 15 14 16 14 19 16 16 7 3 2 6 7 5 18 13 7 15 10
5 7 10 12 13 13 13 12 14 14 17 18 18 18 19 16 16 16 16 20 21 20 23 22 21 16 16 16 19 11 13 17 13 6 9 9 4 10 6 6 6 8 9 9
2 3 7 7 7 9 10 12 11 12 10 13 14 14 14 15 18 19 20 18 23 21 21 23 21 18 15 17 19 13 5 6 10 20 7 11 19 13 11 12 15 12 9 7
4 4 6 10 8 11 10 7 10 9 9 11 13 13 16 14 18 20 17 16 23 19 24 24 25 23 19 17 15 13 14 9 8 6 15 12 10 17 21 20 18 16 14 14
4 6 4 5 10 10 12 10 10 10 8 8 9 7 10 13 16 19 22 19 20 21 24 24 25 24 22 22 22 19 16 16 16 16 15 14 13 14 15 15 17 18 14 13
4 4 8 5 8 9 11 11 10 10 10 11 10 11 12 16 18 20 15 22 22 24 24 28 27 26 27 30 30 29 28 28 26 23 22 22 20 16 15 15 18 21 21 17
4 3 3 2 3 5 7 8 6 6 7 7 9 12 15 9 19 16 19 20 21 24 28 28 27 28 29 31 31 30 29 29 27 26 26 27 26 23 20 17 16 17 19 23
4 6 9 6 3 4 2 5 3 7 5 8 10 10 15 14 15 16 16 19 20 23 22 23 24 28 28 29 28 27 27 27 25 26 26 26 25 26 25 24 22 21 22 25
8 6 4 4 7 7 8 10 10 10 10 10 11 12 10 13 11 12 14 14 12 12 16 20 20 20 23 23 23 23 22 23 24 25 25 25 24 23 21 21 21 22 21 19
5 5 2 5 6 8 10 7 9 10 11 12 12 10 7 11 10 12 10 12 12 13 15 16 18 18 20 19 18 16 14 15 18 19 19 21 20 19 18 17 17 17 19 17

GFSNGP_925_spd_060.txt.gz
Wind_Speed
21 24 20 18 17 18 20 23 20 19 22 22 9 21 16 19 20 10 11 7 14 12 8 19 30 36 37 34 39 39 38 41 41 40 39 37 37 37 41 37 34 34 32 30
20 22 21 21 19 18 20 20 22 18 21 20 16 7 19 19 21 27 7 1 7 7 9 13 16 31 33 35 36 38 38 40 37 37 37 37 38 36 37 38 37 35 34 32
18 17 21 21 20 19 20 20 18 18 19 18 15 16 8 14 17 18 24 10 13 14 9 12 15 25 32 34 34 36 35 35 37 37 39 41 37 39 35 38 36 37 35 34
11 14 15 15 21 21 24 24 20 20 21 20 19 17 16 16 8 12 25 16 13 13 17 6 23 48 31 31 32 31 35 33 36 38 39 39 39 37 38 35 37 36 36 36
8 13 16 23 11 8 10 12 9 18 17 25 19 21 20 15 16 11 14 26 18 18 18 20 22 22 17 26 37 35 29 36 35 39 36 38 39 40 37 36 35 36 36 36
10 14 16 18 8 8 10 10 16 15 17 23 24 14 4 14 15 13 15 25 28 27 24 22 23 25 20 21 26 35 37 33 36 35 37 37 38 38 37 37 37 36 36 37
13 11 14 5 5 8 10 5 15 14 15 17 15 10 10 11 13 15 18 23 27 26 22 26 26 23 24 24 24 30 35 33 31 34 38 35 35 35 35 35 33 34 33 33
10 11 14 5 8 12 9 12 15 15 14 16 20 18 17 13 13 13 14 21 25 23 20 27 20 16 25 26 31 24 30 33 33 35 32 34 35 34 34 33 33 31 32 29
4 4 12 7 6 9 10 12 15 15 15 16 22 16 16 11 13 13 13 18 22 20 19 25 29 25 20 27 29 27 20 34 33 32 34 33 35 33 32 33 31 31 27 28
10 3 12 12 10 11 11 12 16 16 15 16 21 15 14 10 10 10 15 15 21 22 21 23 29 26 22 22 17 26 25 28 32 32 32 33 29 33 31 31 31 28 29 25
5 6 14 4 13 14 14 15 15 20 17 17 13 11 11 9 11 12 12 16 15 19 20 24 27 23 23 27 21 23 26 26 28 28 32 31 33 32 33 33 33 32 28 29
3 10 8 12 11 13 14 15 18 14 10 11 9 8 9 8 13 10 10 16 16 18 21 23 26 26 28 28 25 18 14 20 24 25 28 29 31 21 31 31 32 33 33 28
3 9 8 9 11 9 12 13 11 11 10 8 2 5 10 8 9 8 13 18 19 15 18 20 24 26 30 32 29 22 13 14 21 25 25 28 29 24 17 18 23 26 33 27
5 2 5 6 6 12 10 16 11 13 12 11 8 8 13 14 4 8 12 17 19 14 18 21 22 26 34 32 30 26 13 7 15 21 24 29 29 25 24 21 17 18 20 17
2 6 2 0 6 10 12 13 9 9 11 12 11 9 13 10 14 16 18 19 16 17 20 22 22 28 29 31 27 23 24 21 11 2 10 18 31 28 25 23 18 17 16 13
5 8 4 0 4 9 12 12 10 10 10 13 13 13 13 14 17 17 18 20 17 16 21 22 22 27 28 27 25 25 27 28 21 12 15 14 8 12 9 15 15 16 11 7
6 6 8 11 10 7 11 10 11 10 13 13 15 16 13 12 9 14 16 19 16 16 21 22 24 28 25 27 28 23 25 30 25 3 16 10 7 7 5 6 9 15 12 14
3 7 3 6 7 6 7 10 9 9 8 8 8 12 13 13 12 9 15 18 21 21 24 25 25 27 23 22 28 25 24 26 27 16 17 11 5 5 6 5 2 5 7 8
6 1 4 6 4 4 6 10 6 3 5 9 6 4 9 16 14 15 18 21 21 18 24 27 25 20 24 24 26 20 19 18 16 26 18 22 23 25 24 25 21 13 7 9
6 4 1 2 6 3 4 7 7 7 6 8 7 9 11 13 15 17 18 15 20 24 26 28 26 23 22 22 23 18 22 19 16 20 28 23 20 20 23 20 26 20 23 26
5 1 2 3 6 7 10 8 9 6 7 8 6 6 11 12 16 17 15 14 25 23 21 19 25 24 26 23 20 19 20 20 23 24 24 20 24 27 22 17 16 16 17 21
7 5 3 5 6 9 10 8 10 7 3 6 7 9 12 15 15 18 22 19 19 17 20 24 27 27 26 27 29 28 28 26 26 25 25 24 21 22 17 16 16 14 15 19
14 8 1 4 5 7 7 6 6 6 5 7 10 7 17 11 16 17 12 17 18 22 24 27 26 27 28 31 30 29 31 30 28 27 25 26 26 25 23 23 23 20 22 22
7 5 13 2 2 4 4 7 7 6 12 7 17 9 11 22 15 14 15 18 19 17 14 17 23 26 28 29 29 29 29 27 27 27 27 28 27 27 26 27 26 22 24 26
11 7 6 5 6 8 7 4 5 13 9 13 10 13 10 17 16 10 10 9 10 12 14 15 15 22 24 22 24 22 25 30 28 28 26 25 24 25 25 26 26 22 23 25
3 7 9 4 7 9 9 12 13 13 9 16 10 13 11 11 13 12 9 8 4 7 11 15 11 14 15 17 19 19 19 21 24 26 27 27 26 25 24 23 24 24 24 24
8 7 7 1 2 5 8 7 7 10 12 12 15 7 8 10 9 11 9 8 7 9 8 13 16 16 18 20 19 13 14 15 19 21 20 20 19 21 22 23 22 21 19 19

GFSNGP_925_spd_063.txt.gz
Wind_Speed
10 14 15 20 20 20 14 8 3 9 14 6 8 8 9 9 13 15 18 7 12 19 13 6 26 14 30 39 41 40 41 41 40 39 37 35 37 37 44 39 42 38 36 33
10 12 15 18 19 21 17 13 12 11 15 10 13 11 11 18 13 14 15 19 21 13 17 13 21 31 15 36 41 43 39 40 39 37 38 38 36 37 40 42 38 42 41 38
5 9 12 11 12 16 17 12 9 10 10 16 17 17 16 17 15 13 9 8 7 19 15 8 10 21 17 25 29 40 42 39 41 40 39 40 37 36 36 41 38 37 40 38
4 4 4 8 10 15 16 13 16 11 16 13 13 11 18 20 16 16 15 12 13 13 18 12 3 19 22 26 10 14 28 38 41 41 41 38 38 37 36 35 38 38 36 36
4 4 10 13 11 4 7 5 15 14 14 15 18 9 9 19 15 15 16 13 16 20 24 25 29 16 15 14 24 24 25 34 38 42 39 39 41 39 39 35 36 38 36 37
2 4 5 3 5 8 6 4 11 13 14 15 15 6 6 19 16 17 23 24 25 24 21 19 24 26 18 19 20 29 30 38 38 40 40 41 40 41 37 39 37 33 36 36
5 6 5 7 3 8 3 4 11 11 9 10 5 4 13 14 12 18 20 26 24 21 19 20 20 28 15 31 26 29 26 29 34 41 43 41 40 38 39 36 33 35 34 35
1 6 6 19 7 4 6 9 10 10 9 9 7 9 15 13 10 12 16 22 22 22 23 25 27 24 16 11 20 18 23 21 30 35 38 36 39 38 36 36 34 33 33 30
4 3 4 9 10 11 12 11 12 13 14 12 12 9 10 12 9 9 15 18 19 21 21 22 27 28 26 29 31 30 20 22 34 34 39 36 36 36 34 34 33 31 30 31
6 1 7 12 8 9 11 14 15 14 15 13 15 12 10 9 6 7 13 15 15 14 14 20 24 27 28 28 31 29 25 21 26 34 33 34 34 36 35 35 33 31 30 30
5 5 14 6 13 12 12 13 16 15 14 14 12 13 10 6 6 4 16 17 15 9 9 14 23 25 28 29 30 28 25 21 24 31 35 32 34 34 36 37 37 34 33 31
3 6 6 7 10 13 11 12 12 16 12 12 11 15 9 6 7 9 9 10 14 14 14 17 20 24 26 30 28 27 24 21 18 25 28 31 30 29 34 34 36 40 36 32
4 2 7 8 10 13 14 14 11 14 11 12 15 19 8 6 9 9 5 10 14 13 16 15 17 22 28 31 30 27 23 22 22 19 24 26 26 28 19 29 35 37 38 38
7 5 8 4 4 8 12 14 15 12 13 14 14 19 3 9 4 7 11 12 13 13 16 19 21 23 28 30 29 28 26 22 18 18 14 23 25 25 24 23 20 21 34 39
12 13 9 6 6 5 9 11 9 8 9 11 14 14 10 10 10 10 13 15 12 12 15 19 21 26 31 31 30 30 27 25 22 14 13 23 25 25 26 23 23 24 22 26
7 6 11 7 5 1 4 5 6 8 7 11 13 17 17 13 13 15 17 20 17 16 19 21 22 30 33 33 28 30 27 28 26 14 7 15 24 26 22 21 22 26 27 27
2 2 2 2 6 5 2 3 4 6 8 10 13 16 19 19 14 16 19 20 18 18 22 23 26 28 29 27 28 27 29 31 33 11 6 14 16 16 15 17 20 20 24 26
3 5 6 5 3 7 5 5 2 4 9 13 8 15 18 16 14 17 20 21 20 18 24 29 29 25 25 23 27 27 29 27 24 16 14 22 16 20 20 20 21 14 12 14
8 7 2 3 4 3 8 9 10 6 5 10 10 10 14 15 16 17 19 19 20 20 27 28 25 23 25 23 23 21 23 21 19 23 24 28 26 22 20 24 21 16 17 17
12 11 6 4 7 7 8 3 6 2 5 4 7 7 9 11 13 16 17 16 20 21 23 21 21 24 23 22 19 18 20 22 21 24 30 26 21 24 23 25 26 27 26 25
4 10 13 9 6 2 12 5 6 3 2 3 7 9 6 7 12 12 13 13 23 24 21 19 23 26 24 22 23 24 23 24 26 28 26 24 25 23 27 29 26 24 24 25
6 15 2 12 8 5 6 10 8 6 2 4 11 9 6 3 9 15 15 12 16 17 17 18 25 28 22 24 28 26 26 26 25 26 27 26 25 25 25 24 24 27 27 26
11 13 16 8 6 4 3 10 4 7 11 4 11 10 11 10 7 7 7 11 14 12 14 16 22 33 28 31 30 26 25 27 26 27 27 28 28 27 26 26 26 26 27 26
6 3 7 13 11 13 4 8 7 10 17 12 9 14 11 9 5 5 5 8 9 11 13 17 16 21 31 36 33 27 27 24 25 27 28 30 30 28 27 25 28 31 31 30
8 4 3 4 6 9 9 12 10 17 11 9 10 14 12 8 5 3 4 8 9 9 6 10 13 18 22 23 27 24 21 27 29 28 26 26 28 28 28 29 29 29 30 30
15 14 8 9 9 13 13 14 15 13 12 18 8 10 6 10 7 4 1 8 11 10 3 5 10 15 18 23 23 19 20 22 24 31 29 26 27 28 27 26 27 28 27 26
22 20 19 18 10 19 18 17 16 13 12 12 18 14 14 8 9 4 1 4 13 13 12 12 15 18 19 17 15 15 19 22 26 28 23 23 24 25 27 26 26 25 23 22

GFSNGP_925_spd_069.txt.gz
Wind_Speed
2 2 2 2 4 5 3 4 4 6 5 7 12 12 13 14 16 19 17 17 13 9 6 11 12 6 10 19 31 33 31 31 34 36 38 41 41 43 44 43 41 38 35 33
6 4 5 2 4 5 6 3 2 5 2 5 6 9 13 14 14 15 16 16 13 11 13 14 16 15 11 8 19 31 32 34 34 32 34 37 38 41 41 44 45 43 41 38
3 6 6 5 6 5 2 3 3 5 1 4 5 10 11 12 11 12 11 12 13 12 14 14 14 16 16 13 11 16 33 34 34 35 35 38 40 39 40 41 41 42 42 43
2 4 1 5 3 5 8 5 4 3 5 4 5 6 3 9 11 12 11 10 11 15 14 15 17 20 20 15 7 9 15 33 34 34 35 33 31 35 38 37 38 41 40 40
4 3 5 4 4 4 2 4 3 2 3 4 9 4 6 9 12 12 12 13 14 18 21 17 17 23 20 17 9 6 5 3 21 27 27 30 31 33 35 33 35 37 38 39
3 3 5 5 3 7 3 3 3 3 4 6 8 1 4 14 14 15 23 22 18 21 20 18 18 20 18 16 15 17 13 8 8 6 23 28 30 32 34 34 35 33 35 38
3 4 6 2 6 4 3 2 2 2 2 3 1 4 9 12 16 20 21 26 23 21 19 18 18 19 12 15 16 18 17 14 11 11 11 16 26 33 33 34 33 33 33 35
2 2 7 2 2 3 0 2 2 4 5 6 6 7 16 13 13 20 21 22 21 19 20 21 18 13 15 16 20 17 17 17 16 12 15 14 19 29 34 33 32 32 31 32
6 4 2 2 4 3 1 3 3 4 6 8 11 13 13 15 14 19 22 22 22 20 18 18 16 19 13 16 19 19 17 16 16 17 19 16 16 22 26 31 30 29 28 30
4 4 2 4 5 2 2 4 7 9 10 11 15 15 11 15 13 14 24 22 19 18 19 19 16 14 15 19 22 24 14 8 15 18 24 19 19 17 27 29 29 29 27 28
5 7 5 2 3 2 4 6 10 14 13 14 15 14 13 12 13 16 23 28 22 16 15 16 16 17 17 16 20 23 26 20 20 26 24 25 24 18 28 36 38 32 34 32
5 6 4 6 4 3 5 8 9 13 13 16 16 13 16 13 19 20 22 25 23 22 15 10 13 18 17 19 21 23 20 17 18 16 20 21 22 25 25 37 34 42 42 36
5 5 7 6 5 7 7 9 11 14 14 12 15 17 19 19 23 24 24 22 19 14 14 12 11 14 17 18 21 25 19 13 17 18 10 14 20 19 22 23 40 42 44 47
5 6 4 6 6 7 9 9 13 13 13 14 13 18 15 13 6 13 13 8 9 11 10 10 13 16 16 17 19 22 24 25 21 21 13 13 17 22 21 23 20 26 44 44
8 9 8 0 4 7 10 9 7 9 9 10 13 14 15 14 9 11 14 14 9 1 4 10 14 16 17 19 21 23 26 24 23 23 21 25 27 23 24 23 22 26 23 30
6 7 6 6 9 8 5 6 6 8 8 3 9 13 15 14 11 12 13 13 13 9 10 11 13 15 18 20 21 23 23 20 20 22 22 20 23 25 27 24 22 22 22 29
2 4 5 7 6 8 7 7 9 9 8 5 7 10 17 15 13 12 12 13 14 14 14 15 17 18 17 18 16 21 21 23 18 20 18 18 22 23 23 23 22 22 22 28
9 6 8 8 6 6 7 10 12 14 11 10 12 10 13 13 12 13 14 14 15 15 15 16 16 19 18 14 13 19 19 16 15 15 14 16 20 19 15 20 20 21 21 25
11 10 13 12 11 9 10 10 11 15 16 14 9 6 9 12 15 15 15 16 15 16 21 18 16 13 13 13 15 15 11 9 9 9 8 12 15 14 13 13 16 22 22 22
12 9 6 13 13 10 12 12 10 12 14 12 8 2 6 11 14 15 16 14 18 17 24 22 18 14 13 12 11 9 6 4 6 7 10 14 11 10 14 13 14 16 10 13
8 10 13 16 13 10 8 11 9 11 10 7 7 5 3 5 6 8 10 10 19 17 23 25 24 20 16 11 11 11 9 6 9 13 18 12 11 15 19 18 17 22 26 25
11 12 16 19 11 11 8 9 10 10 5 7 7 8 7 6 5 4 7 11 18 19 17 23 28 24 18 18 19 19 16 14 11 18 17 18 15 18 19 22 23 19 26 28
12 14 18 13 9 9 11 9 13 11 9 10 9 7 8 8 11 11 8 4 11 16 17 16 22 26 26 27 25 24 23 20 18 19 21 23 19 25 26 26 25 25 18 34
1 7 10 11 14 12 9 7 8 14 9 11 8 6 5 5 7 8 10 12 11 3 8 13 12 19 29 29 29 29 27 26 25 22 24 33 25 27 27 26 25 27 23 24
11 10 2 10 7 6 9 12 14 13 9 5 6 4 6 7 8 16 19 18 8 6 5 11 8 13 22 22 28 31 31 32 31 29 31 30 28 27 25 30 27 30 27 20
8 11 14 14 4 4 11 17 16 14 8 5 5 4 6 5 8 14 9 10 7 8 5 2 7 11 17 21 22 25 26 29 30 31 29 29 33 26 23 29 25 26 27 27
4 2 6 6 12 15 5 14 16 12 9 6 3 1 6 4 5 8 10 10 6 8 5 4 3 9 11 17 18 20 21 22 23 28 27 28 32 22 20 24 22 24 27 27

GFSNGP_925_spd_072.txt.gz
Wind_Speed
5 5 3 3 3 1 1 3 3 5 2 3 6 9 9 11 15 17 17 17 15 13 15 17 17 15 8 17 29 32 33 32 35 39 39 39 38 41 40 40 40 39 37 34
2 3 2 4 6 6 4 3 3 6 3 3 3 5 9 11 13 15 15 16 15 14 19 19 17 17 18 13 11 27 34 36 36 34 34 38 40 41 40 40 40 40 40 39
3 2 2 3 1 3 2 2 2 1 0 4 4 6 6 7 9 11 13 14 14 14 18 20 22 22 20 19 12 11 24 31 34 31 33 37 39 38 39 41 40 41 41 40
2 1 4 3 2 5 4 1 1 4 2 3 3 5 0 4 7 10 12 13 14 18 20 22 23 26 24 21 4 2 7 18 31 37 35 37 34 35 38 37 37 39 39 40
4 1 3 1 2 2 4 6 2 2 3 5 11 5 5 3 8 7 9 16 17 21 21 22 22 24 23 21 17 10 7 8 11 25 28 28 31 31 33 30 34 37 38 38
2 3 4 5 3 3 1 4 4 4 4 4 9 3 2 8 14 13 19 20 21 26 22 23 22 21 19 16 12 10 10 10 6 3 11 26 30 32 34 35 33 32 35 38
3 2 5 2 4 2 4 2 1 2 1 0 1 4 13 14 16 18 16 22 27 24 21 22 25 22 19 15 14 12 11 12 11 5 8 7 13 27 30 31 30 30 33 36
3 3 6 1 1 3 1 1 3 2 2 5 6 9 11 17 16 17 23 23 20 25 25 25 23 21 20 17 18 18 13 10 10 10 7 10 12 13 19 26 30 31 30 29
6 4 2 1 2 1 2 3 3 3 4 7 10 10 12 14 16 23 23 25 23 18 26 31 23 21 17 20 20 20 18 14 9 12 12 10 11 17 18 23 30 28 28 28
3 2 5 5 2 3 4 3 3 4 6 7 11 12 15 14 17 23 25 22 27 26 20 26 30 24 21 17 18 21 21 18 17 13 15 16 14 14 17 18 24 28 27 27
4 6 3 5 6 5 4 3 5 6 10 12 11 12 13 14 19 23 25 25 24 28 28 24 26 29 25 20 17 18 16 18 18 15 17 19 18 18 15 17 20 27 31 30
5 7 5 4 6 6 4 4 5 6 11 14 13 11 16 16 22 23 23 27 26 27 30 30 25 27 24 23 20 17 14 14 16 17 24 23 26 26 22 22 20 24 39 34
5 5 7 4 4 6 4 6 6 6 9 10 15 16 17 17 21 27 25 23 22 27 30 29 23 23 21 20 23 24 16 14 13 17 22 17 18 15 23 28 24 22 22 35
5 6 2 5 4 4 6 7 7 11 10 11 13 17 17 16 18 14 13 17 20 22 15 11 14 19 19 22 23 26 25 23 20 17 15 15 16 17 15 18 25 22 23 22
10 9 5 6 4 5 5 6 6 7 6 8 10 13 17 16 15 16 16 18 20 20 18 20 22 24 24 22 19 22 24 23 21 22 19 22 21 22 21 20 20 23 24 21
10 9 6 6 7 6 4 5 5 7 7 7 9 11 14 19 19 17 17 18 16 16 20 18 19 23 23 22 23 22 21 19 21 20 21 20 19 22 20 18 21 23 19 21
5 5 5 5 8 6 6 7 10 9 10 10 14 14 12 15 15 15 16 16 17 18 19 20 21 24 23 22 23 23 22 25 19 20 19 20 19 23 20 17 19 22 23 22
5 3 7 6 5 5 6 9 11 13 14 18 14 10 7 10 12 12 14 17 18 18 21 26 25 24 21 24 21 21 21 23 23 21 19 18 20 18 19 19 17 20 26 24
7 10 12 10 11 11 11 9 11 14 12 12 9 5 2 7 9 11 13 14 15 15 20 31 28 25 21 20 19 18 19 17 15 18 18 17 18 15 14 18 17 20 25 26
7 11 16 16 15 15 13 13 10 11 10 7 5 5 1 1 3 5 10 14 18 22 22 28 32 29 22 19 17 15 11 11 10 12 13 13 12 9 8 9 11 10 11 5
10 11 16 16 16 15 15 11 7 7 7 6 7 7 8 4 3 5 9 8 16 19 21 23 29 32 23 18 13 11 9 7 6 7 8 8 7 6 6 9 12 15 10 13
11 10 14 14 9 10 11 8 6 8 7 7 6 7 10 12 12 11 7 8 12 18 21 24 27 32 28 22 20 16 15 13 10 8 7 8 9 10 15 16 16 18 17 18
5 5 2 1 3 6 5 8 7 11 10 10 10 10 11 11 13 11 12 16 14 13 13 19 23 26 31 28 26 21 19 19 15 13 11 16 16 16 19 25 19 22 21 21
4 4 2 5 5 9 7 7 9 8 10 9 11 10 9 7 11 11 14 18 12 5 7 6 18 20 25 27 28 24 23 21 19 18 17 21 23 22 21 29 27 23 25 25
11 9 10 6 2 2 9 10 7 10 9 7 7 7 7 6 9 16 18 10 2 5 4 3 7 17 17 20 22 26 26 26 26 26 28 26 27 26 25 32 29 28 30 30
11 4 3 5 6 9 10 10 13 12 10 7 2 2 5 1 8 13 8 7 1 2 3 4 6 5 14 13 15 18 21 25 29 30 29 28 28 27 25 23 27 31 30 28
9 9 6 4 12 8 6 9 6 9 5 5 5 3 6 7 6 8 9 7 1 2 3 2 4 8 4 7 9 10 14 22 24 23 25 24 24 25 24 26 27 26 28 23

GFSNGP_925_spd_078.txt.gz
Wind_Speed
9 8 6 4 4 3 1 5 5 17 16 12 11 11 11 11 12 13 14 15 15 14 17 19 21 19 17 16 15 9 10 15 17 18 19 21 24 26 25 22 22 22 23 23
3 3 3 4 4 3 3 3 6 10 14 11 9 9 10 11 12 13 14 14 14 16 18 19 20 19 20 20 17 13 11 14 15 16 17 18 21 25 24 25 24 24 24 25
4 1 2 8 11 9 6 5 6 9 13 9 10 8 8 10 12 13 13 13 14 14 17 18 18 19 20 22 20 17 16 9 13 16 16 17 19 20 21 24 24 25 26 26
4 6 6 7 4 1 7 7 3 9 10 7 7 6 8 9 9 11 11 12 13 16 17 17 17 18 17 17 18 19 22 18 18 12 14 17 19 20 21 21 23 25 26 27
4 9 4 5 5 6 12 10 3 9 8 7 4 6 9 6 8 9 11 12 13 15 15 15 17 18 19 17 17 15 17 18 18 15 17 13 18 20 20 20 21 23 24 25
4 5 6 10 7 2 2 8 7 6 5 3 3 8 11 5 8 9 11 12 14 15 15 15 17 19 19 17 17 17 19 19 19 17 16 15 15 19 22 22 21 21 23 24
7 5 2 5 6 5 7 6 8 6 4 1 3 7 6 7 8 9 10 12 14 14 14 14 16 18 18 18 17 17 18 19 19 20 21 18 15 19 20 21 22 22 23 24
5 6 8 8 6 6 7 7 7 4 3 2 4 6 8 10 10 11 11 12 12 14 15 15 15 17 17 17 18 19 18 19 20 19 18 17 16 17 18 17 14 17 21 23
4 2 4 10 3 6 3 3 3 1 2 1 4 6 7 8 10 11 13 14 14 14 16 17 16 16 19 20 20 21 20 19 19 19 18 17 17 16 17 16 18 17 16 19
2 8 7 8 6 5 3 3 4 4 3 1 4 5 6 6 8 10 11 15 16 15 15 16 17 18 19 22 22 21 21 21 20 20 19 17 16 17 15 15 13 18 16 15
8 7 3 9 9 9 6 6 6 5 2 2 4 5 7 8 8 10 11 13 14 13 12 13 16 18 19 21 21 22 23 20 21 21 18 19 18 16 18 20 17 17 23 19
4 2 8 2 13 11 11 10 7 5 4 2 2 4 5 6 9 11 12 14 14 14 14 15 17 18 19 19 17 18 18 21 21 20 21 20 21 23 21 22 23 23 26 28
5 5 5 3 9 14 11 8 7 5 5 3 2 1 2 3 4 7 10 11 11 12 14 16 17 18 19 20 18 16 18 22 24 24 22 23 23 23 25 26 24 27 24 22
5 4 6 8 6 10 9 8 8 6 5 5 5 4 3 2 4 8 10 11 11 13 14 14 16 17 18 19 20 21 20 21 23 25 26 25 23 24 24 25 26 28 25 24
9 8 13 9 7 11 11 11 9 8 8 7 7 7 4 4 6 7 8 8 9 9 10 13 15 17 18 19 21 23 24 24 24 25 25 25 26 26 26 26 27 29 26 26
8 9 13 10 12 11 11 11 11 9 8 8 7 6 4 4 6 6 7 6 9 9 11 15 17 19 22 22 24 25 26 27 28 27 27 27 26 26 25 24 25 27 27 26
7 8 12 14 11 12 13 14 13 10 8 8 8 7 5 5 6 7 5 5 5 9 12 15 19 20 23 25 25 25 27 27 27 31 29 28 26 25 24 25 26 25 28 27
12 8 14 13 13 14 15 18 16 14 11 10 8 8 7 6 4 2 1 4 6 8 10 15 18 22 24 27 28 26 26 26 26 27 27 26 27 25 25 25 25 25 27 27
9 8 10 12 16 14 14 15 17 17 14 12 11 9 8 6 4 5 3 5 6 8 9 11 17 22 26 28 29 26 25 24 23 24 25 25 27 29 28 26 26 26 26 25
9 9 10 12 13 13 13 13 14 16 15 13 13 11 10 9 7 8 6 7 8 9 10 13 17 21 25 27 27 23 21 22 23 24 25 25 26 25 24 25 25 24 24 23
11 11 12 14 16 17 17 24 22 20 17 15 16 14 11 10 10 9 9 11 5 6 10 11 11 19 22 26 24 23 23 22 22 21 21 21 22 22 22 23 22 20 19 18
10 10 9 12 12 13 16 22 23 21 20 18 18 14 12 12 10 11 11 11 12 10 7 6 8 13 16 20 22 23 22 22 21 20 19 17 16 16 17 16 17 15 13 14
8 10 13 12 12 12 13 16 21 23 19 18 19 15 14 12 12 10 7 3 8 5 6 5 7 8 13 13 19 20 21 23 22 20 18 18 16 11 10 8 8 8 8 7
8 9 10 11 9 5 5 9 11 14 18 15 16 13 13 12 11 11 8 8 6 5 5 6 8 10 9 11 12 15 21 23 25 22 20 20 18 16 14 10 5 3 4 7
9 10 10 7 2 2 4 6 6 6 13 14 15 12 10 9 7 3 8 7 5 6 8 7 12 11 10 10 10 14 14 20 21 24 23 23 24 25 22 21 16 11 9 11
10 9 6 6 2 1 4 4 5 7 3 6 9 9 9 7 8 7 9 5 8 5 9 6 8 9 11 11 10 11 13 8 19 21 23 24 28 28 25 21 20 18 16 15
8 6 6 8 9 3 4 5 10 11 2 2 6 5 2 4 4 6 4 5 6 5 8 9 10 10 12 8 9 8 12 7 9 15 18 20 23 25 25 22 22 20 17 19

GFSNGP_925_spd_081.txt.gz
Wind_Speed
6 6 4 15 14 9 14 15 7 17 19 18 16 14 14 15 13 14 14 15 14 11 14 19 21 20 23 20 19 19 18 17 8 14 16 17 18 21 22 21 22 22 21 22
8 4 5 6 5 5 4 2 6 20 18 17 15 14 13 13 13 13 13 13 14 14 15 16 17 16 18 20 19 16 18 17 16 12 6 14 15 17 19 22 22 23 24 24
9 5 4 9 11 10 8 5 5 13 19 16 15 14 13 13 12 12 12 12 12 12 14 15 15 15 16 13 14 17 16 16 16 15 11 12 10 13 17 19 21 24 26 26
6 2 11 6 5 3 8 7 6 14 16 16 15 13 12 10 10 10 9 10 10 11 11 12 13 14 12 12 7 14 16 18 20 18 15 15 14 14 17 16 19 23 25 27
10 8 2 7 4 6 11 11 5 12 11 12 12 13 10 8 7 8 7 9 9 9 8 8 11 12 12 10 11 12 13 13 15 16 15 15 16 18 15 17 20 21 21 25
7 12 15 15 12 5 1 11 8 9 12 12 11 12 12 7 5 6 7 8 8 9 8 9 11 12 12 12 12 13 14 13 13 13 13 14 15 17 18 18 17 19 21 26
8 6 3 10 7 5 9 5 12 9 8 5 3 10 9 5 4 4 5 7 8 8 8 9 10 12 11 12 12 13 14 13 13 13 13 12 14 14 18 18 18 15 18 22
8 8 10 9 5 6 10 10 9 9 7 5 5 4 3 2 2 2 4 5 7 8 9 10 11 12 13 13 14 16 15 15 14 14 14 14 14 15 14 14 17 15 16 17
4 4 6 4 8 9 7 10 6 6 7 3 2 2 2 3 3 4 5 7 7 9 8 8 10 13 15 15 17 18 18 18 17 16 15 15 16 16 17 14 11 13 14 17
3 9 4 3 5 4 3 4 6 4 6 4 3 2 3 3 4 4 7 8 9 9 9 9 10 12 14 16 18 21 21 20 20 18 17 17 16 16 17 16 16 16 14 17
7 6 2 7 8 7 5 3 5 7 5 3 2 3 4 3 5 7 6 7 8 9 10 11 13 14 15 16 17 19 21 22 21 20 20 19 17 18 17 17 16 16 17 20
4 7 4 3 10 8 8 7 6 6 7 6 3 4 3 4 4 4 6 6 7 8 10 12 13 14 15 17 17 18 20 19 22 23 21 22 22 23 21 22 23 22 23 22
7 6 7 2 3 11 9 9 8 7 5 6 5 6 4 6 4 2 5 6 7 8 9 11 12 13 14 16 16 17 18 20 21 23 25 25 25 24 25 26 25 24 24 22
8 3 5 6 6 8 10 10 7 8 8 6 4 5 5 3 4 2 5 7 5 6 6 8 10 11 13 16 17 18 18 19 21 24 24 26 28 28 28 26 25 26 23 22
10 10 11 8 9 10 12 12 11 9 9 9 8 7 5 4 4 1 4 5 6 5 4 6 8 12 13 15 18 22 22 20 20 23 26 27 30 31 30 29 31 31 29 27
10 9 11 10 11 11 13 12 12 10 11 9 8 9 12 6 3 7 1 3 5 3 4 6 9 11 12 14 18 21 23 22 21 24 26 25 28 32 33 32 31 31 30 28
11 11 9 10 10 12 13 13 13 11 10 9 11 11 13 10 11 8 3 5 5 4 4 4 8 13 14 17 20 22 24 23 23 25 26 26 25 27 30 31 32 31 31 32
7 10 11 12 9 11 8 11 10 14 11 10 11 12 11 12 13 4 6 7 5 8 6 5 5 13 15 19 22 23 22 22 22 24 25 26 27 26 29 32 30 29 33 35
9 11 15 17 20 22 19 19 19 18 14 12 13 14 13 13 14 8 9 9 9 8 5 3 6 10 13 16 20 20 20 21 23 24 26 28 28 27 28 29 29 30 32 32
10 13 17 17 18 20 19 16 15 14 16 17 17 18 16 15 13 12 12 12 9 7 8 7 7 8 11 12 16 17 19 20 21 23 26 27 27 26 26 28 30 29 29 29
9 10 10 11 11 14 14 16 18 14 16 17 19 20 18 14 15 13 13 14 8 9 6 6 6 7 11 13 13 16 17 20 21 22 24 25 25 25 25 25 26 27 28 28
9 4 6 7 10 12 16 18 22 21 24 22 20 22 18 14 16 14 14 12 7 7 7 7 7 4 8 9 10 12 15 19 20 21 21 23 23 23 23 23 23 23 24 26
8 7 10 12 15 15 14 11 11 14 22 27 26 26 19 17 19 17 13 14 10 8 7 9 5 11 11 9 11 10 13 17 19 19 21 22 22 22 22 21 20 21 22 22
10 11 13 14 15 13 10 6 7 10 13 12 25 25 18 18 18 15 10 16 8 6 9 9 8 12 11 13 11 8 10 11 16 19 21 22 22 21 19 16 14 12 13 12
10 10 9 10 10 5 6 6 6 6 4 3 10 14 19 19 10 10 8 5 5 10 15 9 12 12 12 15 13 9 11 10 11 14 22 20 22 19 18 14 11 12 11 10
10 10 8 8 9 6 4 4 6 9 4 4 2 8 8 9 10 6 6 5 9 9 12 4 10 9 12 15 12 10 11 6 7 12 14 19 20 19 18 17 15 14 13 12
7 10 6 5 9 6 4 5 9 8 12 11 4 3 9 10 4 3 2 8 6 5 10 8 10 7 12 13 8 9 11 4 5 7 7 12 16 17 17 15 17 18 18 17

GFSNGP_925_spd_084.txt.gz
Wind_Speed
19 15 20 20 19 7 12 14 15 14 18 17 16 15 13 15 14 17 17 17 16 16 18 18 20 25 23 21 21 22 22 22 18 13 12 13 16 20 19 20 21 20 20 21
5 9 15 23 21 13 14 14 13 8 18 20 17 16 14 13 14 15 16 17 15 16 19 19 20 19 19 17 24 22 24 22 18 15 14 3 8 12 15 16 19 19 21 21
3 1 5 3 5 2 8 4 21 17 10 19 18 15 13 12 13 14 14 14 15 14 18 18 17 14 14 18 19 20 23 18 15 13 12 12 12 5 8 15 18 19 20 22
8 2 7 5 9 4 10 5 12 20 21 18 17 16 14 12 11 12 12 13 12 15 15 16 16 14 11 9 9 16 19 18 19 16 12 11 9 10 10 8 12 18 22 21
6 9 3 5 1 5 6 10 14 19 14 18 19 17 11 11 10 10 10 12 12 11 13 13 13 13 12 12 14 15 15 13 14 19 17 14 12 12 14 13 12 13 17 21
9 8 14 14 13 10 4 8 11 14 15 16 17 9 10 11 10 9 10 10 8 8 10 11 10 11 10 11 13 14 15 15 13 13 12 11 12 12 11 14 15 16 16 19
10 7 3 5 4 4 7 3 14 13 12 11 8 10 14 11 9 8 6 8 4 6 7 8 9 10 10 10 11 12 13 14 14 12 12 11 11 14 15 13 13 15 17 19
7 7 5 8 2 2 6 8 9 9 10 16 13 11 9 7 7 4 5 5 5 5 6 6 9 10 9 11 13 14 14 14 15 16 13 13 13 14 16 16 15 15 14 15
6 6 8 11 12 9 10 9 9 9 7 8 7 6 6 5 4 6 7 6 7 6 7 11 11 10 10 12 13 14 15 18 17 15 17 16 14 19 18 16 15 13 11 9
3 9 8 7 7 6 6 9 6 7 8 5 6 6 7 6 6 7 8 7 5 5 6 7 10 10 11 13 16 17 18 17 18 22 18 19 18 17 13 15 15 14 13 14
6 3 6 5 4 6 4 3 7 6 6 5 5 6 7 6 7 7 5 5 3 3 3 5 8 10 11 13 15 16 18 20 20 18 22 23 18 16 15 16 17 18 15 17
4 5 7 3 11 10 9 6 6 9 6 5 4 7 5 8 6 5 5 4 4 2 4 5 6 7 10 12 13 15 16 17 19 22 22 21 22 24 23 24 22 21 24 25
6 8 5 5 1 4 9 9 9 9 11 10 8 9 8 10 6 4 4 4 4 4 5 5 7 7 9 11 13 14 15 16 18 19 20 22 21 21 23 26 27 28 28 27
8 9 7 7 5 7 10 11 8 10 10 10 11 11 10 11 10 6 3 2 3 3 4 5 6 8 9 10 11 15 16 17 16 17 19 21 21 24 27 27 27 26 23 25
9 5 10 1 4 3 11 12 10 9 11 12 11 9 8 9 10 4 2 2 2 2 2 3 4 6 9 10 12 14 15 15 17 19 19 20 21 23 23 25 27 29 29 26
10 10 7 10 7 5 7 10 12 13 13 15 15 16 11 7 8 7 5 3 3 3 4 0 4 5 9 10 13 16 18 18 18 18 19 20 21 22 23 25 26 28 28 28
10 9 9 9 9 11 8 9 8 13 15 15 15 16 16 15 9 8 11 8 6 4 3 5 1 5 8 11 11 17 17 18 19 19 20 20 20 22 23 25 27 27 31 32
6 6 7 7 9 10 9 4 4 13 8 10 10 19 18 17 15 12 17 8 8 8 11 10 6 3 5 7 7 13 14 16 17 18 20 22 23 25 25 25 27 28 33 32
3 6 6 7 7 10 11 9 8 10 16 12 14 13 21 21 20 14 13 11 11 11 13 15 11 3 7 1 8 9 11 13 15 17 18 20 23 25 25 25 27 29 30 32
7 11 11 13 13 12 14 19 24 22 19 21 20 17 14 18 22 20 16 13 13 11 11 13 10 6 7 2 7 7 10 13 16 17 19 21 21 24 26 28 29 30 30 30
11 10 7 6 9 15 23 22 14 18 25 29 29 18 19 18 20 22 18 16 19 18 14 13 11 7 7 6 9 11 9 12 15 15 20 22 23 24 25 26 28 30 31 31
15 6 2 10 9 10 12 14 18 20 18 13 19 25 25 20 18 20 23 20 12 16 13 18 16 12 12 11 10 11 11 10 13 13 16 20 22 24 26 27 27 29 30 31
4 5 8 11 12 12 13 13 13 12 20 20 23 21 20 19 22 16 17 22 17 22 14 12 12 18 16 9 10 14 12 10 13 13 13 18 22 22 25 26 28 28 28 28
10 10 7 10 14 15 15 16 10 12 12 13 16 15 19 21 23 22 19 12 21 19 14 10 10 12 12 11 15 11 11 13 12 11 12 15 18 22 23 24 26 26 26 24
7 14 8 10 10 11 11 8 6 9 10 8 11 10 6 14 8 9 13 16 12 13 13 14 16 15 14 15 18 14 11 11 12 9 11 10 16 17 20 20 23 23 21 19
8 11 8 7 9 8 7 7 7 8 7 5 9 7 13 15 9 11 15 15 23 13 8 10 10 14 13 19 15 10 11 5 7 8 9 9 9 14 17 21 20 19 18 17
5 12 9 4 8 10 6 4 7 5 7 14 13 11 9 3 6 5 7 12 7 4 8 3 12 13 10 10 12 7 8 9 6 7 8 9 9 12 18 20 17 17 15 15

GFSNGP_925_spd_087.txt.gz
Wind_Speed
11 10 13 16 8 11 5 6 5 10 13 15 17 16 15 12 11 11 10 10 9 10 12 15 18 15 16 19 23 19 10 6 2 1 10 15 23 18 21 20 21 20 19 20
7 11 13 13 13 15 3 12 11 13 14 17 17 18 16 15 13 12 12 11 11 12 16 16 14 13 14 18 21 18 17 12 10 7 5 3 4 3 9 16 18 18 20 21
5 8 10 5 4 5 9 14 19 11 10 21 18 18 15 13 11 10 11 8 9 11 16 19 17 18 18 19 18 24 21 15 7 9 6 4 8 4 1 3 8 11 14 17
5 8 4 3 9 9 7 17 21 22 18 10 15 15 15 12 10 9 8 8 8 16 18 18 18 14 14 19 23 27 18 15 17 16 11 9 8 8 8 5 4 6 11 13
2 3 4 15 14 10 5 9 19 20 20 22 17 18 12 11 10 9 8 13 15 19 18 21 19 21 24 24 23 22 19 18 16 16 15 15 14 11 10 10 9 9 7 10
1 2 3 2 9 14 5 6 16 17 23 21 16 9 5 9 10 13 18 12 14 19 18 18 18 17 21 21 21 20 19 18 17 16 14 15 12 15 15 14 12 13 13 10
1 2 3 4 8 10 6 3 8 18 17 14 6 7 10 10 12 18 18 9 12 18 18 18 16 17 20 21 21 17 15 15 15 14 15 15 15 14 16 16 15 16 14 13
3 2 2 9 8 5 2 7 15 18 19 16 14 14 12 10 9 15 15 15 15 19 23 20 17 16 19 20 16 15 14 14 15 15 15 16 16 16 19 19 19 20 17 13
3 3 2 8 8 7 8 7 10 10 9 12 11 9 10 8 9 18 20 18 15 18 20 19 18 17 17 16 16 15 14 15 16 16 15 20 19 18 19 18 16 15 16 14
4 2 7 7 7 7 7 7 8 9 8 8 9 9 8 8 11 17 18 14 12 13 14 15 14 13 14 16 15 15 15 16 19 19 19 19 20 21 21 23 22 22 20 20
2 4 6 6 6 6 7 6 7 7 8 8 8 8 9 9 15 17 14 12 9 8 12 12 9 10 11 13 15 15 15 16 18 19 20 20 21 20 21 22 23 26 26 24
2 4 3 1 8 9 6 2 5 6 7 10 10 9 17 14 14 15 12 9 9 9 10 8 10 10 10 10 12 13 15 16 18 19 19 20 22 26 22 20 20 20 19 25
3 7 6 6 5 6 8 8 5 8 10 7 9 14 18 17 13 11 11 10 9 9 8 6 6 6 6 6 10 12 13 16 17 18 20 21 22 22 24 34 28 25 24 27
5 6 5 7 3 3 7 13 10 7 14 18 14 16 17 20 16 12 10 9 11 11 8 6 4 3 3 5 7 10 12 13 15 18 18 20 22 23 23 22 25 27 26 27
2 2 3 3 5 7 3 12 8 6 7 9 17 19 16 21 19 17 15 11 11 10 9 6 5 4 2 5 7 12 13 14 15 16 16 17 17 18 19 22 24 26 28 27
5 5 4 4 5 3 2 4 7 8 7 13 16 19 14 26 23 17 14 15 13 15 13 8 6 6 3 4 5 9 11 12 15 15 17 18 19 19 19 19 21 23 25 27
3 5 6 5 5 5 6 4 3 8 15 13 18 23 26 25 22 22 19 18 15 13 9 10 8 5 1 1 1 7 7 10 12 14 16 17 17 18 21 21 21 22 25 26
7 3 4 4 3 4 5 8 6 11 3 7 14 25 23 21 19 24 24 22 22 19 15 14 11 9 3 4 3 3 3 6 8 11 13 16 18 18 18 20 21 23 26 28
12 8 8 5 5 5 6 5 7 13 11 8 11 16 27 26 28 24 24 23 26 23 20 17 16 16 7 9 6 1 2 3 7 11 12 16 19 19 19 20 21 23 25 27
7 6 9 3 8 9 7 12 12 10 14 14 16 18 15 21 26 26 24 28 28 25 20 20 21 20 15 12 11 5 9 5 3 8 14 15 18 20 20 22 24 24 25 26
9 11 3 4 8 9 11 14 11 15 14 10 12 15 21 16 29 30 25 19 26 22 21 21 22 22 18 17 15 8 11 10 8 11 13 15 19 21 21 22 24 25 26 28
3 4 8 8 6 6 6 9 12 15 15 15 15 14 18 24 21 26 29 27 28 27 26 26 24 22 18 18 17 10 12 14 15 10 11 15 18 21 22 22 24 24 27 28
10 8 5 5 9 11 12 14 13 10 10 15 17 16 24 23 20 17 16 26 15 20 30 25 23 25 23 21 19 16 13 14 14 12 12 13 16 18 20 21 23 24 27 28
7 9 9 12 11 10 10 12 11 8 8 8 7 10 13 20 23 21 20 18 19 16 18 19 13 18 26 22 21 18 14 14 18 16 15 14 14 15 17 18 20 23 27 28
9 7 12 12 11 9 8 7 8 11 12 6 8 10 14 15 17 16 16 14 14 16 16 10 14 15 18 19 19 20 17 19 16 15 14 15 16 16 16 16 17 21 24 24
6 10 11 8 8 11 8 8 9 10 10 5 10 14 14 11 15 17 15 12 11 15 23 23 16 22 19 17 20 22 18 14 12 12 13 16 18 19 17 14 15 16 19 21
8 13 10 6 9 8 4 1 6 6 6 10 12 7 11 11 6 5 7 11 15 14 22 20 17 13 17 19 15 10 5 7 9 8 12 17 20 21 19 15 14 17 16 19

GFSNGP_925_spd_093.txt.gz
Wind_Speed
4 5 2 6 8 7 6 5 6 10 13 17 12 13 10 10 9 8 8 7 5 6 8 12 12 13 17 16 15 12 9 2 6 7 8 7 8 13 18 17 19 21 21 22
3 7 7 3 7 10 4 8 8 12 5 6 8 11 11 9 9 10 8 8 6 6 9 12 12 15 14 14 11 9 11 7 2 3 8 13 15 10 3 7 15 19 19 20
3 7 6 4 9 6 4 1 16 9 7 11 13 13 12 11 9 12 11 9 8 7 8 12 14 18 20 17 13 11 11 7 4 3 2 8 12 12 12 13 13 8 7 14
1 5 3 4 5 6 4 7 6 13 15 14 13 10 10 11 14 12 12 10 9 12 16 19 21 24 25 24 23 21 18 14 10 6 3 5 7 10 12 12 14 15 12 9
4 1 5 5 6 4 5 6 6 16 17 14 15 17 9 10 11 14 11 16 18 21 22 23 25 25 26 26 25 23 21 18 16 14 13 10 8 5 9 11 7 10 9 8
3 3 2 5 8 12 1 2 3 15 17 21 18 9 6 10 12 15 19 21 24 26 28 27 22 22 23 22 21 20 16 15 14 13 12 10 8 4 7 8 8 5 8 10
7 3 5 10 6 7 0 5 3 5 12 14 4 3 9 9 13 21 22 25 29 28 27 22 19 17 21 18 17 13 10 10 10 11 11 11 10 10 9 11 17 22 19 17
1 3 3 7 8 5 4 1 7 5 4 5 10 14 9 10 13 20 21 20 27 27 23 19 16 14 16 15 10 7 7 9 10 11 12 12 12 13 12 12 14 16 14 15
3 4 4 5 3 4 1 6 5 8 6 10 14 10 10 10 12 19 21 21 25 28 23 17 15 11 13 10 7 8 8 10 11 10 11 12 13 13 14 14 15 15 16 16
4 4 4 3 5 7 8 7 7 9 11 11 13 10 10 9 12 15 18 22 23 22 21 17 14 12 12 9 7 10 13 13 13 14 13 12 12 13 13 15 15 15 15 15
3 4 5 7 5 4 7 7 10 6 9 11 12 10 10 8 13 17 22 24 22 22 19 17 13 13 11 11 11 12 13 13 12 13 14 14 14 14 14 15 14 14 14 13
3 3 4 4 4 3 7 6 8 11 7 7 12 9 13 11 17 21 22 21 19 19 20 16 13 12 11 10 11 13 13 12 12 12 13 14 14 12 13 11 10 12 13 13
2 3 1 3 6 5 2 7 5 9 12 9 10 19 16 14 20 20 18 17 15 14 14 13 11 11 10 10 8 11 13 12 11 11 12 14 15 17 17 15 14 17 17 16
0 3 3 5 3 4 4 3 12 13 17 21 22 20 23 19 18 19 19 18 16 16 15 13 11 10 11 9 10 11 12 11 13 13 14 15 16 17 17 20 21 23 20 19
4 4 2 2 1 3 6 2 4 5 11 14 24 25 26 22 22 23 20 20 21 20 17 16 13 13 11 9 8 12 11 13 14 14 15 15 15 17 18 19 19 20 23 24
2 3 4 1 2 4 2 2 4 6 6 14 18 21 30 31 29 27 25 24 25 24 21 18 17 15 12 12 9 10 9 10 10 11 11 12 14 16 17 18 19 20 21 21
2 3 1 3 2 3 2 1 3 6 12 15 23 28 24 27 25 27 30 30 27 21 20 20 20 16 15 15 12 10 8 6 6 6 7 10 12 13 15 17 18 20 20 20
8 5 6 5 4 3 3 3 5 8 6 13 20 22 19 20 23 31 33 30 26 22 21 21 21 20 19 16 14 11 8 6 5 3 4 5 8 11 13 16 18 20 22 23
13 11 10 11 11 8 6 6 6 5 6 7 11 19 29 30 31 26 24 28 28 27 29 26 25 24 23 18 15 15 13 10 8 6 3 2 5 8 11 13 16 18 19 21
6 11 11 11 9 8 6 7 7 9 10 8 11 10 14 21 24 24 23 25 35 36 28 29 29 30 29 25 21 19 18 16 14 12 10 10 9 9 9 11 13 16 18 19
5 5 5 6 3 1 3 6 8 9 11 11 11 12 17 21 24 20 19 20 27 31 27 30 33 34 32 30 27 25 24 23 21 19 18 17 16 14 12 12 13 14 16 17
5 5 6 5 5 3 3 4 5 8 9 8 8 9 12 16 20 22 26 25 18 22 31 33 37 37 35 33 34 32 28 26 26 24 24 23 21 19 16 14 14 14 14 16
8 6 4 5 3 2 1 5 7 6 7 7 7 7 10 15 16 15 12 23 25 24 30 34 40 40 39 37 35 34 32 30 29 26 24 24 25 24 20 19 17 16 16 16
8 8 7 3 3 0 2 4 4 4 6 6 7 7 8 11 15 17 21 23 23 24 30 38 40 36 40 36 37 36 33 30 30 28 24 22 24 24 22 22 21 20 18 19
13 11 7 5 3 1 1 4 4 5 5 4 6 9 10 9 12 18 19 22 23 23 23 25 31 31 32 29 33 34 31 28 26 27 26 25 24 24 25 24 23 23 22 23
15 11 8 4 7 8 4 3 3 4 5 5 6 6 8 9 12 9 5 8 12 16 23 21 22 26 27 25 19 15 20 29 26 25 24 25 27 27 26 25 24 23 23 25
14 11 10 7 9 9 7 5 4 4 2 2 4 7 7 8 13 13 14 11 5 2 9 19 17 14 18 24 22 20 21 21 23 23 24 24 23 23 24 24 24 24 24 25

GFSNGP_925_spd_096.txt.gz
Wind_Speed
4 3 2 3 5 7 5 5 6 7 9 12 15 11 11 12 11 9 6 5 6 7 11 14 17 19 21 19 19 21 16 10 15 17 15 8 3 1 2 4 6 9 13 15
3 2 3 3 9 11 2 3 2 6 1 5 11 10 10 11 11 10 9 7 7 7 12 13 16 15 17 18 18 17 14 11 11 10 11 13 15 14 10 6 6 6 5 8
3 4 2 3 8 4 6 4 4 5 6 12 15 11 9 9 9 9 9 8 8 8 12 14 15 17 17 17 14 12 13 12 9 7 7 7 8 8 10 11 11 13 13 12
0 4 3 4 2 0 4 5 2 4 13 13 13 10 11 9 10 11 10 10 9 14 18 22 24 26 26 25 23 21 18 16 13 10 7 4 3 3 6 6 8 11 12 11
3 1 5 2 5 4 3 5 1 10 17 16 18 16 10 10 8 7 11 15 18 22 24 27 27 27 29 27 24 22 19 19 17 14 12 8 5 1 1 4 3 5 10 10
2 4 3 4 2 3 4 4 3 4 11 20 15 7 5 12 13 12 14 18 22 24 26 30 24 27 28 25 23 20 16 15 13 13 12 12 9 9 9 8 6 9 16 16
2 1 5 4 9 3 1 4 2 7 6 10 3 2 7 13 12 14 16 20 22 25 24 21 21 22 23 20 19 15 13 12 12 12 14 14 14 16 15 17 23 19 17 15
2 2 4 11 6 3 2 2 5 8 4 7 8 13 10 11 10 15 18 19 24 26 22 17 15 17 18 17 12 10 10 10 10 11 12 12 13 16 15 16 18 16 14 14
4 4 4 3 5 4 4 2 3 7 6 11 12 10 12 10 9 11 13 18 22 25 20 16 13 10 13 12 9 9 10 12 12 12 11 11 11 12 13 13 14 13 12 11
2 2 4 5 4 4 5 3 7 8 9 12 13 9 11 8 10 13 16 18 21 21 19 16 12 12 13 11 10 10 12 14 13 12 11 12 12 11 12 12 11 11 11 11
2 4 3 6 6 4 6 9 12 8 8 8 13 9 9 8 11 12 16 19 19 18 16 13 11 10 11 12 11 15 14 13 13 13 12 13 13 13 13 14 12 11 12 10
4 3 2 4 5 6 3 5 6 9 7 8 13 12 12 11 14 17 21 20 18 18 19 17 13 11 11 10 10 13 14 13 13 14 14 13 13 15 15 13 11 13 12 12
2 2 2 0 3 5 3 3 4 6 11 11 13 16 18 11 17 21 21 18 15 13 11 13 13 12 11 11 11 10 12 12 13 14 15 15 15 15 16 11 14 14 12 13
1 1 4 4 2 7 7 4 5 2 10 16 20 18 18 17 18 22 23 22 20 21 20 17 15 15 13 12 14 13 13 13 13 15 16 16 16 15 14 14 13 14 14 16
1 3 2 1 3 5 6 4 1 1 1 8 16 20 23 20 20 25 22 21 21 21 20 19 17 17 15 15 15 15 16 17 16 16 15 15 14 14 14 14 14 14 14 16
3 4 5 4 3 3 3 4 2 4 3 5 12 20 27 29 27 25 22 21 22 22 21 21 19 20 19 16 16 16 17 16 15 15 14 12 12 13 13 14 14 15 15 15
4 0 1 2 2 3 2 2 2 2 6 9 16 16 15 22 20 21 23 24 25 22 22 21 20 22 20 19 18 18 17 16 14 14 13 11 10 10 11 12 13 13 13 13
5 3 6 5 4 3 2 1 3 4 3 6 17 18 15 16 21 28 30 29 26 23 23 23 21 24 23 23 21 20 18 17 16 14 12 10 8 7 6 6 7 9 10 12
9 9 8 9 9 5 3 4 4 5 6 5 5 16 23 26 26 30 27 23 25 24 29 25 24 28 26 25 24 23 20 19 17 15 12 9 7 4 1 2 4 7 9 11
6 7 8 11 8 7 6 5 5 6 8 9 8 7 10 18 22 21 24 28 35 35 27 25 27 31 31 28 26 25 24 22 20 17 15 12 9 6 5 5 6 7 9 11
5 5 3 5 6 5 2 1 3 5 7 8 7 9 11 14 15 21 21 18 33 27 30 26 30 34 33 33 30 29 28 27 24 21 17 15 13 12 11 10 10 10 10 11
7 7 7 7 7 6 3 2 3 5 7 8 7 7 8 10 12 14 23 23 29 25 30 32 35 31 36 35 36 34 31 29 27 24 22 19 17 17 17 15 15 14 13 13
11 10 8 7 5 2 1 3 5 4 4 5 6 7 8 10 10 11 12 22 25 23 25 28 32 30 31 30 33 38 38 34 31 28 25 22 21 20 20 20 19 18 17 16
12 9 7 6 4 2 1 2 3 4 5 4 4 5 7 10 13 14 16 19 21 21 22 28 31 29 31 31 33 35 38 40 36 32 28 26 24 23 22 21 21 21 20 19
12 12 10 8 5 3 3 3 3 4 5 4 2 4 7 9 12 18 18 17 19 20 22 25 27 28 29 30 30 36 38 38 37 34 30 27 27 26 24 22 21 22 22 22
16 15 11 8 9 9 6 6 5 4 3 3 3 6 8 11 13 17 15 9 7 9 13 17 21 19 22 27 32 37 40 38 28 26 27 25 25 26 25 24 23 22 23 24
14 13 12 10 13 11 8 7 5 3 4 2 2 4 4 7 10 11 15 16 16 12 7 9 10 13 20 21 23 22 18 8 9 17 16 23 26 25 23 22 20 20 21 22

GFSNGP_925_spd_102.txt.gz
Wind_Speed
8 6 3 8 7 11 14 18 17 14 15 12 10 10 10 9 10 10 12 13 13 12 14 15 17 20 19 21 23 18 10 10 8 6 7 10 11 12 12 12 13 13 11 10
10 3 6 9 9 8 11 14 15 16 13 5 7 10 11 10 10 10 10 11 12 12 15 17 20 22 21 23 20 14 11 10 11 8 4 6 7 8 8 8 8 8 7 6
14 8 9 12 14 7 5 7 10 15 7 3 8 9 10 10 9 8 8 7 8 11 14 16 18 20 21 20 19 15 14 14 17 15 14 14 11 8 7 7 7 6 5 5
11 3 14 4 4 1 7 6 6 10 6 7 7 6 7 8 9 7 7 8 7 9 8 8 9 12 17 21 17 17 17 19 15 15 17 14 12 12 9 8 7 7 7 8
4 12 5 7 6 6 6 2 5 8 2 4 9 11 5 7 6 7 7 9 9 9 9 12 15 17 22 23 23 21 20 16 13 15 15 15 14 10 8 7 6 9 7 7
4 5 10 12 7 7 4 6 12 5 5 11 12 8 6 4 11 10 11 11 12 12 14 14 16 19 24 20 20 17 13 13 13 9 8 9 8 9 10 8 14 15 10 9
6 5 3 8 10 5 7 6 11 8 5 9 9 4 15 10 11 12 13 15 15 18 20 19 19 21 22 19 18 15 14 11 10 10 7 7 7 7 9 14 16 12 12 11
4 5 5 14 3 6 6 6 8 6 4 6 4 10 14 12 12 15 17 17 16 19 20 18 17 18 17 15 12 12 11 11 10 9 8 8 10 10 12 16 14 12 11 9
4 3 4 6 6 6 6 3 5 4 4 7 10 12 14 12 12 15 16 16 17 18 18 18 15 10 11 9 9 9 9 9 9 9 9 9 10 11 11 9 10 10 8 7
6 5 6 8 9 11 7 2 6 7 9 2 14 9 12 13 12 15 15 14 14 15 15 15 12 11 9 6 6 6 8 8 8 8 9 8 7 6 6 6 6 7 6 5
5 6 5 8 10 9 10 7 10 8 9 10 13 10 8 8 12 15 15 12 12 12 13 12 9 9 6 5 5 6 6 6 7 8 8 9 9 7 5 4 4 4 3 2
2 6 2 6 6 7 7 8 8 11 13 13 19 11 7 8 7 11 11 11 10 11 9 9 8 6 5 4 3 3 3 3 3 6 7 8 10 11 11 10 6 6 8 7
4 5 6 7 6 5 6 5 4 7 13 13 16 21 20 13 7 8 9 9 6 5 6 6 5 5 3 3 3 2 0 1 2 3 5 7 8 8 9 8 8 7 8 7
7 8 6 4 4 5 5 6 4 7 12 16 18 15 16 16 14 13 11 12 11 9 7 5 4 4 4 4 3 3 3 5 4 5 6 7 7 7 9 9 8 6 8 8
6 2 6 6 4 3 3 4 5 5 7 10 14 16 14 16 17 17 11 11 11 10 10 9 6 6 7 7 5 4 4 5 5 5 6 7 8 8 7 7 7 8 7 5
9 7 6 4 4 3 3 3 3 4 4 5 8 11 13 12 11 12 16 17 18 17 13 11 9 9 9 7 6 6 6 7 9 9 9 9 8 8 8 7 7 7 5 3
10 8 6 6 5 5 4 3 2 2 2 3 3 5 9 10 11 13 16 18 17 13 14 14 14 14 14 15 15 13 13 12 12 10 10 9 9 8 8 7 6 6 6 3
5 4 5 5 5 6 6 7 6 5 4 2 1 2 5 8 11 12 14 14 15 15 15 15 15 14 15 15 14 13 13 13 14 12 12 11 9 7 7 7 6 7 7 5
9 8 7 6 5 4 4 4 3 3 2 0 1 2 3 5 6 7 10 14 16 17 19 19 20 22 18 17 17 15 15 15 15 14 11 9 10 10 8 8 7 6 5 6
12 11 9 8 7 8 7 6 4 4 2 3 4 5 5 5 5 6 6 11 15 17 15 18 21 23 22 22 25 19 17 17 17 16 15 15 14 13 11 9 7 7 6 5
14 12 11 10 8 8 8 8 7 5 2 3 5 5 6 5 5 6 9 12 12 12 13 15 19 21 21 24 27 23 20 19 20 20 19 19 16 16 14 13 11 9 8 8
16 12 11 9 8 7 7 7 5 5 3 4 4 5 5 6 7 8 8 9 11 6 9 11 15 19 19 24 24 26 28 25 24 22 22 21 21 18 17 15 14 13 11 11
15 13 11 9 8 9 8 6 5 4 4 3 2 1 2 4 5 7 7 6 10 11 10 10 11 13 18 22 23 25 27 28 26 25 24 23 22 21 20 19 17 15 13 12
16 14 11 9 9 9 8 5 3 2 3 3 5 4 2 3 3 6 6 8 10 12 12 13 13 13 15 18 21 23 26 29 29 22 20 22 24 24 22 20 19 17 16 14
17 15 14 13 11 10 7 7 8 9 10 7 6 5 4 6 6 6 7 10 12 10 9 9 11 15 18 19 23 26 27 26 33 31 31 25 26 27 23 23 22 20 18 16
19 16 14 13 10 9 10 13 11 9 8 9 6 5 4 3 3 1 3 4 7 9 11 14 11 7 11 16 20 25 28 27 27 34 35 36 35 26 22 23 19 19 19 18
18 16 15 12 11 13 14 11 10 9 7 6 6 6 5 3 1 4 4 4 5 5 7 10 12 14 11 7 7 14 18 24 28 30 33 34 33 34 27 25 25 21 17 17

GFSNGP_925_spd_105.txt.gz
Wind_Speed
1 7 11 10 13 15 14 17 15 10 10 5 16 13 12 11 7 7 8 13 14 13 19 25 24 25 21 18 17 24 17 11 12 11 13 13 10 11 12 13 13 13 12 11
12 8 10 13 8 9 8 13 14 18 18 12 16 12 13 12 10 9 10 10 10 11 16 20 23 22 19 18 17 18 20 15 15 14 9 11 11 11 12 12 13 13 13 12
13 11 10 13 14 10 13 14 14 15 16 13 6 7 8 12 8 8 10 11 14 12 14 15 18 19 21 20 19 18 17 15 13 12 11 8 6 8 8 7 8 8 7 5
13 7 10 4 7 11 4 11 8 16 3 7 10 10 8 6 8 8 6 7 9 10 11 9 9 16 19 21 21 18 16 15 13 12 11 10 14 12 9 10 5 6 7 6
10 12 8 13 4 1 3 1 17 17 14 4 10 7 8 6 4 9 9 9 9 8 8 8 7 5 12 15 14 14 14 14 12 10 11 13 11 9 9 9 6 7 9 6
4 7 16 7 12 11 6 9 8 6 12 6 3 6 5 9 9 10 10 10 11 12 12 11 10 11 14 14 14 15 16 14 12 9 11 11 12 10 6 6 9 14 9 4
5 4 2 8 11 11 14 4 9 9 6 5 4 5 6 14 13 13 14 14 15 18 20 16 15 17 21 21 18 16 13 13 13 11 9 8 7 5 10 11 16 14 8 6
5 4 8 11 4 5 6 5 8 7 3 3 3 8 12 12 11 13 17 18 18 21 21 20 21 25 21 21 16 16 15 13 12 10 7 7 8 7 8 12 10 10 9 7
5 2 4 8 8 6 5 2 7 7 5 4 4 9 10 10 10 14 19 19 19 19 20 19 19 18 21 15 14 14 12 10 10 9 8 7 8 9 9 9 9 9 9 8
1 4 8 7 7 8 6 6 8 9 11 10 15 12 11 7 11 14 16 17 17 17 17 16 16 15 16 13 11 11 8 7 7 7 7 6 7 8 8 7 7 7 6 5
3 5 6 6 7 8 9 7 9 11 17 17 18 13 11 9 12 11 9 11 11 12 14 15 13 11 11 13 10 8 6 5 4 6 5 5 9 7 6 3 4 7 3 0
5 9 5 6 5 5 7 9 8 10 12 16 20 15 13 11 13 13 11 10 10 10 10 10 11 10 9 10 9 9 6 6 5 7 7 6 5 4 3 3 2 1 4 4
4 4 5 7 5 5 6 6 11 12 15 14 14 16 17 19 16 14 9 8 6 4 6 9 10 8 5 5 7 5 5 5 3 2 5 6 6 5 4 4 5 3 4 4
7 8 7 8 6 5 6 7 4 14 15 13 12 11 15 13 14 12 15 14 9 5 4 3 3 3 5 4 3 2 2 4 3 3 4 5 5 6 5 5 4 3 2 4
8 6 3 7 5 5 6 8 6 7 10 11 12 13 12 14 13 14 15 13 13 13 10 9 6 6 3 4 5 1 0 1 2 3 2 2 5 5 6 5 4 8 4 3
8 6 5 7 6 5 5 5 8 8 7 9 12 14 14 15 15 16 16 16 17 16 14 11 10 10 10 8 6 5 3 4 5 5 3 5 4 5 5 5 6 6 6 4
9 7 6 5 5 5 6 5 6 3 5 5 7 6 10 10 10 12 14 18 16 14 13 14 13 11 11 10 8 7 7 6 8 6 6 7 6 7 8 8 8 8 9 5
7 5 6 5 5 5 4 3 2 2 3 2 1 5 8 10 10 12 12 13 14 15 17 16 14 13 13 12 12 11 9 9 8 10 9 9 9 10 8 8 9 8 7 3
7 6 6 6 6 5 7 7 6 4 3 3 4 5 4 7 8 10 11 13 16 18 17 16 18 18 17 17 17 14 14 13 13 13 13 12 11 12 12 13 11 10 9 10
9 9 8 8 6 6 5 5 5 4 5 3 5 5 6 7 7 6 6 10 14 15 16 16 19 19 20 19 22 16 15 15 15 14 14 14 15 15 16 13 11 11 11 10
12 12 10 9 8 8 7 7 8 8 6 0 5 5 5 5 6 7 9 14 8 8 9 10 10 18 20 20 21 20 17 17 18 18 18 18 18 18 18 17 16 15 14 12
15 13 13 12 10 8 7 7 8 5 2 5 6 6 6 7 6 7 8 10 4 3 2 8 8 14 19 19 18 21 21 20 21 19 17 17 19 21 21 19 19 17 16 14
16 15 13 10 9 9 7 9 7 7 7 7 6 4 4 6 5 5 4 8 7 10 9 11 12 11 9 18 19 22 24 23 22 20 18 22 23 22 22 22 21 19 18 16
17 16 14 12 10 9 10 9 8 7 6 5 5 4 3 6 8 4 3 4 7 7 6 8 10 12 13 14 18 21 22 19 21 24 26 23 21 16 20 23 23 22 20 17
16 16 15 13 12 11 11 11 9 7 9 9 7 6 4 1 4 5 3 8 8 4 5 10 11 10 10 16 21 20 22 24 24 26 25 26 25 23 21 24 24 18 18 15
11 10 12 13 12 13 13 11 13 12 13 11 11 9 6 6 7 6 7 1 4 5 4 7 9 13 9 9 13 15 17 18 21 24 25 23 27 33 31 29 24 20 20 24
20 18 12 11 10 9 11 14 13 12 9 10 10 9 8 6 3 5 3 3 3 3 3 5 5 5 8 12 9 6 5 10 18 24 26 29 29 33 33 32 31 27 25 20

GFSNGP_925_spd_108.txt.gz
Wind_Speed
6 7 12 15 11 15 18 15 13 9 13 18 13 12 11 10 17 18 15 16 13 13 13 20 24 27 14 16 13 16 25 26 21 13 13 11 12 13 12 10 13 12 10 9
8 8 13 11 5 16 9 16 12 12 3 15 11 12 8 5 13 13 13 14 13 13 14 22 24 21 22 19 13 9 10 10 12 12 16 12 10 10 10 9 8 8 10 10
12 6 9 10 12 10 10 8 7 10 14 8 7 12 12 3 3 9 10 7 9 10 12 18 22 21 22 20 17 16 12 12 12 13 15 14 11 9 8 7 8 6 5 4
7 3 5 4 16 21 7 9 12 16 15 22 14 11 20 7 6 11 13 12 12 11 11 8 14 17 17 18 18 16 15 13 11 11 10 6 6 4 7 9 7 6 10 9
9 10 11 7 7 10 16 7 13 13 12 11 17 9 13 12 13 12 13 14 14 15 12 12 12 8 11 15 17 17 14 13 10 8 7 6 6 6 6 10 8 11 9 6
6 12 5 4 6 11 13 2 15 14 12 13 8 6 5 12 12 12 15 15 12 12 12 13 11 15 17 15 12 8 8 12 12 12 10 8 8 8 7 10 15 12 8 2
5 6 9 7 12 9 3 5 15 10 10 11 10 8 6 12 14 18 14 12 14 17 18 15 13 15 19 16 17 12 15 15 13 10 9 8 6 6 5 9 12 11 6 2
4 5 10 5 6 7 2 1 6 5 11 7 9 11 12 10 12 15 13 13 14 18 19 19 18 22 23 21 17 16 14 12 14 12 13 11 10 10 11 13 12 9 7 6
2 1 6 10 12 6 3 5 10 11 14 15 14 12 12 11 11 13 13 14 15 19 20 22 20 21 24 17 17 18 18 17 14 14 14 11 10 8 9 12 10 10 11 10
10 6 10 10 7 7 11 15 13 16 14 14 13 11 11 9 10 13 13 13 14 16 19 18 18 17 15 14 14 14 15 14 14 11 14 10 12 6 9 5 5 8 12 12
4 17 16 5 6 6 11 13 14 17 13 12 15 13 13 10 11 11 9 10 15 16 19 16 15 14 12 10 9 11 9 9 11 10 8 10 14 12 8 8 8 7 11 9
2 3 4 7 3 5 14 12 10 12 10 13 15 14 21 14 16 15 14 11 14 12 13 12 12 12 11 10 8 6 4 1 5 8 7 7 6 6 7 6 4 4 5 3
4 9 11 7 4 6 6 13 13 11 14 12 15 14 14 14 14 24 19 13 10 11 11 9 9 9 8 6 7 8 6 6 3 6 9 9 7 4 1 3 3 2 3 5
6 6 5 6 6 7 6 8 16 18 18 17 12 11 13 12 11 11 13 12 8 9 6 1 6 7 6 6 5 5 4 3 3 5 4 2 7 7 7 5 5 2 1 3
5 7 5 8 6 5 8 6 6 13 13 12 14 14 14 16 17 15 14 16 17 11 9 9 5 3 6 2 5 4 0 3 2 2 2 2 2 5 6 7 7 11 4 3
7 5 5 5 5 5 5 7 7 13 16 13 14 15 14 13 12 13 14 14 14 14 14 13 13 10 9 8 7 6 5 6 5 1 2 2 4 5 5 5 3 8 8 11
9 7 4 5 3 3 5 7 6 5 7 19 19 22 16 17 15 14 15 16 18 16 15 18 17 13 12 12 10 6 8 7 7 6 4 3 7 6 7 7 6 5 3 10
6 7 7 6 5 4 2 2 3 5 5 10 11 3 5 8 11 12 15 16 17 16 15 15 15 14 14 14 13 12 11 9 6 9 7 8 9 8 8 10 8 10 9 5
9 7 6 6 7 7 7 5 6 5 4 2 2 4 5 7 7 8 6 7 10 13 15 17 18 18 18 17 16 15 14 11 10 9 12 12 14 14 13 13 15 13 12 10
10 9 9 9 8 8 9 9 5 7 10 7 2 4 5 7 6 7 4 6 7 9 12 15 20 21 19 19 20 16 16 18 18 17 17 15 15 14 14 14 15 11 11 15
11 11 12 10 11 9 7 7 7 9 7 7 5 3 7 7 7 8 7 8 5 7 1 9 8 11 19 20 23 22 19 18 16 15 14 15 15 14 14 15 15 13 10 12
14 13 13 13 13 13 12 9 7 8 6 6 2 4 5 6 8 9 10 6 4 4 4 2 3 3 5 10 15 17 18 17 13 15 13 14 15 16 16 16 18 18 19 17
16 16 15 15 15 11 9 8 5 5 4 5 6 7 8 9 4 3 10 7 3 8 5 5 9 8 8 7 11 14 17 20 20 17 18 18 13 14 13 15 19 17 14 17
15 15 15 15 12 9 8 8 7 8 7 6 6 7 7 10 11 7 7 8 8 5 4 7 12 10 11 10 13 14 16 17 18 20 19 14 15 17 18 23 19 17 15 11
15 15 16 12 10 9 10 10 9 7 8 8 8 6 8 5 6 8 13 7 4 5 6 4 11 12 7 8 10 14 16 19 19 17 17 17 17 21 26 25 22 18 15 15
17 18 17 18 17 16 14 13 13 13 12 14 12 12 13 10 6 6 5 5 2 3 8 6 3 4 5 9 11 9 12 12 13 14 16 17 20 21 26 25 24 25 25 21
15 19 19 19 18 16 14 12 13 14 13 15 13 15 11 8 13 8 5 11 6 7 5 5 7 2 3 3 6 9 8 6 4 6 10 15 22 25 25 24 25 30 31 26

GFSNGP_925_spd_111.txt.gz
Wind_Speed
6 5 10 10 11 14 8 8 2 3 6 7 2 5 12 22 14 15 16 15 16 16 14 20 25 28 20 17 29 22 28 28 29 29 16 11 14 17 18 21 19 13 11 10
5 7 6 6 11 12 10 15 9 16 11 5 12 13 13 19 22 7 8 9 9 15 23 24 27 32 34 33 31 20 20 24 19 21 23 17 16 9 14 11 13 12 11 8
5 6 4 3 7 7 10 19 10 10 5 9 9 9 4 7 13 19 14 13 8 9 16 23 28 35 26 30 33 28 19 21 18 15 15 15 16 17 15 17 12 12 10 9
3 5 3 4 10 11 16 18 17 14 13 10 5 5 10 12 14 13 15 15 11 13 17 13 20 25 26 29 34 29 21 17 17 17 15 11 10 10 13 15 18 19 14 7
4 4 4 9 8 9 7 10 13 12 10 9 6 8 9 13 16 12 9 12 15 18 16 14 10 17 24 26 29 25 22 20 15 12 10 9 8 7 7 11 15 14 11 10
6 1 2 8 14 9 8 4 13 12 11 8 4 5 3 10 11 13 15 17 18 16 16 16 15 12 17 16 17 14 16 15 12 11 12 10 10 10 12 15 17 15 13 8
4 2 3 11 16 12 2 1 3 8 12 13 8 6 5 6 10 13 13 16 15 18 19 16 13 18 20 18 16 14 16 17 18 16 14 13 12 12 13 16 15 12 9 6
1 3 4 8 5 4 5 6 4 9 13 17 14 11 8 7 8 14 14 17 17 16 18 18 18 20 22 21 12 13 18 18 16 16 15 13 13 12 12 13 13 11 10 10
3 3 4 4 5 7 8 10 8 10 9 12 11 11 7 6 8 13 13 16 17 15 17 22 21 23 25 20 20 19 22 19 15 15 15 13 12 11 11 10 10 10 12 10
3 4 9 14 2 13 4 13 11 10 8 11 12 9 7 9 10 10 11 16 15 17 16 17 20 19 19 18 18 18 19 19 19 18 16 14 14 12 13 11 7 5 8 8
1 5 2 5 5 11 13 12 13 12 12 11 11 9 8 7 12 10 14 14 14 13 15 13 13 15 13 13 12 15 13 14 13 13 14 16 16 13 11 13 9 8 7 16
2 10 6 6 6 10 11 12 12 12 10 14 13 9 12 10 15 19 16 16 15 14 14 13 12 12 11 10 10 10 10 8 8 8 9 9 9 9 6 8 8 10 9 7
5 7 8 6 5 11 10 12 13 14 15 11 14 13 11 9 5 4 9 14 18 17 12 9 8 10 7 8 7 9 8 7 5 5 12 10 8 9 9 6 5 2 1 4
9 8 5 5 6 10 13 17 20 19 19 19 19 17 15 10 9 9 6 8 10 9 7 6 6 6 6 5 4 5 2 2 4 5 8 11 10 9 8 5 7 6 4 2
7 6 6 7 10 9 12 18 13 12 17 18 21 19 20 18 15 14 13 12 10 6 6 6 7 8 7 3 3 2 2 2 4 5 3 4 4 5 6 10 11 8 5 4
6 6 5 8 7 6 8 9 14 12 15 18 17 21 24 23 21 20 19 15 12 12 11 12 10 7 6 7 6 5 3 2 2 2 2 4 3 4 6 6 14 11 8 9
6 7 4 3 6 6 4 2 6 12 16 18 17 24 24 21 18 17 19 20 21 18 15 15 16 11 11 11 9 7 5 5 7 7 3 4 5 3 7 5 3 10 9 13
4 8 9 6 5 3 4 8 9 17 15 12 10 18 16 19 17 21 22 22 20 19 17 17 16 15 14 14 12 11 9 8 8 8 10 6 7 7 4 4 5 3 15 14
5 10 12 10 9 9 10 7 4 15 12 8 7 5 6 7 5 9 13 17 18 18 19 18 17 17 17 17 14 13 12 12 13 10 7 10 9 9 9 9 10 13 8 9
6 12 9 7 7 11 14 11 7 15 10 8 8 5 4 5 5 6 5 5 3 5 11 10 14 18 20 19 17 15 16 15 17 19 15 11 12 13 14 14 12 12 13 19
8 12 10 10 9 6 7 8 5 4 10 13 10 7 6 4 4 5 6 3 6 10 10 3 7 11 18 21 18 20 21 19 16 19 25 21 17 16 18 18 15 15 15 12
12 13 14 14 14 14 13 11 9 5 12 12 11 7 4 1 2 5 3 3 7 7 10 7 5 3 0 7 13 18 21 24 21 15 11 15 23 22 20 18 18 19 19 19
15 18 21 20 19 20 22 20 16 11 17 14 10 7 5 5 3 9 10 8 4 4 3 6 9 9 9 8 9 9 10 16 20 21 23 17 14 14 13 16 15 12 9 16
20 22 24 26 25 19 15 23 18 15 13 12 10 8 6 7 4 12 11 9 6 8 8 7 8 11 10 7 6 8 10 11 12 11 12 13 15 15 15 16 17 14 17 25
25 25 26 24 19 16 25 25 19 20 18 12 11 10 9 6 7 18 12 7 8 8 8 5 5 6 5 7 10 7 7 9 10 11 13 14 15 17 19 19 20 23 18 15
18 17 21 27 22 24 24 25 18 20 20 14 14 12 12 11 12 15 10 10 12 13 14 11 8 4 4 2 7 11 7 4 4 4 5 7 9 13 18 23 25 24 28 26
19 18 15 17 21 23 24 22 18 14 18 19 20 17 16 18 16 13 15 13 12 16 18 16 15 9 6 5 2 3 7 10 9 7 5 6 5 15 20 22 25 29 25 28

GFSNGP_925_spd_114.txt.gz
Wind_Speed
9 9 3 1 5 13 5 5 5 3 5 4 6 9 11 14 18 19 14 2 11 11 14 21 25 31 32 33 31 30 24 20 28 32 29 29 25 23 21 26 22 18 13 13
1 7 7 1 14 13 9 6 6 6 9 6 5 4 12 11 10 16 19 16 6 9 12 18 21 25 30 32 27 27 25 20 19 29 25 23 20 15 19 16 22 19 14 12
4 5 4 7 6 12 12 11 3 9 5 6 10 13 13 12 4 6 19 14 10 5 1 9 15 25 29 31 22 18 29 16 20 17 20 12 21 19 25 17 16 13 11 9
3 4 2 1 8 17 18 13 7 5 6 9 9 12 15 14 12 12 13 4 10 11 13 7 7 18 16 21 18 23 27 26 20 19 16 12 11 15 17 19 20 18 11 11
3 1 2 3 6 4 3 7 7 5 4 4 7 7 9 13 12 9 8 4 1 5 14 11 7 13 16 15 17 22 24 22 18 19 20 15 13 12 14 17 17 18 12 10
3 2 5 4 8 9 2 3 5 5 5 2 3 3 2 7 8 9 9 9 8 9 13 13 9 9 13 10 17 22 22 20 19 19 14 13 13 11 11 13 15 16 16 13
4 1 4 2 11 9 3 5 1 3 2 2 3 3 5 6 7 8 8 10 12 16 14 12 13 14 16 13 10 5 14 15 17 17 16 14 13 11 13 15 16 16 14 10
1 4 6 1 5 5 4 3 4 4 3 7 6 6 6 5 6 9 10 13 14 13 16 17 16 19 22 20 14 15 14 15 22 21 16 15 13 13 16 18 16 13 11 11
5 5 3 3 2 2 4 7 5 8 4 4 5 4 5 3 4 7 12 12 14 15 19 22 21 21 23 19 15 15 19 18 19 19 18 16 16 14 13 14 14 12 10 10
2 3 4 3 2 4 3 6 9 5 3 4 5 6 7 4 4 5 12 14 11 17 16 19 21 21 20 17 19 21 22 21 19 17 15 15 14 13 13 10 9 12 11 11
1 4 3 6 1 8 10 11 12 10 7 6 7 6 6 4 5 6 10 12 10 15 14 17 16 18 15 15 14 18 19 17 19 18 16 14 13 13 9 8 6 6 11 14
5 8 5 6 7 11 12 12 11 13 6 8 7 6 9 7 5 5 5 11 14 14 12 10 12 13 13 10 9 10 15 13 10 13 12 11 10 12 9 9 8 7 5 12
5 9 5 7 13 8 12 10 11 11 11 8 9 13 9 6 6 10 8 6 8 10 11 9 9 9 8 8 8 8 8 8 6 6 8 8 6 5 7 5 7 7 5 3
5 8 2 6 7 11 15 16 18 14 15 16 19 16 14 10 8 8 9 9 7 6 8 8 7 7 6 4 5 6 6 8 8 5 6 3 3 3 4 4 4 5 6 5
7 7 7 8 15 13 16 18 11 10 13 13 16 16 17 16 14 13 10 9 8 4 1 1 2 1 1 3 3 3 5 6 8 7 5 5 1 3 7 6 5 4 3 1
8 8 8 12 12 13 14 14 13 12 14 17 16 18 21 18 16 15 13 13 10 10 7 6 6 3 3 2 2 2 1 2 2 2 3 2 2 2 4 2 8 7 4 5
6 5 6 7 11 11 9 13 15 17 19 17 20 22 22 20 17 19 19 19 17 15 12 10 9 6 7 8 7 6 5 4 3 4 3 3 5 4 2 0 0 9 10 7
8 9 10 9 7 7 7 11 18 21 21 25 22 22 22 22 21 24 23 22 20 19 17 16 14 13 13 13 12 11 9 8 7 4 4 6 6 5 5 3 0 1 6 12
9 11 14 15 17 15 15 16 18 19 21 16 20 23 27 26 27 26 27 22 23 22 21 18 19 18 19 18 16 13 13 12 11 10 7 6 9 9 8 8 7 5 5 12
6 17 18 15 18 22 17 25 27 25 22 19 18 17 14 14 12 7 5 4 5 8 11 14 16 18 18 16 16 15 14 15 15 15 15 14 11 11 10 9 10 12 10 11
8 14 15 16 15 20 22 20 24 22 21 21 22 20 19 18 15 12 14 10 8 5 3 6 8 11 13 16 17 18 18 17 16 16 14 19 23 19 17 17 16 14 14 15
11 12 14 17 17 17 18 16 17 16 18 18 18 20 20 15 11 8 7 12 12 11 9 7 5 4 1 4 10 17 18 19 21 21 19 17 19 24 25 22 20 21 19 17
16 19 20 20 20 21 20 20 20 19 20 21 21 18 15 12 12 15 13 14 13 8 4 5 5 2 4 6 8 8 7 8 12 17 17 16 18 17 17 23 25 23 19 16
18 22 26 28 27 24 15 23 23 25 26 24 21 19 16 12 6 7 10 15 12 11 11 9 7 9 10 8 6 5 7 9 8 9 9 8 8 8 10 11 13 14 15 16
25 26 26 25 21 20 27 26 26 27 27 24 21 18 16 13 10 17 18 16 13 13 11 8 5 4 4 6 9 9 5 5 6 6 7 8 8 8 10 13 16 19 21 22
22 20 24 31 29 26 26 30 24 26 26 25 22 19 16 11 11 22 19 16 13 10 12 10 9 7 5 2 4 9 10 6 3 2 3 3 2 4 11 16 19 22 24 25
17 16 10 7 17 23 25 26 24 22 25 23 17 14 15 21 20 23 20 16 15 16 17 17 16 14 12 10 6 1 3 4 4 4 4 4 4 6 14 21 20 19 18 18

GFSNGP_925_spd_117.txt.gz
Wind_Speed
4 7 2 2 3 7 6 3 3 3 5 7 5 5 5 5 7 12 11 7 4 4 6 14 20 24 26 28 36 38 36 34 35 32 31 26 26 25 24 22 19 16 13 12
4 6 6 4 5 7 5 3 6 5 8 5 5 4 8 5 5 10 8 9 7 5 4 3 9 14 26 32 34 36 35 36 32 30 30 25 25 26 23 22 15 16 14 12
3 3 4 6 6 6 2 6 4 4 1 2 10 11 10 8 7 5 8 9 7 8 7 7 5 3 2 8 20 23 25 27 28 28 27 21 20 19 25 17 15 20 16 15
3 4 4 2 4 9 7 5 5 6 6 9 9 9 10 9 7 7 8 8 7 13 6 2 5 2 3 4 7 13 16 19 20 22 21 18 18 14 17 18 23 24 20 11
3 1 4 2 1 3 2 2 3 4 6 6 7 4 7 11 11 10 10 11 6 14 10 5 3 7 9 9 11 16 16 19 20 18 16 20 21 16 9 18 22 19 21 20
2 4 7 4 3 2 3 1 3 3 1 1 1 3 2 6 9 10 13 14 17 14 13 11 8 6 13 10 9 10 15 19 18 18 17 17 13 10 14 17 15 18 18 14
2 2 4 6 5 1 5 5 3 2 2 1 3 3 6 4 4 6 7 11 10 10 11 10 6 9 14 11 11 7 16 9 10 12 15 10 10 11 10 9 13 15 13 10
1 3 5 3 2 6 4 4 4 2 3 6 7 8 7 5 3 4 5 6 9 12 13 12 11 16 18 13 6 13 16 14 12 12 16 15 9 10 12 15 16 16 15 12
7 5 4 3 2 2 4 3 3 4 6 8 6 4 5 3 3 5 6 6 8 13 16 17 14 14 17 14 13 14 17 16 16 17 15 14 14 14 14 14 14 14 13 13
2 3 3 3 1 2 2 3 4 4 6 6 7 4 5 4 4 6 7 9 8 11 16 17 18 17 16 14 15 17 19 18 17 14 13 13 13 13 13 12 11 11 10 10
3 4 2 3 3 5 6 6 7 5 6 7 8 6 5 4 5 7 7 7 9 12 14 14 15 17 15 13 16 22 21 19 17 17 15 14 13 12 9 7 6 7 7 8
6 8 6 4 6 8 9 6 6 6 6 5 7 7 9 5 9 11 10 9 9 9 11 11 13 15 13 12 12 14 16 14 13 12 13 11 12 12 12 11 8 7 5 7
3 5 4 5 13 9 7 9 10 8 7 10 13 16 15 9 8 9 8 10 11 10 9 9 10 11 12 12 12 11 12 11 8 7 9 9 7 6 4 4 4 4 5 5
5 8 3 4 7 12 10 13 16 15 14 13 16 15 14 13 12 10 8 6 7 7 8 8 8 9 7 7 9 9 9 8 8 6 4 5 5 5 5 5 4 3 1 2
9 5 6 7 10 9 13 15 9 8 10 10 14 14 13 13 13 13 11 9 7 4 1 1 4 6 6 7 7 7 8 9 8 8 6 5 2 1 2 2 2 1 1 2
6 3 6 11 12 11 11 9 7 7 8 11 13 14 14 11 9 10 10 11 11 9 4 3 3 2 2 2 3 3 4 5 5 5 4 4 4 3 3 1 4 5 4 2
5 3 3 4 7 9 10 10 11 11 12 13 17 17 15 14 12 13 15 15 16 14 9 8 7 6 5 4 3 1 0 1 2 2 1 2 4 5 5 3 3 2 4 3
8 11 11 13 12 8 6 9 13 15 17 24 20 18 16 17 19 18 17 16 15 17 18 14 11 9 9 8 7 5 5 4 3 1 1 2 2 2 3 3 2 1 3 5
8 9 12 15 16 15 15 16 20 23 21 20 19 22 25 24 23 20 17 15 15 18 22 15 14 14 14 12 12 11 10 8 9 7 5 3 3 5 5 5 6 7 7 5
7 14 17 11 19 21 16 18 20 21 22 22 22 17 19 23 23 19 18 20 24 26 25 23 19 14 15 14 13 13 12 11 11 11 11 10 9 10 10 8 8 8 9 9
8 12 15 16 16 22 24 23 22 21 20 19 18 16 17 14 13 14 15 12 8 5 5 7 7 8 8 9 8 12 13 14 14 14 13 12 12 14 17 16 16 14 13 12
10 12 15 19 19 21 22 26 26 24 22 19 18 20 21 18 16 15 13 11 11 9 6 4 4 3 1 3 6 10 13 15 16 15 15 15 15 16 18 18 19 22 20 19
16 19 22 22 21 25 26 24 27 26 24 23 23 24 26 26 21 16 10 13 15 12 8 5 3 1 2 3 4 6 6 6 7 9 10 12 14 14 17 20 18 16 19 23
15 21 24 29 27 23 15 25 26 27 27 28 29 30 28 21 18 13 7 18 17 13 10 9 9 10 9 8 7 6 4 4 5 5 7 8 8 8 7 8 9 11 15 17
22 23 21 18 17 19 26 32 31 30 28 29 32 32 29 24 17 16 15 21 17 16 16 13 10 7 6 7 9 9 6 2 1 3 4 4 4 3 3 6 10 13 17 19
19 20 25 30 29 26 27 29 23 26 25 20 25 28 24 19 14 13 18 21 21 19 16 13 11 8 5 2 2 6 8 7 6 4 4 4 6 4 4 11 17 17 18 21
21 22 18 17 25 27 25 27 20 21 27 26 23 27 22 18 11 14 24 23 22 20 16 14 12 11 9 8 7 5 2 1 2 1 2 1 1 4 7 12 16 21 20 20

GFSNGP_925_spd_123.txt.gz
Wind_Speed
0 5 1 2 3 5 1 3 4 2 4 1 5 5 8 9 9 9 7 4 8 11 11 12 12 13 17 17 20 25 20 22 26 21 22 23 22 22 23 22 20 16 14 12
3 3 7 5 5 5 4 3 2 1 3 2 3 5 6 10 9 11 10 9 6 5 1 2 9 10 14 19 23 17 25 21 17 20 23 21 23 22 23 23 22 18 16 15
4 4 6 10 6 2 3 4 3 7 2 5 2 5 7 8 9 9 7 8 9 9 10 2 6 16 14 14 14 20 19 17 17 23 20 27 27 27 27 23 23 21 17 14
4 3 8 3 3 4 1 2 4 4 8 6 5 4 5 7 7 9 8 7 5 7 8 7 7 7 7 7 10 11 8 9 7 6 11 15 15 21 21 20 25 23 16 16
4 6 5 4 4 5 7 7 7 8 8 8 6 1 3 4 5 5 7 9 11 11 11 9 7 5 6 6 8 9 7 5 5 7 12 15 19 17 25 22 23 21 17 15
3 4 6 2 2 2 2 7 13 10 12 12 9 3 3 4 5 6 7 8 10 11 9 9 9 6 3 7 5 5 7 7 5 8 15 18 13 13 21 20 22 15 8 7
4 5 5 1 5 4 8 2 9 14 14 14 9 2 7 5 5 5 6 9 9 11 13 14 14 7 7 9 7 2 4 1 7 4 9 13 12 16 17 16 17 13 10 4
2 4 5 6 5 5 2 5 5 3 5 7 11 13 7 4 4 5 6 7 9 12 15 16 15 13 13 11 5 4 4 1 4 3 4 8 15 11 9 9 11 12 11 8
5 2 2 4 4 2 2 2 3 7 8 12 11 8 6 5 4 6 6 8 9 10 14 14 14 14 16 11 9 10 12 11 9 7 7 7 9 8 7 9 10 12 14 14
2 2 8 7 6 5 3 4 7 10 8 9 9 7 6 6 5 7 8 8 9 11 14 15 15 18 18 16 14 14 15 14 11 12 12 10 10 9 8 5 5 9 11 9
5 7 3 8 8 5 5 7 10 9 8 8 9 8 7 6 6 6 8 9 10 11 12 13 16 18 17 18 21 24 21 21 21 18 16 17 17 16 13 9 8 9 10 9
5 3 2 2 11 11 11 10 9 9 8 8 9 9 9 7 7 6 6 7 10 11 11 11 15 16 16 15 16 18 19 19 19 19 18 18 20 21 20 18 13 11 11 9
2 2 4 3 11 14 11 11 9 9 11 10 10 12 11 9 8 9 8 9 9 9 9 11 13 15 15 14 14 14 16 17 15 13 15 13 11 9 13 14 16 15 12 11
6 7 5 10 8 12 11 14 14 11 11 12 12 12 12 10 9 9 8 8 9 9 9 8 9 10 11 11 12 13 13 12 12 10 9 8 8 10 10 11 8 8 7 6
10 10 2 7 13 11 15 15 11 11 12 12 12 13 11 11 11 10 8 7 6 7 6 6 6 7 8 9 10 11 11 12 11 10 8 8 7 6 7 8 7 6 7 7
12 9 8 15 16 14 14 12 11 11 11 13 13 13 13 12 12 10 9 7 5 5 4 4 4 4 6 7 7 7 8 8 7 6 6 5 5 5 6 6 5 4 4 4
14 10 11 14 16 16 16 13 13 14 15 15 15 13 11 10 8 9 9 8 7 6 4 2 3 3 3 3 3 3 3 4 5 4 5 5 4 4 4 3 3 3 3 2
11 15 17 18 16 15 12 14 14 15 18 17 16 16 15 15 15 14 12 10 8 7 8 8 7 6 6 5 5 3 3 2 2 2 2 2 2 2 2 3 3 3 3 2
12 13 17 19 22 20 18 17 18 19 16 18 18 20 19 17 14 11 9 9 9 9 9 9 9 9 8 8 8 6 6 5 5 4 3 3 3 2 1 0 1 2 2 3
10 12 16 16 17 17 17 19 18 16 15 16 16 15 17 17 15 14 13 12 11 8 5 7 10 10 10 10 11 9 8 8 7 6 6 6 6 5 4 4 4 4 4 4
13 13 14 15 15 16 18 18 18 16 17 17 19 20 20 17 15 14 13 12 8 7 5 4 5 6 7 8 10 11 9 8 8 8 8 7 6 7 7 6 5 6 7 9
12 12 12 12 12 13 14 15 17 14 15 16 16 13 12 13 13 14 14 10 6 7 5 5 5 5 4 3 5 7 8 8 8 8 8 8 8 7 6 6 5 6 7 7
12 13 12 12 13 13 12 13 14 15 15 16 16 15 16 15 14 14 11 12 9 10 8 7 6 3 2 2 2 3 3 4 5 6 6 7 6 6 4 3 3 3 3 4
12 13 13 10 9 10 10 13 14 15 16 17 18 19 18 15 11 12 11 12 17 16 12 11 9 8 7 6 5 3 3 3 3 3 3 4 4 4 3 2 1 2 3 6
12 12 12 12 12 13 14 13 13 13 15 16 16 18 19 16 16 18 17 15 19 18 16 15 14 12 11 9 8 7 7 6 5 4 4 4 5 7 7 4 3 4 5 7
10 10 9 12 11 12 12 12 15 15 15 17 18 18 18 18 17 12 16 17 20 21 20 21 18 13 10 9 8 8 8 8 7 7 8 9 8 6 4 2 1 4 7 9
9 9 8 7 9 12 13 14 15 18 19 20 21 19 20 22 23 24 25 21 23 24 22 22 20 16 12 10 8 7 6 6 6 6 5 5 4 3 3 3 5 6 9 11

GFSNGP_925_spd_129.txt.gz
Wind_Speed
8 8 17 11 7 31 11 10 1 6 17 8 7 6 8 6 4 8 9 9 8 3 6 6 12 12 15 15 13 14 15 17 16 15 14 13 13 12 11 12 11 13 14 13
13 15 14 13 18 17 8 12 6 21 17 21 13 8 7 7 6 4 6 7 9 13 11 5 5 6 10 12 14 11 15 14 12 13 14 13 14 13 12 13 13 12 13 13
12 2 11 11 14 13 17 1 12 7 6 8 11 10 6 6 8 7 7 8 7 7 7 7 8 6 4 4 6 12 11 13 16 16 17 17 17 16 17 18 17 18 17 16
11 13 13 2 6 11 6 12 3 13 4 14 11 8 7 5 7 6 6 6 4 5 6 6 4 2 0 2 2 6 11 15 15 16 16 16 13 13 15 15 16 18 17 17
11 12 12 12 4 7 7 12 12 12 4 13 9 10 7 5 5 7 4 4 4 4 6 6 4 5 3 3 4 6 5 11 12 10 8 10 10 10 12 10 12 16 18 18
10 12 10 7 11 8 6 11 16 9 7 5 10 8 5 5 5 6 6 5 4 7 7 6 3 5 6 7 6 4 6 4 3 2 1 3 6 7 9 11 15 15 15 15
10 11 12 9 9 3 7 5 11 13 7 8 3 6 12 9 6 7 6 7 7 8 9 7 6 7 9 9 7 4 8 6 4 5 2 3 1 1 3 3 2 2 6 6
9 11 14 5 4 4 6 7 11 11 11 9 14 11 10 8 7 7 8 8 8 11 11 10 9 8 8 9 8 10 11 8 8 6 5 5 5 6 5 6 9 10 11 11
11 5 4 2 5 1 5 7 7 9 4 6 9 8 9 8 7 6 7 9 9 10 11 12 12 10 10 9 8 9 8 10 8 7 8 12 11 8 8 11 11 10 10 9
11 12 11 7 2 5 6 7 6 3 4 7 9 10 10 7 6 6 6 8 11 9 9 11 12 14 13 11 9 10 11 11 10 9 10 9 8 6 7 8 7 7 8 8
11 14 13 7 10 8 7 6 7 6 6 6 9 8 8 8 7 9 8 9 11 8 8 9 10 12 12 14 11 12 12 12 14 12 14 14 14 12 11 10 8 7 6 6
11 8 7 8 7 5 6 7 7 7 6 4 6 9 9 8 9 8 8 11 10 7 8 8 9 10 10 9 9 13 15 12 11 11 11 11 12 14 16 13 10 9 10 8
10 12 7 4 3 5 7 8 8 8 9 8 8 10 11 11 11 8 9 10 10 10 10 9 8 9 8 8 11 11 11 11 11 10 9 7 8 10 11 11 13 13 13 13
9 6 6 7 8 9 9 9 7 9 10 10 11 13 14 14 13 12 11 10 10 10 10 9 9 9 8 8 8 8 8 8 8 7 7 9 9 9 7 8 8 6 7 7
11 9 14 12 14 12 11 11 11 10 10 11 12 13 14 15 14 13 13 13 12 11 10 10 9 8 7 7 8 7 6 7 7 6 4 5 4 2 5 6 7 8 7 6
13 12 12 13 9 11 12 13 11 10 10 12 13 14 15 15 15 15 13 11 11 10 8 8 7 7 6 6 6 6 4 5 2 3 4 3 3 3 3 4 4 4 4 6
13 10 11 14 13 15 14 12 10 11 12 13 13 14 15 15 15 14 13 11 8 9 9 8 8 7 6 5 5 6 7 4 2 3 3 3 2 3 2 3 3 3 5 2
8 9 11 13 8 12 14 13 12 14 15 16 15 14 15 15 14 14 13 12 10 8 8 7 8 7 6 6 5 4 4 6 4 2 3 4 3 4 4 3 3 4 6 4
11 10 10 15 15 13 13 13 15 15 15 16 16 15 15 15 15 15 14 14 12 10 11 10 11 10 8 8 7 9 8 7 8 7 6 1 5 7 5 4 4 3 2 2
13 10 12 16 17 19 16 15 15 17 17 17 16 15 15 15 16 15 15 14 13 10 8 11 12 10 10 10 10 10 11 8 8 7 6 7 9 9 8 6 7 6 5 5
11 10 13 15 16 18 18 17 17 18 18 17 17 17 16 15 15 15 14 13 14 10 7 5 8 10 12 11 11 13 13 14 4 6 8 8 10 9 9 6 5 4 8 5
11 11 14 17 16 17 19 21 19 19 18 18 17 16 15 15 15 16 16 15 10 18 13 12 11 10 6 3 11 13 14 13 7 4 1 3 9 5 6 8 9 6 6 6
13 14 17 16 16 17 18 18 20 20 19 19 17 17 18 18 20 19 17 20 16 17 13 15 12 10 6 8 10 9 9 9 9 12 15 16 14 13 10 8 3 6 7 5
14 15 17 19 19 18 14 18 19 20 20 19 19 19 18 18 17 17 16 17 24 19 16 12 13 10 8 8 7 8 9 10 10 11 11 9 8 8 7 8 4 3 2 2
14 15 17 18 17 15 18 18 18 16 18 19 19 18 18 19 17 17 16 14 20 20 18 16 16 14 12 10 8 7 7 6 6 7 7 7 9 7 7 4 3 3 1 1
15 16 18 20 19 18 19 19 19 20 19 19 20 19 20 20 19 17 18 17 19 23 22 18 17 17 14 11 9 8 7 5 6 7 8 8 6 7 6 6 6 4 1 2
16 16 16 17 19 19 18 18 19 19 20 18 18 20 20 21 21 22 21 22 22 21 24 19 19 19 16 12 10 10 9 8 8 8 8 8 9 10 10 8 6 3 2 2

GFSNGP_925_spd_135.txt.gz
Wind_Speed
10 8 6 8 9 11 7 6 6 3 4 4 5 10 16 10 7 8 10 7 2 4 9 14 22 28 17 31 30 23 10 31 30 29 27 23 21 17 18 17 17 17 17 16
6 9 7 6 13 13 12 4 2 4 5 6 5 9 6 9 8 7 7 8 8 6 9 13 13 21 25 12 29 27 27 32 36 32 29 26 23 21 21 19 18 17 16 14
5 8 8 6 3 1 8 8 6 3 3 7 6 2 7 9 9 4 2 5 7 3 11 10 14 12 23 3 21 28 22 19 27 29 27 24 18 16 18 15 14 13 12 14
4 7 5 8 7 3 13 7 4 4 4 7 6 5 7 6 10 6 2 2 5 7 7 13 3 8 8 1 6 9 16 18 8 5 10 13 13 12 9 10 10 11 10 13
3 4 8 10 8 6 8 8 8 8 7 4 7 8 5 6 5 5 5 3 7 2 5 4 2 4 5 7 8 5 7 6 7 6 7 10 8 6 7 6 4 4 5 8
1 3 4 1 8 7 4 4 9 11 10 7 5 3 2 7 6 4 2 2 2 2 2 4 5 3 4 2 7 10 4 1 2 3 7 8 8 8 8 5 3 1 3 4
4 4 4 6 7 5 3 3 10 7 7 7 5 4 6 8 7 3 1 7 6 6 8 5 4 6 15 14 11 9 9 9 10 9 9 7 8 7 7 8 6 6 7 8
1 3 3 4 6 5 4 3 11 7 8 7 8 9 7 7 10 11 7 7 7 5 8 9 8 16 18 16 13 18 18 17 16 13 13 10 10 12 10 10 11 11 11 12
4 4 5 5 6 5 5 4 7 15 13 15 13 9 9 9 8 10 10 12 9 10 7 8 7 6 13 11 11 10 11 14 15 15 16 15 16 15 15 12 12 12 12 11
2 2 5 6 3 7 7 5 2 11 17 13 10 10 9 7 9 12 9 10 10 9 9 6 8 7 7 9 10 11 13 13 14 15 15 15 14 13 13 11 9 10 10 11
3 6 4 9 4 3 10 11 12 12 13 16 14 10 8 8 8 12 13 8 11 8 8 9 7 9 9 8 10 13 12 11 12 12 11 12 13 12 10 10 11 11 11 11
3 3 4 4 3 5 9 5 4 8 7 7 7 8 10 9 16 16 14 13 12 11 10 11 9 10 12 11 11 15 14 13 15 17 16 16 18 19 15 13 10 9 9 7
2 2 3 6 5 2 5 6 3 10 10 13 24 17 16 15 17 19 14 10 12 12 13 11 13 10 8 9 12 13 15 13 13 12 14 16 17 20 20 16 16 16 15 16
5 4 3 7 4 7 12 10 12 18 20 15 19 21 20 17 17 14 16 14 13 14 12 12 11 10 10 14 15 13 12 14 15 14 14 14 14 17 18 16 15 14 12 11
6 7 2 9 9 9 17 17 13 6 14 6 19 17 18 16 12 11 13 16 15 14 14 13 12 10 9 10 13 9 6 11 12 10 11 13 14 15 15 15 14 13 12 10
4 8 12 10 12 11 12 12 14 14 19 13 17 18 19 15 13 16 15 15 16 16 14 13 11 10 9 7 9 9 13 8 9 11 11 9 10 15 16 17 16 15 11 9
4 4 4 5 5 7 5 6 8 4 8 12 18 23 20 17 18 15 15 16 15 15 14 14 11 9 9 11 5 9 9 9 4 4 4 5 8 9 9 14 14 17 15 9
8 8 4 10 9 7 8 7 8 13 8 21 26 24 20 20 15 18 19 17 16 17 15 13 13 10 10 6 4 7 11 12 9 6 9 6 6 6 5 10 19 16 13 7
7 8 11 21 19 8 7 13 11 14 18 23 22 19 22 24 21 18 15 19 16 15 15 18 13 11 8 6 6 3 4 13 11 14 14 12 7 4 1 5 8 14 13 10
7 11 25 25 24 17 11 17 19 23 25 22 19 19 18 21 21 19 14 18 17 17 18 20 17 15 14 9 10 8 5 9 9 20 18 14 11 9 7 5 5 15 15 10
6 8 14 21 21 22 21 22 24 22 26 27 24 21 19 17 17 22 18 14 19 19 16 22 20 17 14 13 12 13 9 11 10 18 23 18 15 15 8 5 8 9 6 4
5 7 8 15 18 19 21 23 28 27 27 28 26 25 22 19 17 22 22 21 20 19 16 23 23 20 12 14 20 19 12 11 12 13 19 14 14 15 16 15 14 12 9 6
7 10 9 12 14 19 23 27 29 31 28 30 28 28 26 24 24 19 14 26 25 17 22 19 22 21 18 12 13 12 1 5 7 4 9 14 14 11 9 13 16 15 15 12
9 12 11 11 15 19 10 22 29 32 33 32 32 31 29 23 23 27 28 27 28 23 26 26 20 18 22 18 13 11 3 1 1 2 3 1 7 13 11 12 12 14 16 12
4 14 14 9 7 8 20 25 25 26 26 26 30 31 29 29 24 25 26 33 30 30 28 27 23 23 25 20 16 15 11 8 5 4 3 4 3 4 4 11 15 15 18 17
3 8 12 13 11 13 14 16 13 18 24 21 23 27 28 28 27 25 21 13 17 37 35 29 27 29 25 22 21 19 16 11 10 8 8 8 4 5 12 18 23 21 17 17
9 8 9 13 17 14 19 21 18 17 18 23 24 27 29 29 27 27 25 18 14 32 31 32 32 32 27 24 22 20 17 14 12 9 6 6 6 21 20 20 17 17 16 14

GFSNGP_925_spd_138.txt.gz
Wind_Speed
5 6 5 2 5 7 8 6 5 3 8 11 13 12 5 6 3 8 5 5 2 6 4 10 9 12 11 1 14 26 34 32 35 35 31 29 28 27 25 25 27 25 21 20
5 7 4 5 10 12 10 5 5 4 1 3 2 0 5 6 2 3 4 2 5 1 2 5 2 9 10 2 3 8 13 38 37 35 34 32 30 28 25 28 28 23 22 19
3 5 6 5 5 4 4 5 8 5 5 6 4 5 4 5 6 4 2 2 2 4 4 3 9 6 6 4 8 5 25 21 24 30 34 33 30 28 27 25 22 18 17 16
3 4 1 7 8 5 10 6 3 8 4 6 6 3 4 5 3 3 3 3 2 3 4 7 9 7 5 6 3 7 19 17 13 22 27 30 28 23 22 22 17 15 13 12
4 3 5 8 1 3 8 3 1 8 8 8 8 5 2 5 5 5 4 3 0 3 3 4 5 7 8 5 4 9 24 27 18 13 19 27 23 22 20 16 15 13 9 7
3 3 3 5 3 13 6 2 4 7 10 11 5 2 4 8 6 7 11 6 4 3 2 3 5 1 2 5 8 11 18 19 5 6 8 21 16 16 14 13 10 9 8 6
2 3 6 5 7 1 5 7 5 6 7 8 5 6 4 8 5 10 10 11 7 7 5 2 1 7 11 10 12 10 10 14 15 13 11 13 15 14 14 14 13 11 11 10
2 2 5 4 4 5 6 3 8 6 6 9 7 5 5 6 6 3 5 8 6 6 6 2 5 10 16 14 13 17 17 19 14 14 15 15 16 15 15 16 16 15 14 15
6 6 6 4 7 6 8 8 7 7 7 8 9 8 7 5 5 6 11 11 7 6 6 4 5 9 14 11 10 14 16 19 19 19 19 17 17 18 17 16 18 16 15 16
3 5 3 3 3 7 8 7 7 7 7 9 8 5 5 4 4 5 12 13 11 8 6 4 4 5 8 11 10 13 18 18 18 18 19 18 16 15 15 14 16 15 15 14
2 4 2 4 2 3 7 6 5 7 8 7 6 3 2 2 6 10 11 11 7 7 6 5 4 6 6 7 11 16 17 16 15 16 16 16 16 15 13 11 11 11 12 11
4 6 4 4 4 0 6 10 8 8 8 7 10 9 5 3 7 11 15 9 6 6 7 7 7 4 6 6 8 13 16 16 15 15 16 16 18 19 15 13 9 8 9 4
5 6 7 4 6 4 8 8 9 12 10 10 7 9 12 10 14 15 13 12 11 8 7 6 5 4 5 6 7 10 14 16 17 16 16 17 17 20 22 17 16 16 16 16
5 6 3 4 5 8 12 14 15 13 13 15 15 10 16 11 14 17 14 12 12 13 11 9 7 6 7 7 10 12 12 12 12 14 16 16 17 18 20 21 19 16 14 14
6 4 5 8 7 6 11 14 11 10 6 3 3 4 18 16 15 16 14 14 13 14 13 12 10 7 7 7 8 10 12 13 13 14 14 14 15 15 14 16 16 15 13 12
6 9 11 11 9 8 8 8 11 13 10 8 9 14 21 22 18 15 18 17 17 16 15 13 11 11 10 8 7 9 10 10 10 12 14 14 13 13 12 12 13 14 14 13
5 4 5 5 8 8 9 2 5 3 7 8 14 18 23 20 15 18 18 17 18 18 16 15 13 11 11 9 8 12 10 9 8 7 9 12 17 19 14 15 15 13 11 10
10 8 12 12 12 8 7 8 11 4 7 17 24 23 22 21 17 20 20 19 18 16 16 16 14 12 10 9 5 5 9 12 9 9 12 13 14 13 20 21 17 15 12 9
10 8 9 14 18 14 15 14 15 10 15 21 23 20 24 26 23 23 20 18 19 19 19 15 13 12 13 11 6 2 8 8 10 10 13 13 12 10 10 19 22 19 16 13
6 13 18 18 19 17 10 14 24 14 9 25 23 22 21 27 23 20 18 23 24 23 17 17 15 14 14 12 8 7 6 6 9 12 16 14 14 15 12 10 19 21 20 15
8 11 12 13 15 17 11 22 25 17 22 30 27 25 26 25 22 21 20 16 21 18 17 19 21 17 14 13 11 10 10 9 9 10 24 21 16 13 15 13 15 16 20 16
5 11 11 14 12 13 14 20 22 24 28 27 26 24 23 22 21 22 22 22 21 20 19 19 24 23 19 15 15 15 13 13 13 12 20 26 21 20 18 15 17 21 22 17
9 14 15 14 14 19 21 19 24 28 28 28 26 26 25 24 21 19 13 25 22 21 20 19 18 25 20 15 13 17 9 7 4 5 14 20 18 18 20 18 18 17 16 14
5 15 20 26 22 15 9 21 25 31 34 32 32 31 30 26 26 27 28 26 26 26 26 22 23 23 25 22 19 17 14 11 7 7 8 8 16 19 20 19 19 17 17 19
19 11 12 14 12 12 22 27 26 25 26 27 32 34 35 33 31 34 35 32 30 29 30 29 27 26 29 30 27 23 22 18 15 12 10 9 8 13 18 18 22 22 23 24
14 12 14 17 18 23 20 24 21 23 22 19 25 31 35 36 36 33 29 33 33 35 34 33 32 33 31 32 32 28 25 21 15 10 9 9 9 10 11 13 17 24 25 27
11 14 12 10 12 17 25 26 20 19 24 25 26 33 38 37 38 37 35 33 29 27 31 38 36 36 34 35 33 30 26 21 16 13 12 10 13 10 11 15 21 28 28 24

GFSNGP_925_spd_141.txt.gz
Wind_Speed
4 5 2 4 5 8 8 5 5 4 7 7 10 4 4 4 0 4 3 2 6 4 2 9 9 11 9 4 20 26 28 29 33 35 35 37 36 34 32 32 29 26 22 19
5 4 3 3 3 9 5 5 3 4 6 7 5 2 5 3 5 4 3 2 1 6 5 4 10 7 8 5 4 12 23 29 29 25 32 37 36 33 32 31 27 26 23 22
3 2 3 4 3 4 4 5 7 5 8 5 3 5 5 4 3 4 4 4 3 4 5 7 7 5 4 5 4 3 6 9 6 9 17 33 38 34 31 30 28 28 26 23
3 3 2 7 6 7 5 5 4 4 3 3 2 4 5 5 4 0 3 4 3 1 7 5 8 3 7 10 11 10 14 15 14 9 13 22 36 37 33 30 27 23 22 18
4 4 5 4 4 2 5 2 2 5 5 4 4 2 6 6 4 2 2 2 2 3 4 5 6 6 6 11 20 22 24 27 20 22 30 23 27 35 30 27 22 20 15 11
3 4 4 6 6 3 3 2 4 6 6 6 5 1 5 6 2 3 2 3 2 1 3 4 6 5 6 4 2 9 16 17 13 17 19 22 17 17 15 16 15 10 10 7
3 3 6 6 5 3 2 7 6 7 7 7 5 6 3 3 3 3 3 7 5 3 1 4 7 7 5 5 3 4 7 11 16 12 8 5 5 13 10 12 13 12 9 6
3 3 3 6 4 6 6 2 6 6 7 9 9 4 1 3 5 5 6 5 4 6 7 8 2 7 7 8 8 9 12 13 12 12 9 8 9 10 17 16 17 15 14 13
7 6 5 4 5 3 8 8 6 7 7 9 7 5 4 5 4 5 7 6 5 7 8 9 7 3 8 8 12 12 14 13 16 13 12 14 14 15 15 10 13 15 15 15
3 2 2 2 1 5 3 7 7 7 8 8 6 8 6 5 5 7 10 7 7 7 7 8 7 5 5 4 10 16 17 19 17 18 16 14 15 16 17 17 19 18 16 14
1 3 2 1 3 6 5 2 3 3 5 8 7 6 7 7 7 10 14 12 9 10 6 5 5 6 5 6 9 13 15 16 21 22 20 19 17 17 16 14 14 16 15 15
4 5 4 4 5 6 7 6 8 8 5 7 7 7 6 6 14 17 17 14 11 10 9 6 4 6 8 5 7 12 15 15 15 17 19 17 20 18 15 12 10 11 12 9
5 5 4 2 5 3 6 6 5 7 7 8 10 14 10 5 15 19 16 16 17 14 9 6 6 7 7 7 8 9 12 12 13 15 16 17 17 19 20 14 11 11 12 15
3 6 1 4 6 8 5 7 6 4 8 6 7 10 7 7 10 14 17 15 15 15 10 7 6 7 7 8 11 13 13 11 12 13 14 15 16 17 20 22 22 19 14 16
8 6 5 4 7 6 6 5 4 5 4 4 4 6 7 9 11 17 15 15 17 14 11 8 6 7 8 11 14 16 15 11 10 11 13 15 17 17 17 18 18 18 17 14
5 4 4 6 8 8 7 5 6 6 4 4 9 10 15 14 14 14 14 15 15 13 14 13 10 9 8 9 10 11 12 14 14 13 13 13 14 14 16 15 15 15 15 16
6 4 3 3 8 9 13 10 9 5 6 7 11 14 15 14 14 13 16 16 12 13 12 10 10 11 10 8 6 11 12 12 12 14 14 14 15 13 13 14 14 15 14 12
9 9 11 8 11 10 8 8 10 13 13 16 12 15 15 17 14 17 18 15 12 12 12 13 12 10 11 8 7 9 8 11 12 11 13 15 17 17 16 15 14 13 12 12
9 9 9 8 13 12 9 10 16 17 15 22 19 18 21 22 20 20 17 16 16 14 15 14 12 13 12 11 7 4 9 11 7 8 10 11 11 14 18 20 19 16 13 13
8 10 15 14 16 15 11 12 15 13 19 25 20 18 17 19 19 18 18 19 20 20 16 16 14 14 14 14 9 7 8 8 9 8 9 12 14 13 13 17 21 20 19 16
8 8 9 13 14 18 20 21 19 17 21 25 24 21 23 24 22 19 17 14 21 20 18 17 17 16 16 15 11 9 8 6 6 9 5 15 16 15 15 15 18 21 23 21
4 5 8 12 14 16 23 25 24 20 21 23 24 23 21 20 20 20 22 22 20 19 20 19 18 18 17 17 16 14 12 11 9 8 8 9 21 20 17 16 18 16 17 22
9 3 9 13 15 19 19 23 29 25 26 27 27 27 27 26 28 20 13 25 25 24 23 21 19 18 20 19 17 16 15 13 11 12 12 12 18 25 21 19 19 18 19 21
14 13 10 13 13 16 8 22 26 30 30 30 31 31 29 26 28 29 26 26 26 24 25 24 22 20 19 22 23 19 15 15 12 10 10 12 15 19 22 21 20 20 22 23
9 14 4 7 8 10 20 25 24 23 23 28 31 29 30 27 28 28 27 24 23 24 25 25 24 20 21 23 26 23 18 21 19 15 13 12 12 15 19 20 20 21 23 24
11 6 10 11 18 15 23 22 18 22 23 22 27 29 31 31 30 28 23 26 26 24 25 27 28 26 24 26 28 29 27 25 23 21 19 18 18 18 18 21 23 23 24 28
7 9 10 4 12 15 20 23 18 18 26 24 25 33 35 34 35 35 34 31 27 28 30 32 33 33 31 31 32 32 32 32 29 25 22 19 17 15 16 15 17 22 27 30

GFSNGP_925_spd_144.txt.gz
Wind_Speed
4 4 4 4 4 7 7 5 5 4 7 8 6 7 7 5 3 2 2 6 4 2 1 2 4 0 10 20 25 26 25 28 32 34 34 33 32 32 31 30 28 25 24 23
5 3 5 4 6 8 4 3 4 3 6 6 2 3 6 7 6 4 3 5 5 2 1 4 4 3 6 6 10 17 22 25 27 30 28 28 26 28 29 29 30 30 28 26
4 2 3 3 7 6 5 5 7 6 9 2 4 3 2 6 5 5 5 5 3 2 4 8 7 4 1 2 2 4 8 13 15 15 17 15 14 18 24 28 29 30 30 28
3 2 2 7 4 5 5 4 6 2 1 3 3 2 2 2 5 4 4 3 4 3 1 2 3 10 13 12 11 9 8 8 7 10 10 7 3 5 16 24 28 28 28 25
5 4 5 2 4 5 6 5 4 4 4 3 2 2 4 4 4 5 4 3 3 4 5 5 6 6 9 12 12 14 18 17 18 17 21 25 23 16 15 17 19 24 21 18
3 5 6 7 3 3 4 2 5 5 6 6 2 3 3 1 5 4 5 3 4 2 4 8 13 10 9 12 14 19 19 16 17 20 22 20 30 25 12 14 17 17 13 9
3 3 6 7 5 1 5 6 6 6 6 7 5 4 5 5 4 8 8 5 4 1 1 4 10 10 8 7 7 7 12 17 15 13 15 18 13 10 13 16 18 16 14 12
3 3 3 7 4 7 6 2 6 6 6 8 5 5 6 7 7 8 9 7 4 2 2 4 5 3 5 4 5 5 3 5 7 14 16 15 15 14 16 16 13 17 19 15
7 6 3 4 3 5 7 6 6 6 7 9 6 6 6 6 8 8 11 10 7 4 2 4 4 1 4 4 4 6 8 9 10 8 15 18 20 21 24 19 19 19 13 18
3 3 4 4 3 3 6 6 6 6 8 8 8 7 6 5 5 6 11 11 8 6 4 4 4 5 4 3 3 9 9 9 12 12 13 15 17 18 17 15 13 15 17 13
1 2 0 2 4 4 5 2 2 2 5 8 6 5 5 6 7 11 13 11 10 6 4 3 3 4 5 5 6 10 11 11 11 12 14 16 16 13 16 15 14 16 14 15
5 6 5 4 4 3 5 7 9 7 5 4 7 7 6 7 13 15 16 14 10 8 6 4 2 5 5 6 8 11 12 11 11 13 14 15 16 16 13 12 13 11 12 10
3 5 3 2 3 1 3 5 4 4 4 5 7 8 5 1 6 14 17 16 14 13 8 7 4 4 4 6 8 11 13 12 12 12 12 14 16 18 19 15 14 13 10 10
2 6 2 2 5 8 7 2 1 1 1 3 3 4 7 6 5 12 15 19 15 13 8 7 6 5 5 5 7 9 11 12 13 13 13 13 13 15 18 21 21 17 17 19
7 7 3 2 4 4 3 2 3 2 1 1 5 8 9 10 9 13 14 16 15 12 10 8 7 8 6 7 11 13 13 12 13 13 14 15 14 15 15 19 21 21 18 16
4 3 5 4 6 5 5 5 6 5 3 1 3 5 6 6 8 14 19 16 16 14 13 10 8 8 9 10 11 11 11 14 16 17 17 17 17 18 19 18 19 19 16 14
5 2 3 4 7 7 11 6 7 5 4 5 7 6 7 10 15 17 18 19 16 14 12 11 9 9 9 8 8 8 11 13 15 16 17 17 17 17 17 17 15 14 14 13
8 9 9 7 8 8 8 8 9 10 7 11 8 9 8 12 12 17 19 17 12 12 12 11 11 13 11 8 8 11 11 11 13 14 14 14 14 14 15 15 16 16 15 14
10 10 7 8 10 8 6 7 13 15 13 14 14 14 16 16 16 16 17 16 15 13 13 13 13 13 12 9 10 10 10 11 11 10 11 13 14 13 14 15 15 14 12 13
8 11 13 13 12 14 9 12 14 16 15 14 16 13 14 16 14 15 18 18 17 16 14 15 14 13 13 12 9 6 12 14 11 10 11 10 12 15 17 17 16 15 14 14
7 7 8 9 10 16 16 16 16 16 18 16 20 19 21 20 17 18 16 12 18 16 11 12 14 13 15 14 12 9 10 11 13 11 8 11 12 13 13 15 17 20 21 19
2 4 5 8 10 12 16 14 15 14 15 17 17 16 18 18 18 20 20 21 17 15 15 14 16 15 15 16 15 13 12 10 10 10 9 10 15 20 20 18 17 17 16 19
4 5 7 11 10 11 12 13 16 16 17 20 21 21 23 24 23 17 9 23 18 15 15 15 16 15 15 15 17 17 15 14 14 14 14 14 14 21 23 21 19 18 18 18
9 5 6 9 10 8 6 15 17 20 23 24 24 24 23 18 19 23 20 17 17 17 18 18 19 17 16 17 20 20 19 18 18 19 19 17 17 16 20 24 22 21 19 19
9 7 3 10 8 8 16 16 16 17 22 20 20 24 25 23 22 22 24 22 19 19 21 21 22 21 20 20 20 21 23 21 19 20 19 16 15 16 16 17 21 22 20 19
6 5 4 5 13 16 15 12 15 19 21 19 23 25 26 25 24 23 19 25 27 24 23 23 24 24 24 24 22 22 24 25 22 23 23 21 18 17 16 16 17 18 18 20
7 6 7 4 4 11 15 19 17 17 23 22 22 25 29 29 28 26 25 23 22 25 26 25 25 27 27 28 27 27 26 28 29 27 27 25 22 20 18 16 15 16 18 21

GFSNGP_925_spd_147.txt.gz
Wind_Speed
2 4 5 5 7 11 11 5 7 1 8 5 0 6 8 8 5 3 2 2 3 2 3 9 4 5 7 9 15 19 20 20 21 21 20 18 19 19 18 17 17 18 19 19
5 4 4 5 7 10 10 6 10 8 12 3 3 5 9 8 6 5 5 3 4 4 1 3 5 1 2 1 3 10 15 16 15 16 17 19 18 18 17 17 17 17 18 19
5 4 3 7 12 12 7 7 9 10 8 8 5 6 6 6 7 6 4 4 3 0 2 6 7 4 4 4 2 1 6 9 10 12 15 17 16 16 17 17 16 16 17 17
4 6 10 4 1 7 11 8 13 6 4 5 8 6 6 5 6 5 4 3 3 3 3 3 2 3 3 6 8 5 4 6 9 10 12 14 15 15 14 13 14 14 13 13
5 9 2 4 5 6 8 11 12 11 6 9 8 7 4 3 4 3 3 2 2 2 4 5 4 4 2 4 7 8 11 12 9 9 9 12 13 12 10 9 7 8 10 12
4 6 8 3 5 6 4 8 11 10 9 12 9 7 4 6 6 5 4 3 2 1 2 5 5 7 6 6 7 10 11 15 18 18 18 17 16 18 16 9 5 1 5 9
5 6 4 6 7 7 6 1 11 10 10 10 5 3 8 8 7 7 5 4 3 2 2 4 5 7 8 7 6 6 8 6 12 11 15 16 16 20 18 13 10 11 13 13
3 6 9 9 8 7 2 3 8 8 10 10 6 7 8 8 8 8 8 6 4 2 2 4 4 5 8 7 4 4 5 6 2 10 12 12 16 17 18 18 18 21 19 14
7 6 1 9 3 4 6 6 7 9 9 10 11 9 8 8 9 9 9 7 4 2 1 3 4 2 3 4 3 2 3 5 6 7 8 12 15 17 18 19 24 23 24 19
3 6 5 9 3 3 6 5 6 6 8 10 8 8 10 8 9 9 11 9 6 3 2 0 2 3 1 3 3 4 3 2 4 10 12 12 16 19 19 21 21 20 19 19
4 2 2 4 7 3 6 3 4 5 5 7 6 5 7 9 10 12 12 10 8 4 2 1 1 2 2 1 2 7 9 10 9 10 11 14 15 12 13 12 12 18 19 22
4 6 2 6 7 5 8 8 5 4 4 4 6 5 6 6 9 12 11 10 9 6 4 2 2 1 1 1 4 8 11 12 14 13 12 14 15 15 13 13 12 13 16 16
4 9 2 4 5 4 3 2 3 1 2 2 2 5 5 5 9 11 12 14 14 10 6 4 3 2 1 2 4 6 8 12 13 14 13 13 15 14 16 17 16 15 11 11
1 3 5 3 2 6 3 4 4 4 4 3 3 3 5 6 8 10 13 14 12 11 9 6 5 3 2 2 5 6 6 8 9 10 10 12 12 15 18 16 13 13 15 18
5 5 3 0 3 2 3 3 4 3 3 3 3 3 6 8 8 9 9 11 13 11 8 6 5 4 2 3 5 7 8 7 8 8 9 11 12 13 16 17 16 16 17 17
3 3 9 10 5 6 4 4 7 6 6 4 5 5 5 5 5 7 10 13 16 14 11 8 6 6 6 7 9 9 8 8 9 10 12 10 11 11 11 15 14 13 13 12
8 6 5 4 8 8 11 7 6 3 5 7 7 7 7 7 7 8 11 13 10 10 10 10 9 10 9 9 9 9 9 10 11 10 10 11 11 11 11 13 14 12 11 12
11 10 8 8 8 9 9 9 7 7 6 9 10 11 10 10 8 10 11 10 8 7 8 9 10 10 11 9 8 10 11 11 11 10 10 10 11 11 11 11 12 12 11 13
12 13 12 11 11 7 7 6 9 10 10 11 12 13 12 10 9 10 11 11 10 10 11 11 12 13 11 10 11 11 11 11 10 9 10 10 10 10 10 10 10 11 11 11
14 15 16 16 10 11 8 7 9 12 13 13 11 11 11 11 11 13 13 14 13 10 12 14 15 11 10 10 11 9 10 10 9 8 9 10 10 10 10 11 10 10 10 10
11 11 12 13 12 11 11 10 12 13 15 14 15 14 12 12 13 13 13 12 13 11 12 17 15 12 12 11 10 7 10 11 10 8 9 8 8 9 11 12 13 13 12 11
7 4 11 13 11 11 11 10 11 11 14 14 12 13 12 12 12 13 13 14 10 15 13 14 15 15 14 16 13 10 9 10 11 10 9 7 7 9 10 11 13 13 14 15
12 6 3 3 7 9 12 11 11 11 13 14 15 16 16 15 16 14 9 14 11 14 14 14 15 16 15 14 14 12 10 9 8 9 9 9 8 9 12 16 15 14 14 14
10 9 3 1 5 9 9 12 11 11 10 10 11 10 13 13 13 16 12 9 17 17 15 13 16 16 16 13 13 14 13 12 12 12 13 14 12 11 12 14 16 15 14 15
9 7 3 1 5 7 7 8 9 8 8 9 9 11 12 13 13 12 16 14 15 18 15 16 16 17 16 14 14 15 15 15 15 15 15 15 15 14 14 14 14 16 17 16
9 7 6 5 5 5 6 8 8 7 8 10 11 12 12 13 13 11 11 14 15 18 16 15 17 19 17 17 17 16 17 17 18 21 18 16 15 14 12 12 11 11 13 14
10 7 6 5 3 4 7 9 9 11 13 14 14 12 13 13 15 15 14 12 14 16 18 17 17 20 19 19 19 19 19 18 19 19 19 19 18 17 16 14 13 12 11 11